<?xml version="1.0" encoding="UTF-8" standalone="no" ?>
<gpx xmlns="http://www.topografix.com/GPX/1/1" xmlns:xsi="http://www.w3.org/2001/XMLSchema-instance" xsi:schemaLocation="http://www.topografix.com/GPX/1/1 http://www.topografix.com/GPX/1/1/gpx.xsd" version="1.1" creator="VisuGPX - https://www.visugpx.com">
  <metadata>
    <name>parcours-27-04-2015</name>
    <desc><![CDATA[Saint-Ouen-Marchefroy]]></desc>
  </metadata>
  <trk>
    <name><![CDATA[2015-04-27 16:24:15]]></name>
    <trkseg>
      <trkpt lat="48.84648" lon="1.52814">
        <ele>80.89</ele>
        <time>2015-04-27T07:31:58Z</time>
      </trkpt>
      <trkpt lat="48.84648" lon="1.52814">
        <ele>80.89</ele>
        <time>2015-04-27T07:31:59Z</time>
      </trkpt>
      <trkpt lat="48.84648" lon="1.52814">
        <ele>80.89</ele>
        <time>2015-04-27T07:32:00Z</time>
      </trkpt>
      <trkpt lat="48.84647" lon="1.52823">
        <ele>80.41</ele>
        <time>2015-04-27T07:32:12Z</time>
      </trkpt>
      <trkpt lat="48.84647" lon="1.52825">
        <ele>80.41</ele>
        <time>2015-04-27T07:32:13Z</time>
      </trkpt>
      <trkpt lat="48.84648" lon="1.52849">
        <ele>78.97</ele>
        <time>2015-04-27T07:32:27Z</time>
      </trkpt>
      <trkpt lat="48.84647" lon="1.52856">
        <ele>80.41</ele>
        <time>2015-04-27T07:32:31Z</time>
      </trkpt>
      <trkpt lat="48.84646" lon="1.52863">
        <ele>78</ele>
        <time>2015-04-27T07:32:35Z</time>
      </trkpt>
      <trkpt lat="48.84645" lon="1.52875">
        <ele>78.97</ele>
        <time>2015-04-27T07:32:43Z</time>
      </trkpt>
      <trkpt lat="48.84645" lon="1.52885">
        <ele>78</ele>
        <time>2015-04-27T07:32:49Z</time>
      </trkpt>
      <trkpt lat="48.84644" lon="1.52901">
        <ele>78.48</ele>
        <time>2015-04-27T07:32:58Z</time>
      </trkpt>
      <trkpt lat="48.84644" lon="1.52918">
        <ele>77.04</ele>
        <time>2015-04-27T07:33:07Z</time>
      </trkpt>
      <trkpt lat="48.84644" lon="1.52937">
        <ele>76.56</ele>
        <time>2015-04-27T07:33:18Z</time>
      </trkpt>
      <trkpt lat="48.84643" lon="1.52954">
        <ele>77.04</ele>
        <time>2015-04-27T07:33:27Z</time>
      </trkpt>
      <trkpt lat="48.84642" lon="1.52972">
        <ele>77.04</ele>
        <time>2015-04-27T07:33:37Z</time>
      </trkpt>
      <trkpt lat="48.84642" lon="1.52978">
        <ele>78</ele>
        <time>2015-04-27T07:33:40Z</time>
      </trkpt>
      <trkpt lat="48.8464" lon="1.52992">
        <ele>78</ele>
        <time>2015-04-27T07:33:49Z</time>
      </trkpt>
      <trkpt lat="48.84639" lon="1.53006">
        <ele>78</ele>
        <time>2015-04-27T07:33:58Z</time>
      </trkpt>
      <trkpt lat="48.84639" lon="1.53017">
        <ele>78.48</ele>
        <time>2015-04-27T07:34:06Z</time>
      </trkpt>
      <trkpt lat="48.84641" lon="1.53029">
        <ele>78.48</ele>
        <time>2015-04-27T07:34:13Z</time>
      </trkpt>
      <trkpt lat="48.84639" lon="1.53045">
        <ele>78.48</ele>
        <time>2015-04-27T07:34:21Z</time>
      </trkpt>
      <trkpt lat="48.84639" lon="1.53061">
        <ele>78.48</ele>
        <time>2015-04-27T07:34:30Z</time>
      </trkpt>
      <trkpt lat="48.84639" lon="1.53077">
        <ele>77.52</ele>
        <time>2015-04-27T07:34:39Z</time>
      </trkpt>
      <trkpt lat="48.84639" lon="1.53089">
        <ele>77.52</ele>
        <time>2015-04-27T07:34:46Z</time>
      </trkpt>
      <trkpt lat="48.8464" lon="1.53111">
        <ele>77.52</ele>
        <time>2015-04-27T07:34:57Z</time>
      </trkpt>
      <trkpt lat="48.84642" lon="1.53129">
        <ele>76.56</ele>
        <time>2015-04-27T07:35:07Z</time>
      </trkpt>
      <trkpt lat="48.84643" lon="1.53146">
        <ele>76.56</ele>
        <time>2015-04-27T07:35:16Z</time>
      </trkpt>
      <trkpt lat="48.84643" lon="1.53163">
        <ele>76.56</ele>
        <time>2015-04-27T07:35:25Z</time>
      </trkpt>
      <trkpt lat="48.84641" lon="1.53181">
        <ele>76.56</ele>
        <time>2015-04-27T07:35:35Z</time>
      </trkpt>
      <trkpt lat="48.84637" lon="1.53199">
        <ele>76.56</ele>
        <time>2015-04-27T07:35:46Z</time>
      </trkpt>
      <trkpt lat="48.84633" lon="1.53217">
        <ele>76.56</ele>
        <time>2015-04-27T07:35:57Z</time>
      </trkpt>
      <trkpt lat="48.84628" lon="1.53233">
        <ele>76.08</ele>
        <time>2015-04-27T07:36:07Z</time>
      </trkpt>
      <trkpt lat="48.84622" lon="1.53251">
        <ele>76.08</ele>
        <time>2015-04-27T07:36:18Z</time>
      </trkpt>
      <trkpt lat="48.84616" lon="1.5327">
        <ele>76.08</ele>
        <time>2015-04-27T07:36:30Z</time>
      </trkpt>
      <trkpt lat="48.84612" lon="1.53283">
        <ele>76.08</ele>
        <time>2015-04-27T07:36:38Z</time>
      </trkpt>
      <trkpt lat="48.84609" lon="1.53294">
        <ele>76.08</ele>
        <time>2015-04-27T07:36:46Z</time>
      </trkpt>
      <trkpt lat="48.84605" lon="1.53307">
        <ele>76.08</ele>
        <time>2015-04-27T07:36:54Z</time>
      </trkpt>
      <trkpt lat="48.84598" lon="1.53321">
        <ele>76.08</ele>
        <time>2015-04-27T07:37:03Z</time>
      </trkpt>
      <trkpt lat="48.84591" lon="1.53336">
        <ele>76.08</ele>
        <time>2015-04-27T07:37:13Z</time>
      </trkpt>
      <trkpt lat="48.84584" lon="1.5335">
        <ele>76.08</ele>
        <time>2015-04-27T07:37:23Z</time>
      </trkpt>
      <trkpt lat="48.84577" lon="1.53365">
        <ele>76.08</ele>
        <time>2015-04-27T07:37:32Z</time>
      </trkpt>
      <trkpt lat="48.84569" lon="1.5338">
        <ele>76.08</ele>
        <time>2015-04-27T07:37:42Z</time>
      </trkpt>
      <trkpt lat="48.84561" lon="1.53395">
        <ele>76.08</ele>
        <time>2015-04-27T07:37:53Z</time>
      </trkpt>
      <trkpt lat="48.8455" lon="1.53414">
        <ele>76.08</ele>
        <time>2015-04-27T07:38:07Z</time>
      </trkpt>
      <trkpt lat="48.8454" lon="1.53429">
        <ele>76.08</ele>
        <time>2015-04-27T07:38:20Z</time>
      </trkpt>
      <trkpt lat="48.84532" lon="1.53439">
        <ele>76.08</ele>
        <time>2015-04-27T07:38:30Z</time>
      </trkpt>
      <trkpt lat="48.84525" lon="1.53448">
        <ele>77.52</ele>
        <time>2015-04-27T07:38:38Z</time>
      </trkpt>
      <trkpt lat="48.84523" lon="1.53451">
        <ele>76.08</ele>
        <time>2015-04-27T07:38:40Z</time>
      </trkpt>
      <trkpt lat="48.84515" lon="1.53462">
        <ele>76.08</ele>
        <time>2015-04-27T07:38:50Z</time>
      </trkpt>
      <trkpt lat="48.84507" lon="1.53475">
        <ele>76.08</ele>
        <time>2015-04-27T07:39:00Z</time>
      </trkpt>
      <trkpt lat="48.84498" lon="1.53489">
        <ele>76.08</ele>
        <time>2015-04-27T07:39:11Z</time>
      </trkpt>
      <trkpt lat="48.84489" lon="1.53502">
        <ele>76.56</ele>
        <time>2015-04-27T07:39:22Z</time>
      </trkpt>
      <trkpt lat="48.84482" lon="1.53512">
        <ele>76.56</ele>
        <time>2015-04-27T07:39:31Z</time>
      </trkpt>
      <trkpt lat="48.84472" lon="1.53527">
        <ele>76.56</ele>
        <time>2015-04-27T07:39:42Z</time>
      </trkpt>
      <trkpt lat="48.84465" lon="1.53538">
        <ele>76.56</ele>
        <time>2015-04-27T07:39:50Z</time>
      </trkpt>
      <trkpt lat="48.84456" lon="1.53554">
        <ele>76.56</ele>
        <time>2015-04-27T07:40:00Z</time>
      </trkpt>
      <trkpt lat="48.84448" lon="1.53568">
        <ele>76.56</ele>
        <time>2015-04-27T07:40:09Z</time>
      </trkpt>
      <trkpt lat="48.84442" lon="1.53581">
        <ele>77.52</ele>
        <time>2015-04-27T07:40:18Z</time>
      </trkpt>
      <trkpt lat="48.84434" lon="1.53595">
        <ele>77.52</ele>
        <time>2015-04-27T07:40:28Z</time>
      </trkpt>
      <trkpt lat="48.84431" lon="1.536">
        <ele>77.52</ele>
        <time>2015-04-27T07:40:32Z</time>
      </trkpt>
      <trkpt lat="48.84419" lon="1.53619">
        <ele>78.48</ele>
        <time>2015-04-27T07:40:46Z</time>
      </trkpt>
      <trkpt lat="48.8441" lon="1.53637">
        <ele>78.48</ele>
        <time>2015-04-27T07:40:58Z</time>
      </trkpt>
      <trkpt lat="48.84402" lon="1.53651">
        <ele>78.48</ele>
        <time>2015-04-27T07:41:08Z</time>
      </trkpt>
      <trkpt lat="48.84393" lon="1.53666">
        <ele>78.48</ele>
        <time>2015-04-27T07:41:18Z</time>
      </trkpt>
      <trkpt lat="48.84386" lon="1.53679">
        <ele>77.04</ele>
        <time>2015-04-27T07:41:27Z</time>
      </trkpt>
      <trkpt lat="48.8438" lon="1.53696">
        <ele>77.04</ele>
        <time>2015-04-27T07:41:37Z</time>
      </trkpt>
      <trkpt lat="48.84376" lon="1.53713">
        <ele>77.04</ele>
        <time>2015-04-27T07:41:47Z</time>
      </trkpt>
      <trkpt lat="48.84373" lon="1.53732">
        <ele>77.04</ele>
        <time>2015-04-27T07:41:58Z</time>
      </trkpt>
      <trkpt lat="48.84369" lon="1.5375">
        <ele>77.04</ele>
        <time>2015-04-27T07:42:08Z</time>
      </trkpt>
      <trkpt lat="48.84367" lon="1.53765">
        <ele>77.04</ele>
        <time>2015-04-27T07:42:17Z</time>
      </trkpt>
      <trkpt lat="48.84364" lon="1.53781">
        <ele>77.04</ele>
        <time>2015-04-27T07:42:26Z</time>
      </trkpt>
      <trkpt lat="48.84363" lon="1.53783">
        <ele>77.04</ele>
        <time>2015-04-27T07:42:27Z</time>
      </trkpt>
      <trkpt lat="48.84358" lon="1.538">
        <ele>77.04</ele>
        <time>2015-04-27T07:42:38Z</time>
      </trkpt>
      <trkpt lat="48.84354" lon="1.53815">
        <ele>77.04</ele>
        <time>2015-04-27T07:42:48Z</time>
      </trkpt>
      <trkpt lat="48.84354" lon="1.53819">
        <ele>78.48</ele>
        <time>2015-04-27T07:42:50Z</time>
      </trkpt>
      <trkpt lat="48.84349" lon="1.53835">
        <ele>78.48</ele>
        <time>2015-04-27T07:43:00Z</time>
      </trkpt>
      <trkpt lat="48.84345" lon="1.53854">
        <ele>78.48</ele>
        <time>2015-04-27T07:43:11Z</time>
      </trkpt>
      <trkpt lat="48.84338" lon="1.53875">
        <ele>78.48</ele>
        <time>2015-04-27T07:43:24Z</time>
      </trkpt>
      <trkpt lat="48.84332" lon="1.53889">
        <ele>78.97</ele>
        <time>2015-04-27T07:43:33Z</time>
      </trkpt>
      <trkpt lat="48.84325" lon="1.53906">
        <ele>78.97</ele>
        <time>2015-04-27T07:43:45Z</time>
      </trkpt>
      <trkpt lat="48.84319" lon="1.53922">
        <ele>78.97</ele>
        <time>2015-04-27T07:43:55Z</time>
      </trkpt>
      <trkpt lat="48.84318" lon="1.53929">
        <ele>78.97</ele>
        <time>2015-04-27T07:44:00Z</time>
      </trkpt>
      <trkpt lat="48.84317" lon="1.53947">
        <ele>78.97</ele>
        <time>2015-04-27T07:44:10Z</time>
      </trkpt>
      <trkpt lat="48.84313" lon="1.53965">
        <ele>78</ele>
        <time>2015-04-27T07:44:21Z</time>
      </trkpt>
      <trkpt lat="48.8431" lon="1.53981">
        <ele>78</ele>
        <time>2015-04-27T07:44:31Z</time>
      </trkpt>
      <trkpt lat="48.84308" lon="1.54002">
        <ele>78</ele>
        <time>2015-04-27T07:44:43Z</time>
      </trkpt>
      <trkpt lat="48.84309" lon="1.5402">
        <ele>78</ele>
        <time>2015-04-27T07:44:53Z</time>
      </trkpt>
      <trkpt lat="48.8432" lon="1.54032">
        <ele>78.97</ele>
        <time>2015-04-27T07:45:04Z</time>
      </trkpt>
      <trkpt lat="48.84321" lon="1.54034">
        <ele>78.97</ele>
        <time>2015-04-27T07:45:06Z</time>
      </trkpt>
      <trkpt lat="48.84331" lon="1.54039">
        <ele>79.93</ele>
        <time>2015-04-27T07:45:16Z</time>
      </trkpt>
      <trkpt lat="48.84332" lon="1.5404">
        <ele>79.93</ele>
        <time>2015-04-27T07:45:17Z</time>
      </trkpt>
      <trkpt lat="48.8434" lon="1.54044">
        <ele>80.41</ele>
        <time>2015-04-27T07:45:22Z</time>
      </trkpt>
      <trkpt lat="48.84349" lon="1.5405">
        <ele>81.85</ele>
        <time>2015-04-27T07:45:32Z</time>
      </trkpt>
      <trkpt lat="48.84357" lon="1.54055">
        <ele>83.29</ele>
        <time>2015-04-27T07:45:42Z</time>
      </trkpt>
      <trkpt lat="48.84366" lon="1.54062">
        <ele>84.25</ele>
        <time>2015-04-27T07:45:53Z</time>
      </trkpt>
      <trkpt lat="48.84373" lon="1.54067">
        <ele>85.21</ele>
        <time>2015-04-27T07:46:01Z</time>
      </trkpt>
      <trkpt lat="48.84387" lon="1.54075">
        <ele>86.18</ele>
        <time>2015-04-27T07:46:11Z</time>
      </trkpt>
      <trkpt lat="48.84398" lon="1.54086">
        <ele>87.62</ele>
        <time>2015-04-27T07:46:21Z</time>
      </trkpt>
      <trkpt lat="48.84403" lon="1.54101">
        <ele>88.1</ele>
        <time>2015-04-27T07:46:29Z</time>
      </trkpt>
      <trkpt lat="48.84403" lon="1.54105">
        <ele>88.1</ele>
        <time>2015-04-27T07:46:32Z</time>
      </trkpt>
      <trkpt lat="48.84398" lon="1.54114">
        <ele>88.1</ele>
        <time>2015-04-27T07:46:40Z</time>
      </trkpt>
      <trkpt lat="48.84392" lon="1.54132">
        <ele>88.1</ele>
        <time>2015-04-27T07:46:52Z</time>
      </trkpt>
      <trkpt lat="48.84391" lon="1.54137">
        <ele>87.14</ele>
        <time>2015-04-27T07:46:55Z</time>
      </trkpt>
      <trkpt lat="48.84386" lon="1.54153">
        <ele>86.18</ele>
        <time>2015-04-27T07:47:05Z</time>
      </trkpt>
      <trkpt lat="48.8439" lon="1.5416">
        <ele>85.69</ele>
        <time>2015-04-27T07:47:28Z</time>
      </trkpt>
      <trkpt lat="48.84389" lon="1.54161">
        <ele>87.14</ele>
        <time>2015-04-27T07:47:33Z</time>
      </trkpt>
      <trkpt lat="48.84383" lon="1.54172">
        <ele>87.62</ele>
        <time>2015-04-27T07:47:40Z</time>
      </trkpt>
      <trkpt lat="48.84373" lon="1.54186">
        <ele>85.69</ele>
        <time>2015-04-27T07:47:49Z</time>
      </trkpt>
      <trkpt lat="48.84363" lon="1.54202">
        <ele>86.66</ele>
        <time>2015-04-27T07:47:59Z</time>
      </trkpt>
      <trkpt lat="48.8436" lon="1.54204">
        <ele>86.66</ele>
        <time>2015-04-27T07:48:01Z</time>
      </trkpt>
      <trkpt lat="48.84356" lon="1.54218">
        <ele>85.21</ele>
        <time>2015-04-27T07:48:08Z</time>
      </trkpt>
      <trkpt lat="48.84349" lon="1.54227">
        <ele>85.69</ele>
        <time>2015-04-27T07:48:14Z</time>
      </trkpt>
      <trkpt lat="48.84338" lon="1.5424">
        <ele>84.25</ele>
        <time>2015-04-27T07:48:24Z</time>
      </trkpt>
      <trkpt lat="48.84329" lon="1.5425">
        <ele>83.77</ele>
        <time>2015-04-27T07:48:33Z</time>
      </trkpt>
      <trkpt lat="48.84318" lon="1.54264">
        <ele>83.77</ele>
        <time>2015-04-27T07:48:45Z</time>
      </trkpt>
      <trkpt lat="48.84306" lon="1.54279">
        <ele>83.29</ele>
        <time>2015-04-27T07:48:57Z</time>
      </trkpt>
      <trkpt lat="48.84298" lon="1.54291">
        <ele>82.33</ele>
        <time>2015-04-27T07:49:06Z</time>
      </trkpt>
      <trkpt lat="48.84287" lon="1.54303">
        <ele>81.85</ele>
        <time>2015-04-27T07:49:15Z</time>
      </trkpt>
      <trkpt lat="48.84277" lon="1.54312">
        <ele>81.85</ele>
        <time>2015-04-27T07:49:24Z</time>
      </trkpt>
      <trkpt lat="48.84268" lon="1.5432">
        <ele>81.37</ele>
        <time>2015-04-27T07:49:32Z</time>
      </trkpt>
      <trkpt lat="48.84256" lon="1.54332">
        <ele>81.37</ele>
        <time>2015-04-27T07:49:44Z</time>
      </trkpt>
      <trkpt lat="48.84251" lon="1.54333">
        <ele>80.89</ele>
        <time>2015-04-27T07:49:51Z</time>
      </trkpt>
      <trkpt lat="48.84251" lon="1.54333">
        <ele>80.89</ele>
        <time>2015-04-27T07:49:53Z</time>
      </trkpt>
      <trkpt lat="48.84244" lon="1.54321">
        <ele>80.89</ele>
        <time>2015-04-27T07:50:02Z</time>
      </trkpt>
      <trkpt lat="48.84243" lon="1.5432">
        <ele>80.89</ele>
        <time>2015-04-27T07:50:03Z</time>
      </trkpt>
      <trkpt lat="48.8424" lon="1.54331">
        <ele>80.89</ele>
        <time>2015-04-27T07:50:12Z</time>
      </trkpt>
      <trkpt lat="48.84236" lon="1.54342">
        <ele>80.89</ele>
        <time>2015-04-27T07:50:19Z</time>
      </trkpt>
      <trkpt lat="48.84229" lon="1.54355">
        <ele>80.89</ele>
        <time>2015-04-27T07:50:28Z</time>
      </trkpt>
      <trkpt lat="48.84221" lon="1.54367">
        <ele>80.41</ele>
        <time>2015-04-27T07:50:38Z</time>
      </trkpt>
      <trkpt lat="48.8422" lon="1.54368">
        <ele>82.33</ele>
        <time>2015-04-27T07:50:42Z</time>
      </trkpt>
      <trkpt lat="48.84217" lon="1.54375">
        <ele>81.37</ele>
        <time>2015-04-27T07:50:50Z</time>
      </trkpt>
      <trkpt lat="48.84217" lon="1.54375">
        <ele>81.37</ele>
        <time>2015-04-27T07:50:51Z</time>
      </trkpt>
      <trkpt lat="48.8421" lon="1.54388">
        <ele>81.37</ele>
        <time>2015-04-27T07:51:01Z</time>
      </trkpt>
      <trkpt lat="48.84201" lon="1.54403">
        <ele>82.33</ele>
        <time>2015-04-27T07:51:11Z</time>
      </trkpt>
      <trkpt lat="48.84195" lon="1.54414">
        <ele>82.33</ele>
        <time>2015-04-27T07:51:19Z</time>
      </trkpt>
      <trkpt lat="48.84187" lon="1.54429">
        <ele>82.81</ele>
        <time>2015-04-27T07:51:30Z</time>
      </trkpt>
      <trkpt lat="48.8418" lon="1.54439">
        <ele>83.29</ele>
        <time>2015-04-27T07:51:38Z</time>
      </trkpt>
      <trkpt lat="48.84177" lon="1.54441">
        <ele>83.29</ele>
        <time>2015-04-27T07:51:45Z</time>
      </trkpt>
      <trkpt lat="48.84174" lon="1.5445">
        <ele>83.77</ele>
        <time>2015-04-27T07:51:53Z</time>
      </trkpt>
      <trkpt lat="48.84167" lon="1.54463">
        <ele>83.77</ele>
        <time>2015-04-27T07:52:02Z</time>
      </trkpt>
      <trkpt lat="48.84162" lon="1.54475">
        <ele>83.77</ele>
        <time>2015-04-27T07:52:10Z</time>
      </trkpt>
      <trkpt lat="48.84155" lon="1.54489">
        <ele>84.25</ele>
        <time>2015-04-27T07:52:19Z</time>
      </trkpt>
      <trkpt lat="48.84155" lon="1.54495">
        <ele>84.25</ele>
        <time>2015-04-27T07:52:22Z</time>
      </trkpt>
      <trkpt lat="48.8415" lon="1.54511">
        <ele>84.73</ele>
        <time>2015-04-27T07:52:32Z</time>
      </trkpt>
      <trkpt lat="48.8415" lon="1.54515">
        <ele>84.73</ele>
        <time>2015-04-27T07:52:35Z</time>
      </trkpt>
      <trkpt lat="48.84154" lon="1.54518">
        <ele>85.21</ele>
        <time>2015-04-27T07:52:39Z</time>
      </trkpt>
      <trkpt lat="48.84156" lon="1.54526">
        <ele>85.21</ele>
        <time>2015-04-27T07:52:43Z</time>
      </trkpt>
      <trkpt lat="48.84155" lon="1.54545">
        <ele>85.69</ele>
        <time>2015-04-27T07:52:53Z</time>
      </trkpt>
      <trkpt lat="48.84155" lon="1.54561">
        <ele>86.66</ele>
        <time>2015-04-27T07:53:01Z</time>
      </trkpt>
      <trkpt lat="48.84156" lon="1.54578">
        <ele>87.14</ele>
        <time>2015-04-27T07:53:10Z</time>
      </trkpt>
      <trkpt lat="48.84156" lon="1.54592">
        <ele>87.62</ele>
        <time>2015-04-27T07:53:18Z</time>
      </trkpt>
      <trkpt lat="48.84156" lon="1.54597">
        <ele>88.1</ele>
        <time>2015-04-27T07:53:26Z</time>
      </trkpt>
      <trkpt lat="48.84157" lon="1.5459">
        <ele>88.58</ele>
        <time>2015-04-27T07:53:35Z</time>
      </trkpt>
      <trkpt lat="48.84156" lon="1.54582">
        <ele>87.14</ele>
        <time>2015-04-27T07:53:43Z</time>
      </trkpt>
      <trkpt lat="48.84156" lon="1.54591">
        <ele>87.14</ele>
        <time>2015-04-27T07:53:51Z</time>
      </trkpt>
      <trkpt lat="48.84156" lon="1.54594">
        <ele>87.14</ele>
        <time>2015-04-27T07:53:53Z</time>
      </trkpt>
      <trkpt lat="48.84154" lon="1.54605">
        <ele>88.1</ele>
        <time>2015-04-27T07:53:59Z</time>
      </trkpt>
      <trkpt lat="48.84152" lon="1.5462">
        <ele>88.58</ele>
        <time>2015-04-27T07:54:08Z</time>
      </trkpt>
      <trkpt lat="48.84148" lon="1.54632">
        <ele>89.06</ele>
        <time>2015-04-27T07:54:17Z</time>
      </trkpt>
      <trkpt lat="48.84142" lon="1.54648">
        <ele>89.54</ele>
        <time>2015-04-27T07:54:27Z</time>
      </trkpt>
      <trkpt lat="48.84136" lon="1.54662">
        <ele>90.02</ele>
        <time>2015-04-27T07:54:37Z</time>
      </trkpt>
      <trkpt lat="48.8413" lon="1.54673">
        <ele>90.5</ele>
        <time>2015-04-27T07:54:45Z</time>
      </trkpt>
      <trkpt lat="48.84125" lon="1.54687">
        <ele>90.5</ele>
        <time>2015-04-27T07:54:54Z</time>
      </trkpt>
      <trkpt lat="48.84119" lon="1.54704">
        <ele>90.98</ele>
        <time>2015-04-27T07:55:05Z</time>
      </trkpt>
      <trkpt lat="48.84115" lon="1.54718">
        <ele>91.46</ele>
        <time>2015-04-27T07:55:14Z</time>
      </trkpt>
      <trkpt lat="48.84116" lon="1.54729">
        <ele>92.42</ele>
        <time>2015-04-27T07:55:19Z</time>
      </trkpt>
      <trkpt lat="48.84127" lon="1.54743">
        <ele>92.9</ele>
        <time>2015-04-27T07:55:30Z</time>
      </trkpt>
      <trkpt lat="48.84136" lon="1.54753">
        <ele>93.39</ele>
        <time>2015-04-27T07:55:39Z</time>
      </trkpt>
      <trkpt lat="48.84144" lon="1.54764">
        <ele>93.87</ele>
        <time>2015-04-27T07:55:48Z</time>
      </trkpt>
      <trkpt lat="48.8415" lon="1.54772">
        <ele>94.35</ele>
        <time>2015-04-27T07:55:54Z</time>
      </trkpt>
      <trkpt lat="48.84153" lon="1.54778">
        <ele>94.83</ele>
        <time>2015-04-27T07:55:58Z</time>
      </trkpt>
      <trkpt lat="48.84158" lon="1.54793">
        <ele>95.79</ele>
        <time>2015-04-27T07:56:07Z</time>
      </trkpt>
      <trkpt lat="48.8416" lon="1.5481">
        <ele>96.75</ele>
        <time>2015-04-27T07:56:16Z</time>
      </trkpt>
      <trkpt lat="48.84159" lon="1.54828">
        <ele>96.75</ele>
        <time>2015-04-27T07:56:25Z</time>
      </trkpt>
      <trkpt lat="48.84158" lon="1.54843">
        <ele>96.75</ele>
        <time>2015-04-27T07:56:33Z</time>
      </trkpt>
      <trkpt lat="48.84158" lon="1.54849">
        <ele>98.19</ele>
        <time>2015-04-27T07:56:36Z</time>
      </trkpt>
      <trkpt lat="48.84157" lon="1.54867">
        <ele>98.19</ele>
        <time>2015-04-27T07:56:46Z</time>
      </trkpt>
      <trkpt lat="48.84157" lon="1.54881">
        <ele>98.19</ele>
        <time>2015-04-27T07:56:53Z</time>
      </trkpt>
      <trkpt lat="48.84158" lon="1.54902">
        <ele>99.15</ele>
        <time>2015-04-27T07:57:04Z</time>
      </trkpt>
      <trkpt lat="48.84159" lon="1.54921">
        <ele>99.63</ele>
        <time>2015-04-27T07:57:14Z</time>
      </trkpt>
      <trkpt lat="48.8416" lon="1.54942">
        <ele>99.63</ele>
        <time>2015-04-27T07:57:25Z</time>
      </trkpt>
      <trkpt lat="48.84162" lon="1.54961">
        <ele>100.11</ele>
        <time>2015-04-27T07:57:35Z</time>
      </trkpt>
      <trkpt lat="48.84167" lon="1.5498">
        <ele>101.08</ele>
        <time>2015-04-27T07:57:45Z</time>
      </trkpt>
      <trkpt lat="48.84176" lon="1.54994">
        <ele>101.56</ele>
        <time>2015-04-27T07:57:55Z</time>
      </trkpt>
      <trkpt lat="48.84184" lon="1.55003">
        <ele>102.04</ele>
        <time>2015-04-27T07:58:04Z</time>
      </trkpt>
      <trkpt lat="48.84193" lon="1.55014">
        <ele>103</ele>
        <time>2015-04-27T07:58:13Z</time>
      </trkpt>
      <trkpt lat="48.84204" lon="1.55024">
        <ele>103.48</ele>
        <time>2015-04-27T07:58:24Z</time>
      </trkpt>
      <trkpt lat="48.84215" lon="1.55034">
        <ele>103.96</ele>
        <time>2015-04-27T07:58:35Z</time>
      </trkpt>
      <trkpt lat="48.84226" lon="1.55044">
        <ele>105.4</ele>
        <time>2015-04-27T07:58:47Z</time>
      </trkpt>
      <trkpt lat="48.84235" lon="1.55051">
        <ele>105.88</ele>
        <time>2015-04-27T07:58:55Z</time>
      </trkpt>
      <trkpt lat="48.84244" lon="1.5506">
        <ele>107.32</ele>
        <time>2015-04-27T07:59:05Z</time>
      </trkpt>
      <trkpt lat="48.84255" lon="1.55068">
        <ele>107.81</ele>
        <time>2015-04-27T07:59:15Z</time>
      </trkpt>
      <trkpt lat="48.84267" lon="1.55078">
        <ele>108.77</ele>
        <time>2015-04-27T07:59:26Z</time>
      </trkpt>
      <trkpt lat="48.84278" lon="1.55086">
        <ele>109.73</ele>
        <time>2015-04-27T07:59:36Z</time>
      </trkpt>
      <trkpt lat="48.84288" lon="1.55096">
        <ele>109.73</ele>
        <time>2015-04-27T07:59:46Z</time>
      </trkpt>
      <trkpt lat="48.843" lon="1.55104">
        <ele>110.69</ele>
        <time>2015-04-27T07:59:57Z</time>
      </trkpt>
      <trkpt lat="48.8431" lon="1.55118">
        <ele>112.13</ele>
        <time>2015-04-27T08:00:08Z</time>
      </trkpt>
      <trkpt lat="48.84319" lon="1.55136">
        <ele>113.09</ele>
        <time>2015-04-27T08:00:20Z</time>
      </trkpt>
      <trkpt lat="48.84325" lon="1.55154">
        <ele>114.53</ele>
        <time>2015-04-27T08:00:31Z</time>
      </trkpt>
      <trkpt lat="48.8433" lon="1.5517">
        <ele>113.57</ele>
        <time>2015-04-27T08:00:41Z</time>
      </trkpt>
      <trkpt lat="48.84334" lon="1.55184">
        <ele>114.53</ele>
        <time>2015-04-27T08:00:49Z</time>
      </trkpt>
      <trkpt lat="48.84339" lon="1.55199">
        <ele>115.5</ele>
        <time>2015-04-27T08:00:58Z</time>
      </trkpt>
      <trkpt lat="48.84343" lon="1.55215">
        <ele>115.5</ele>
        <time>2015-04-27T08:01:07Z</time>
      </trkpt>
      <trkpt lat="48.84348" lon="1.55232">
        <ele>115.5</ele>
        <time>2015-04-27T08:01:17Z</time>
      </trkpt>
      <trkpt lat="48.84349" lon="1.55242">
        <ele>114.05</ele>
        <time>2015-04-27T08:01:23Z</time>
      </trkpt>
      <trkpt lat="48.84351" lon="1.55249">
        <ele>114.05</ele>
        <time>2015-04-27T08:01:27Z</time>
      </trkpt>
      <trkpt lat="48.84356" lon="1.55265">
        <ele>114.05</ele>
        <time>2015-04-27T08:01:36Z</time>
      </trkpt>
      <trkpt lat="48.84358" lon="1.55274">
        <ele>115.5</ele>
        <time>2015-04-27T08:01:41Z</time>
      </trkpt>
      <trkpt lat="48.84363" lon="1.5529">
        <ele>115.01</ele>
        <time>2015-04-27T08:01:50Z</time>
      </trkpt>
      <trkpt lat="48.84367" lon="1.55306">
        <ele>115.01</ele>
        <time>2015-04-27T08:01:59Z</time>
      </trkpt>
      <trkpt lat="48.84373" lon="1.55323">
        <ele>115.5</ele>
        <time>2015-04-27T08:02:09Z</time>
      </trkpt>
      <trkpt lat="48.8438" lon="1.55343">
        <ele>116.46</ele>
        <time>2015-04-27T08:02:21Z</time>
      </trkpt>
      <trkpt lat="48.84385" lon="1.55358">
        <ele>116.46</ele>
        <time>2015-04-27T08:02:30Z</time>
      </trkpt>
      <trkpt lat="48.84392" lon="1.55376">
        <ele>116.46</ele>
        <time>2015-04-27T08:02:41Z</time>
      </trkpt>
      <trkpt lat="48.84397" lon="1.55391">
        <ele>116.46</ele>
        <time>2015-04-27T08:02:50Z</time>
      </trkpt>
      <trkpt lat="48.84403" lon="1.55409">
        <ele>116.46</ele>
        <time>2015-04-27T08:03:01Z</time>
      </trkpt>
      <trkpt lat="48.8441" lon="1.5543">
        <ele>116.46</ele>
        <time>2015-04-27T08:03:13Z</time>
      </trkpt>
      <trkpt lat="48.84415" lon="1.55447">
        <ele>116.46</ele>
        <time>2015-04-27T08:03:23Z</time>
      </trkpt>
      <trkpt lat="48.84421" lon="1.55464">
        <ele>117.42</ele>
        <time>2015-04-27T08:03:33Z</time>
      </trkpt>
      <trkpt lat="48.84426" lon="1.55478">
        <ele>117.42</ele>
        <time>2015-04-27T08:03:42Z</time>
      </trkpt>
      <trkpt lat="48.84431" lon="1.55493">
        <ele>117.42</ele>
        <time>2015-04-27T08:03:51Z</time>
      </trkpt>
      <trkpt lat="48.84438" lon="1.55511">
        <ele>117.42</ele>
        <time>2015-04-27T08:04:02Z</time>
      </trkpt>
      <trkpt lat="48.84444" lon="1.5553">
        <ele>117.42</ele>
        <time>2015-04-27T08:04:13Z</time>
      </trkpt>
      <trkpt lat="48.84449" lon="1.55545">
        <ele>117.42</ele>
        <time>2015-04-27T08:04:22Z</time>
      </trkpt>
      <trkpt lat="48.84454" lon="1.5556">
        <ele>117.42</ele>
        <time>2015-04-27T08:04:31Z</time>
      </trkpt>
      <trkpt lat="48.84461" lon="1.55579">
        <ele>117.42</ele>
        <time>2015-04-27T08:04:42Z</time>
      </trkpt>
      <trkpt lat="48.84468" lon="1.55596">
        <ele>117.42</ele>
        <time>2015-04-27T08:04:53Z</time>
      </trkpt>
      <trkpt lat="48.84475" lon="1.55615">
        <ele>117.42</ele>
        <time>2015-04-27T08:05:04Z</time>
      </trkpt>
      <trkpt lat="48.84481" lon="1.55631">
        <ele>117.42</ele>
        <time>2015-04-27T08:05:14Z</time>
      </trkpt>
      <trkpt lat="48.84487" lon="1.55648">
        <ele>118.38</ele>
        <time>2015-04-27T08:05:25Z</time>
      </trkpt>
      <trkpt lat="48.84491" lon="1.55661">
        <ele>118.38</ele>
        <time>2015-04-27T08:05:33Z</time>
      </trkpt>
      <trkpt lat="48.84497" lon="1.55679">
        <ele>119.34</ele>
        <time>2015-04-27T08:05:44Z</time>
      </trkpt>
      <trkpt lat="48.84503" lon="1.55693">
        <ele>119.34</ele>
        <time>2015-04-27T08:05:53Z</time>
      </trkpt>
      <trkpt lat="48.84509" lon="1.5571">
        <ele>119.34</ele>
        <time>2015-04-27T08:06:03Z</time>
      </trkpt>
      <trkpt lat="48.84516" lon="1.55729">
        <ele>119.34</ele>
        <time>2015-04-27T08:06:14Z</time>
      </trkpt>
      <trkpt lat="48.84522" lon="1.55746">
        <ele>119.34</ele>
        <time>2015-04-27T08:06:24Z</time>
      </trkpt>
      <trkpt lat="48.84526" lon="1.5576">
        <ele>119.34</ele>
        <time>2015-04-27T08:06:33Z</time>
      </trkpt>
      <trkpt lat="48.84532" lon="1.55776">
        <ele>119.82</ele>
        <time>2015-04-27T08:06:43Z</time>
      </trkpt>
      <trkpt lat="48.84537" lon="1.55795">
        <ele>119.34</ele>
        <time>2015-04-27T08:06:53Z</time>
      </trkpt>
      <trkpt lat="48.84542" lon="1.5581">
        <ele>120.78</ele>
        <time>2015-04-27T08:07:03Z</time>
      </trkpt>
      <trkpt lat="48.84543" lon="1.55812">
        <ele>120.78</ele>
        <time>2015-04-27T08:07:04Z</time>
      </trkpt>
      <trkpt lat="48.84548" lon="1.55826">
        <ele>120.78</ele>
        <time>2015-04-27T08:07:13Z</time>
      </trkpt>
      <trkpt lat="48.84554" lon="1.55841">
        <ele>121.74</ele>
        <time>2015-04-27T08:07:23Z</time>
      </trkpt>
      <trkpt lat="48.8456" lon="1.55857">
        <ele>122.22</ele>
        <time>2015-04-27T08:07:33Z</time>
      </trkpt>
      <trkpt lat="48.84564" lon="1.5587">
        <ele>122.71</ele>
        <time>2015-04-27T08:07:41Z</time>
      </trkpt>
      <trkpt lat="48.8457" lon="1.55884">
        <ele>123.67</ele>
        <time>2015-04-27T08:07:50Z</time>
      </trkpt>
      <trkpt lat="48.84578" lon="1.55902">
        <ele>124.63</ele>
        <time>2015-04-27T08:08:02Z</time>
      </trkpt>
      <trkpt lat="48.84584" lon="1.55916">
        <ele>125.11</ele>
        <time>2015-04-27T08:08:11Z</time>
      </trkpt>
      <trkpt lat="48.8459" lon="1.55927">
        <ele>123.67</ele>
        <time>2015-04-27T08:08:19Z</time>
      </trkpt>
      <trkpt lat="48.84595" lon="1.55936">
        <ele>123.19</ele>
        <time>2015-04-27T08:08:28Z</time>
      </trkpt>
      <trkpt lat="48.84597" lon="1.5594">
        <ele>125.11</ele>
        <time>2015-04-27T08:08:31Z</time>
      </trkpt>
      <trkpt lat="48.84598" lon="1.55942">
        <ele>123.19</ele>
        <time>2015-04-27T08:08:34Z</time>
      </trkpt>
      <trkpt lat="48.84598" lon="1.55942">
        <ele>126.55</ele>
        <time>2015-04-27T08:08:35Z</time>
      </trkpt>
      <trkpt lat="48.84601" lon="1.55949">
        <ele>124.15</ele>
        <time>2015-04-27T08:08:42Z</time>
      </trkpt>
      <trkpt lat="48.84598" lon="1.55954">
        <ele>125.59</ele>
        <time>2015-04-27T08:08:47Z</time>
      </trkpt>
      <trkpt lat="48.84597" lon="1.55956">
        <ele>125.59</ele>
        <time>2015-04-27T08:08:49Z</time>
      </trkpt>
      <trkpt lat="48.84591" lon="1.55959">
        <ele>125.11</ele>
        <time>2015-04-27T08:08:57Z</time>
      </trkpt>
      <trkpt lat="48.84591" lon="1.55957">
        <ele>124.63</ele>
        <time>2015-04-27T08:09:03Z</time>
      </trkpt>
      <trkpt lat="48.8459" lon="1.55959">
        <ele>124.63</ele>
        <time>2015-04-27T08:09:05Z</time>
      </trkpt>
      <trkpt lat="48.84583" lon="1.55963">
        <ele>124.63</ele>
        <time>2015-04-27T08:09:11Z</time>
      </trkpt>
      <trkpt lat="48.8457" lon="1.5597">
        <ele>124.63</ele>
        <time>2015-04-27T08:09:23Z</time>
      </trkpt>
      <trkpt lat="48.84561" lon="1.55975">
        <ele>124.63</ele>
        <time>2015-04-27T08:09:33Z</time>
      </trkpt>
      <trkpt lat="48.84554" lon="1.55979">
        <ele>124.15</ele>
        <time>2015-04-27T08:09:39Z</time>
      </trkpt>
      <trkpt lat="48.84542" lon="1.55987">
        <ele>123.67</ele>
        <time>2015-04-27T08:09:50Z</time>
      </trkpt>
      <trkpt lat="48.84533" lon="1.55992">
        <ele>123.67</ele>
        <time>2015-04-27T08:09:57Z</time>
      </trkpt>
      <trkpt lat="48.8452" lon="1.55998">
        <ele>123.67</ele>
        <time>2015-04-27T08:10:08Z</time>
      </trkpt>
      <trkpt lat="48.84507" lon="1.56004">
        <ele>123.67</ele>
        <time>2015-04-27T08:10:19Z</time>
      </trkpt>
      <trkpt lat="48.84496" lon="1.5601">
        <ele>123.67</ele>
        <time>2015-04-27T08:10:28Z</time>
      </trkpt>
      <trkpt lat="48.84485" lon="1.56017">
        <ele>122.71</ele>
        <time>2015-04-27T08:10:38Z</time>
      </trkpt>
      <trkpt lat="48.84473" lon="1.56026">
        <ele>122.71</ele>
        <time>2015-04-27T08:10:48Z</time>
      </trkpt>
      <trkpt lat="48.84461" lon="1.56034">
        <ele>121.74</ele>
        <time>2015-04-27T08:10:58Z</time>
      </trkpt>
      <trkpt lat="48.84448" lon="1.56046">
        <ele>121.74</ele>
        <time>2015-04-27T08:11:10Z</time>
      </trkpt>
      <trkpt lat="48.84436" lon="1.56059">
        <ele>120.3</ele>
        <time>2015-04-27T08:11:21Z</time>
      </trkpt>
      <trkpt lat="48.84424" lon="1.56071">
        <ele>120.3</ele>
        <time>2015-04-27T08:11:32Z</time>
      </trkpt>
      <trkpt lat="48.84411" lon="1.56081">
        <ele>120.3</ele>
        <time>2015-04-27T08:11:43Z</time>
      </trkpt>
      <trkpt lat="48.84403" lon="1.56092">
        <ele>119.82</ele>
        <time>2015-04-27T08:11:52Z</time>
      </trkpt>
      <trkpt lat="48.8439" lon="1.56106">
        <ele>119.82</ele>
        <time>2015-04-27T08:12:04Z</time>
      </trkpt>
      <trkpt lat="48.8438" lon="1.56115">
        <ele>119.34</ele>
        <time>2015-04-27T08:12:13Z</time>
      </trkpt>
      <trkpt lat="48.84368" lon="1.56126">
        <ele>119.34</ele>
        <time>2015-04-27T08:12:24Z</time>
      </trkpt>
      <trkpt lat="48.84356" lon="1.56137">
        <ele>118.86</ele>
        <time>2015-04-27T08:12:35Z</time>
      </trkpt>
      <trkpt lat="48.84346" lon="1.56145">
        <ele>118.86</ele>
        <time>2015-04-27T08:12:44Z</time>
      </trkpt>
      <trkpt lat="48.84337" lon="1.56157">
        <ele>118.38</ele>
        <time>2015-04-27T08:12:53Z</time>
      </trkpt>
      <trkpt lat="48.84328" lon="1.56168">
        <ele>118.86</ele>
        <time>2015-04-27T08:13:02Z</time>
      </trkpt>
      <trkpt lat="48.84316" lon="1.5618">
        <ele>118.38</ele>
        <time>2015-04-27T08:13:13Z</time>
      </trkpt>
      <trkpt lat="48.84305" lon="1.56193">
        <ele>117.42</ele>
        <time>2015-04-27T08:13:24Z</time>
      </trkpt>
      <trkpt lat="48.84296" lon="1.56204">
        <ele>115.98</ele>
        <time>2015-04-27T08:13:33Z</time>
      </trkpt>
      <trkpt lat="48.84285" lon="1.56215">
        <ele>116.46</ele>
        <time>2015-04-27T08:13:43Z</time>
      </trkpt>
      <trkpt lat="48.84275" lon="1.56223">
        <ele>116.46</ele>
        <time>2015-04-27T08:13:52Z</time>
      </trkpt>
      <trkpt lat="48.84263" lon="1.5623">
        <ele>116.46</ele>
        <time>2015-04-27T08:14:02Z</time>
      </trkpt>
      <trkpt lat="48.84251" lon="1.56235">
        <ele>116.46</ele>
        <time>2015-04-27T08:14:12Z</time>
      </trkpt>
      <trkpt lat="48.84241" lon="1.56237">
        <ele>116.46</ele>
        <time>2015-04-27T08:14:20Z</time>
      </trkpt>
      <trkpt lat="48.84236" lon="1.56237">
        <ele>116.46</ele>
        <time>2015-04-27T08:14:28Z</time>
      </trkpt>
      <trkpt lat="48.84233" lon="1.56236">
        <ele>117.42</ele>
        <time>2015-04-27T08:14:36Z</time>
      </trkpt>
      <trkpt lat="48.84233" lon="1.56239">
        <ele>117.42</ele>
        <time>2015-04-27T08:14:43Z</time>
      </trkpt>
      <trkpt lat="48.84234" lon="1.56239">
        <ele>115.98</ele>
        <time>2015-04-27T08:14:52Z</time>
      </trkpt>
      <trkpt lat="48.84235" lon="1.56239">
        <ele>117.42</ele>
        <time>2015-04-27T08:15:13Z</time>
      </trkpt>
      <trkpt lat="48.84237" lon="1.56241">
        <ele>117.42</ele>
        <time>2015-04-27T08:15:21Z</time>
      </trkpt>
      <trkpt lat="48.84237" lon="1.56241">
        <ele>115.98</ele>
        <time>2015-04-27T08:15:23Z</time>
      </trkpt>
      <trkpt lat="48.84236" lon="1.5624">
        <ele>115.98</ele>
        <time>2015-04-27T08:15:30Z</time>
      </trkpt>
      <trkpt lat="48.84235" lon="1.56239">
        <ele>115.98</ele>
        <time>2015-04-27T08:15:47Z</time>
      </trkpt>
      <trkpt lat="48.84235" lon="1.56237">
        <ele>115.5</ele>
        <time>2015-04-27T08:16:01Z</time>
      </trkpt>
      <trkpt lat="48.84233" lon="1.56237">
        <ele>118.86</ele>
        <time>2015-04-27T08:16:10Z</time>
      </trkpt>
      <trkpt lat="48.84227" lon="1.56239">
        <ele>116.94</ele>
        <time>2015-04-27T08:16:17Z</time>
      </trkpt>
      <trkpt lat="48.84213" lon="1.56243">
        <ele>116.94</ele>
        <time>2015-04-27T08:16:28Z</time>
      </trkpt>
      <trkpt lat="48.84201" lon="1.56245">
        <ele>116.94</ele>
        <time>2015-04-27T08:16:38Z</time>
      </trkpt>
      <trkpt lat="48.8419" lon="1.56247">
        <ele>119.34</ele>
        <time>2015-04-27T08:16:48Z</time>
      </trkpt>
      <trkpt lat="48.8418" lon="1.56249">
        <ele>119.34</ele>
        <time>2015-04-27T08:16:57Z</time>
      </trkpt>
      <trkpt lat="48.84168" lon="1.56254">
        <ele>119.82</ele>
        <time>2015-04-27T08:17:07Z</time>
      </trkpt>
      <trkpt lat="48.84156" lon="1.56257">
        <ele>119.82</ele>
        <time>2015-04-27T08:17:17Z</time>
      </trkpt>
      <trkpt lat="48.84143" lon="1.56259">
        <ele>120.3</ele>
        <time>2015-04-27T08:17:28Z</time>
      </trkpt>
      <trkpt lat="48.84129" lon="1.56262">
        <ele>120.78</ele>
        <time>2015-04-27T08:17:39Z</time>
      </trkpt>
      <trkpt lat="48.84116" lon="1.56266">
        <ele>120.78</ele>
        <time>2015-04-27T08:17:51Z</time>
      </trkpt>
      <trkpt lat="48.84104" lon="1.56269">
        <ele>120.78</ele>
        <time>2015-04-27T08:18:00Z</time>
      </trkpt>
      <trkpt lat="48.84092" lon="1.5627">
        <ele>121.26</ele>
        <time>2015-04-27T08:18:10Z</time>
      </trkpt>
      <trkpt lat="48.8408" lon="1.56275">
        <ele>121.74</ele>
        <time>2015-04-27T08:18:21Z</time>
      </trkpt>
      <trkpt lat="48.84067" lon="1.56281">
        <ele>121.74</ele>
        <time>2015-04-27T08:18:32Z</time>
      </trkpt>
      <trkpt lat="48.84055" lon="1.56291">
        <ele>122.22</ele>
        <time>2015-04-27T08:18:43Z</time>
      </trkpt>
      <trkpt lat="48.84046" lon="1.56301">
        <ele>122.71</ele>
        <time>2015-04-27T08:18:52Z</time>
      </trkpt>
      <trkpt lat="48.84036" lon="1.56311">
        <ele>122.71</ele>
        <time>2015-04-27T08:19:02Z</time>
      </trkpt>
      <trkpt lat="48.84025" lon="1.56321">
        <ele>122.71</ele>
        <time>2015-04-27T08:19:12Z</time>
      </trkpt>
      <trkpt lat="48.84014" lon="1.56332">
        <ele>122.71</ele>
        <time>2015-04-27T08:19:23Z</time>
      </trkpt>
      <trkpt lat="48.84003" lon="1.56343">
        <ele>122.71</ele>
        <time>2015-04-27T08:19:33Z</time>
      </trkpt>
      <trkpt lat="48.83994" lon="1.56354">
        <ele>122.71</ele>
        <time>2015-04-27T08:19:43Z</time>
      </trkpt>
      <trkpt lat="48.83986" lon="1.56364">
        <ele>122.71</ele>
        <time>2015-04-27T08:19:51Z</time>
      </trkpt>
      <trkpt lat="48.83975" lon="1.56376">
        <ele>122.71</ele>
        <time>2015-04-27T08:20:02Z</time>
      </trkpt>
      <trkpt lat="48.83965" lon="1.56387">
        <ele>122.71</ele>
        <time>2015-04-27T08:20:12Z</time>
      </trkpt>
      <trkpt lat="48.83956" lon="1.56397">
        <ele>122.71</ele>
        <time>2015-04-27T08:20:21Z</time>
      </trkpt>
      <trkpt lat="48.83946" lon="1.56408">
        <ele>122.71</ele>
        <time>2015-04-27T08:20:31Z</time>
      </trkpt>
      <trkpt lat="48.83935" lon="1.56419">
        <ele>122.71</ele>
        <time>2015-04-27T08:20:42Z</time>
      </trkpt>
      <trkpt lat="48.83929" lon="1.56429">
        <ele>121.74</ele>
        <time>2015-04-27T08:20:50Z</time>
      </trkpt>
      <trkpt lat="48.8392" lon="1.56439">
        <ele>121.74</ele>
        <time>2015-04-27T08:20:59Z</time>
      </trkpt>
      <trkpt lat="48.83911" lon="1.5645">
        <ele>120.78</ele>
        <time>2015-04-27T08:21:09Z</time>
      </trkpt>
      <trkpt lat="48.83903" lon="1.56462">
        <ele>122.22</ele>
        <time>2015-04-27T08:21:19Z</time>
      </trkpt>
      <trkpt lat="48.83896" lon="1.56473">
        <ele>120.78</ele>
        <time>2015-04-27T08:21:28Z</time>
      </trkpt>
      <trkpt lat="48.83886" lon="1.56483">
        <ele>120.78</ele>
        <time>2015-04-27T08:21:38Z</time>
      </trkpt>
      <trkpt lat="48.83876" lon="1.56494">
        <ele>120.78</ele>
        <time>2015-04-27T08:21:48Z</time>
      </trkpt>
      <trkpt lat="48.83866" lon="1.56507">
        <ele>120.3</ele>
        <time>2015-04-27T08:21:59Z</time>
      </trkpt>
      <trkpt lat="48.83858" lon="1.56516">
        <ele>120.3</ele>
        <time>2015-04-27T08:22:07Z</time>
      </trkpt>
      <trkpt lat="48.8385" lon="1.56527">
        <ele>120.3</ele>
        <time>2015-04-27T08:22:16Z</time>
      </trkpt>
      <trkpt lat="48.83841" lon="1.56539">
        <ele>120.78</ele>
        <time>2015-04-27T08:22:26Z</time>
      </trkpt>
      <trkpt lat="48.83833" lon="1.56549">
        <ele>120.78</ele>
        <time>2015-04-27T08:22:35Z</time>
      </trkpt>
      <trkpt lat="48.83827" lon="1.56554">
        <ele>120.3</ele>
        <time>2015-04-27T08:22:43Z</time>
      </trkpt>
      <trkpt lat="48.83826" lon="1.56557">
        <ele>120.3</ele>
        <time>2015-04-27T08:22:50Z</time>
      </trkpt>
      <trkpt lat="48.83828" lon="1.56562">
        <ele>120.78</ele>
        <time>2015-04-27T08:23:09Z</time>
      </trkpt>
      <trkpt lat="48.83826" lon="1.56562">
        <ele>120.78</ele>
        <time>2015-04-27T08:23:15Z</time>
      </trkpt>
      <trkpt lat="48.83825" lon="1.56561">
        <ele>120.78</ele>
        <time>2015-04-27T08:23:34Z</time>
      </trkpt>
      <trkpt lat="48.83825" lon="1.5656">
        <ele>120.78</ele>
        <time>2015-04-27T08:23:56Z</time>
      </trkpt>
      <trkpt lat="48.83822" lon="1.56563">
        <ele>120.3</ele>
        <time>2015-04-27T08:24:05Z</time>
      </trkpt>
      <trkpt lat="48.83822" lon="1.56564">
        <ele>121.26</ele>
        <time>2015-04-27T08:24:09Z</time>
      </trkpt>
      <trkpt lat="48.83823" lon="1.56565">
        <ele>121.74</ele>
        <time>2015-04-27T08:24:22Z</time>
      </trkpt>
      <trkpt lat="48.83823" lon="1.56565">
        <ele>121.74</ele>
        <time>2015-04-27T08:24:40Z</time>
      </trkpt>
      <trkpt lat="48.83819" lon="1.56572">
        <ele>121.74</ele>
        <time>2015-04-27T08:24:47Z</time>
      </trkpt>
      <trkpt lat="48.83808" lon="1.56587">
        <ele>119.82</ele>
        <time>2015-04-27T08:24:59Z</time>
      </trkpt>
      <trkpt lat="48.83799" lon="1.56601">
        <ele>119.34</ele>
        <time>2015-04-27T08:25:09Z</time>
      </trkpt>
      <trkpt lat="48.83791" lon="1.56613">
        <ele>118.86</ele>
        <time>2015-04-27T08:25:18Z</time>
      </trkpt>
      <trkpt lat="48.83781" lon="1.56628">
        <ele>118.86</ele>
        <time>2015-04-27T08:25:29Z</time>
      </trkpt>
      <trkpt lat="48.8377" lon="1.56643">
        <ele>118.38</ele>
        <time>2015-04-27T08:25:40Z</time>
      </trkpt>
      <trkpt lat="48.8376" lon="1.56658">
        <ele>117.9</ele>
        <time>2015-04-27T08:25:51Z</time>
      </trkpt>
      <trkpt lat="48.83749" lon="1.56673">
        <ele>116.94</ele>
        <time>2015-04-27T08:26:02Z</time>
      </trkpt>
      <trkpt lat="48.83739" lon="1.56686">
        <ele>116.46</ele>
        <time>2015-04-27T08:26:12Z</time>
      </trkpt>
      <trkpt lat="48.8373" lon="1.56698">
        <ele>115.98</ele>
        <time>2015-04-27T08:26:22Z</time>
      </trkpt>
      <trkpt lat="48.8372" lon="1.5671">
        <ele>115.98</ele>
        <time>2015-04-27T08:26:32Z</time>
      </trkpt>
      <trkpt lat="48.83707" lon="1.56725">
        <ele>115.98</ele>
        <time>2015-04-27T08:26:44Z</time>
      </trkpt>
      <trkpt lat="48.83693" lon="1.56742">
        <ele>115.5</ele>
        <time>2015-04-27T08:26:57Z</time>
      </trkpt>
      <trkpt lat="48.83683" lon="1.56754">
        <ele>115.5</ele>
        <time>2015-04-27T08:27:07Z</time>
      </trkpt>
      <trkpt lat="48.83672" lon="1.56767">
        <ele>114.05</ele>
        <time>2015-04-27T08:27:18Z</time>
      </trkpt>
      <trkpt lat="48.83659" lon="1.5678">
        <ele>113.57</ele>
        <time>2015-04-27T08:27:30Z</time>
      </trkpt>
      <trkpt lat="48.83648" lon="1.56793">
        <ele>112.13</ele>
        <time>2015-04-27T08:27:41Z</time>
      </trkpt>
      <trkpt lat="48.83635" lon="1.56808">
        <ele>111.65</ele>
        <time>2015-04-27T08:27:53Z</time>
      </trkpt>
      <trkpt lat="48.83625" lon="1.56821">
        <ele>109.73</ele>
        <time>2015-04-27T08:28:04Z</time>
      </trkpt>
      <trkpt lat="48.83615" lon="1.56832">
        <ele>109.25</ele>
        <time>2015-04-27T08:28:14Z</time>
      </trkpt>
      <trkpt lat="48.83604" lon="1.56845">
        <ele>108.29</ele>
        <time>2015-04-27T08:28:25Z</time>
      </trkpt>
      <trkpt lat="48.83594" lon="1.56855">
        <ele>107.32</ele>
        <time>2015-04-27T08:28:34Z</time>
      </trkpt>
      <trkpt lat="48.83582" lon="1.56868">
        <ele>107.81</ele>
        <time>2015-04-27T08:28:46Z</time>
      </trkpt>
      <trkpt lat="48.83574" lon="1.56875">
        <ele>107.32</ele>
        <time>2015-04-27T08:28:55Z</time>
      </trkpt>
      <trkpt lat="48.83566" lon="1.56881">
        <ele>108.77</ele>
        <time>2015-04-27T08:29:02Z</time>
      </trkpt>
      <trkpt lat="48.83557" lon="1.5689">
        <ele>109.25</ele>
        <time>2015-04-27T08:29:12Z</time>
      </trkpt>
      <trkpt lat="48.83547" lon="1.569">
        <ele>110.21</ele>
        <time>2015-04-27T08:29:22Z</time>
      </trkpt>
      <trkpt lat="48.83538" lon="1.56912">
        <ele>111.17</ele>
        <time>2015-04-27T08:29:33Z</time>
      </trkpt>
      <trkpt lat="48.83531" lon="1.56921">
        <ele>112.13</ele>
        <time>2015-04-27T08:29:42Z</time>
      </trkpt>
      <trkpt lat="48.83524" lon="1.56933">
        <ele>112.13</ele>
        <time>2015-04-27T08:29:52Z</time>
      </trkpt>
      <trkpt lat="48.83514" lon="1.56949">
        <ele>113.57</ele>
        <time>2015-04-27T08:30:04Z</time>
      </trkpt>
      <trkpt lat="48.83505" lon="1.56961">
        <ele>114.53</ele>
        <time>2015-04-27T08:30:14Z</time>
      </trkpt>
      <trkpt lat="48.83497" lon="1.56974">
        <ele>115.01</ele>
        <time>2015-04-27T08:30:24Z</time>
      </trkpt>
      <trkpt lat="48.83489" lon="1.56986">
        <ele>115.5</ele>
        <time>2015-04-27T08:30:33Z</time>
      </trkpt>
      <trkpt lat="48.8348" lon="1.56997">
        <ele>115.98</ele>
        <time>2015-04-27T08:30:43Z</time>
      </trkpt>
      <trkpt lat="48.83472" lon="1.57009">
        <ele>116.46</ele>
        <time>2015-04-27T08:30:53Z</time>
      </trkpt>
      <trkpt lat="48.83463" lon="1.57022">
        <ele>116.94</ele>
        <time>2015-04-27T08:31:04Z</time>
      </trkpt>
      <trkpt lat="48.83453" lon="1.57035">
        <ele>117.9</ele>
        <time>2015-04-27T08:31:15Z</time>
      </trkpt>
      <trkpt lat="48.83445" lon="1.57047">
        <ele>118.38</ele>
        <time>2015-04-27T08:31:25Z</time>
      </trkpt>
      <trkpt lat="48.83438" lon="1.57057">
        <ele>119.34</ele>
        <time>2015-04-27T08:31:34Z</time>
      </trkpt>
      <trkpt lat="48.83431" lon="1.57067">
        <ele>119.34</ele>
        <time>2015-04-27T08:31:43Z</time>
      </trkpt>
      <trkpt lat="48.83422" lon="1.5708">
        <ele>119.82</ele>
        <time>2015-04-27T08:31:54Z</time>
      </trkpt>
      <trkpt lat="48.83414" lon="1.57092">
        <ele>120.3</ele>
        <time>2015-04-27T08:32:04Z</time>
      </trkpt>
      <trkpt lat="48.83405" lon="1.57107">
        <ele>120.78</ele>
        <time>2015-04-27T08:32:15Z</time>
      </trkpt>
      <trkpt lat="48.83396" lon="1.57119">
        <ele>121.26</ele>
        <time>2015-04-27T08:32:25Z</time>
      </trkpt>
      <trkpt lat="48.83388" lon="1.5713">
        <ele>121.26</ele>
        <time>2015-04-27T08:32:34Z</time>
      </trkpt>
      <trkpt lat="48.83379" lon="1.57143">
        <ele>121.26</ele>
        <time>2015-04-27T08:32:44Z</time>
      </trkpt>
      <trkpt lat="48.8337" lon="1.57155">
        <ele>122.22</ele>
        <time>2015-04-27T08:32:54Z</time>
      </trkpt>
      <trkpt lat="48.83363" lon="1.57163">
        <ele>122.22</ele>
        <time>2015-04-27T08:33:04Z</time>
      </trkpt>
      <trkpt lat="48.83361" lon="1.57163">
        <ele>122.22</ele>
        <time>2015-04-27T08:33:17Z</time>
      </trkpt>
      <trkpt lat="48.83359" lon="1.57163">
        <ele>122.22</ele>
        <time>2015-04-27T08:33:23Z</time>
      </trkpt>
      <trkpt lat="48.83359" lon="1.57162">
        <ele>122.22</ele>
        <time>2015-04-27T08:33:31Z</time>
      </trkpt>
      <trkpt lat="48.83361" lon="1.57161">
        <ele>121.26</ele>
        <time>2015-04-27T08:33:33Z</time>
      </trkpt>
      <trkpt lat="48.83369" lon="1.57153">
        <ele>122.22</ele>
        <time>2015-04-27T08:33:42Z</time>
      </trkpt>
      <trkpt lat="48.83368" lon="1.57155">
        <ele>122.22</ele>
        <time>2015-04-27T08:33:46Z</time>
      </trkpt>
      <trkpt lat="48.83358" lon="1.57163">
        <ele>122.22</ele>
        <time>2015-04-27T08:33:56Z</time>
      </trkpt>
      <trkpt lat="48.83348" lon="1.57157">
        <ele>122.22</ele>
        <time>2015-04-27T08:34:06Z</time>
      </trkpt>
      <trkpt lat="48.83339" lon="1.57147">
        <ele>122.22</ele>
        <time>2015-04-27T08:34:15Z</time>
      </trkpt>
      <trkpt lat="48.83329" lon="1.57136">
        <ele>121.74</ele>
        <time>2015-04-27T08:34:26Z</time>
      </trkpt>
      <trkpt lat="48.83319" lon="1.57125">
        <ele>121.74</ele>
        <time>2015-04-27T08:34:36Z</time>
      </trkpt>
      <trkpt lat="48.83314" lon="1.5712">
        <ele>121.74</ele>
        <time>2015-04-27T08:34:44Z</time>
      </trkpt>
      <trkpt lat="48.83309" lon="1.57114">
        <ele>121.74</ele>
        <time>2015-04-27T08:34:51Z</time>
      </trkpt>
      <trkpt lat="48.833" lon="1.57105">
        <ele>121.74</ele>
        <time>2015-04-27T08:35:01Z</time>
      </trkpt>
      <trkpt lat="48.83291" lon="1.57096">
        <ele>121.74</ele>
        <time>2015-04-27T08:35:10Z</time>
      </trkpt>
      <trkpt lat="48.83279" lon="1.57084">
        <ele>121.74</ele>
        <time>2015-04-27T08:35:21Z</time>
      </trkpt>
      <trkpt lat="48.83268" lon="1.57073">
        <ele>121.74</ele>
        <time>2015-04-27T08:35:32Z</time>
      </trkpt>
      <trkpt lat="48.83257" lon="1.57061">
        <ele>121.74</ele>
        <time>2015-04-27T08:35:43Z</time>
      </trkpt>
      <trkpt lat="48.83251" lon="1.57054">
        <ele>122.22</ele>
        <time>2015-04-27T08:35:50Z</time>
      </trkpt>
      <trkpt lat="48.8324" lon="1.57041">
        <ele>122.22</ele>
        <time>2015-04-27T08:36:01Z</time>
      </trkpt>
      <trkpt lat="48.83229" lon="1.5703">
        <ele>122.22</ele>
        <time>2015-04-27T08:36:12Z</time>
      </trkpt>
      <trkpt lat="48.83217" lon="1.57016">
        <ele>122.22</ele>
        <time>2015-04-27T08:36:24Z</time>
      </trkpt>
      <trkpt lat="48.83205" lon="1.57004">
        <ele>121.74</ele>
        <time>2015-04-27T08:36:36Z</time>
      </trkpt>
      <trkpt lat="48.83194" lon="1.56991">
        <ele>121.74</ele>
        <time>2015-04-27T08:36:47Z</time>
      </trkpt>
      <trkpt lat="48.83183" lon="1.56979">
        <ele>121.74</ele>
        <time>2015-04-27T08:36:58Z</time>
      </trkpt>
      <trkpt lat="48.8317" lon="1.56967">
        <ele>121.74</ele>
        <time>2015-04-27T08:37:10Z</time>
      </trkpt>
      <trkpt lat="48.8316" lon="1.56958">
        <ele>121.74</ele>
        <time>2015-04-27T08:37:19Z</time>
      </trkpt>
      <trkpt lat="48.8315" lon="1.56947">
        <ele>121.74</ele>
        <time>2015-04-27T08:37:29Z</time>
      </trkpt>
      <trkpt lat="48.8314" lon="1.56937">
        <ele>121.74</ele>
        <time>2015-04-27T08:37:39Z</time>
      </trkpt>
      <trkpt lat="48.83128" lon="1.56925">
        <ele>121.74</ele>
        <time>2015-04-27T08:37:51Z</time>
      </trkpt>
      <trkpt lat="48.83116" lon="1.56913">
        <ele>122.22</ele>
        <time>2015-04-27T08:38:02Z</time>
      </trkpt>
      <trkpt lat="48.83107" lon="1.56901">
        <ele>121.74</ele>
        <time>2015-04-27T08:38:12Z</time>
      </trkpt>
      <trkpt lat="48.83096" lon="1.56891">
        <ele>121.74</ele>
        <time>2015-04-27T08:38:23Z</time>
      </trkpt>
      <trkpt lat="48.83086" lon="1.56881">
        <ele>121.74</ele>
        <time>2015-04-27T08:38:32Z</time>
      </trkpt>
      <trkpt lat="48.83079" lon="1.56874">
        <ele>121.74</ele>
        <time>2015-04-27T08:38:39Z</time>
      </trkpt>
      <trkpt lat="48.83072" lon="1.56867">
        <ele>121.74</ele>
        <time>2015-04-27T08:38:46Z</time>
      </trkpt>
      <trkpt lat="48.83064" lon="1.56858">
        <ele>121.26</ele>
        <time>2015-04-27T08:38:54Z</time>
      </trkpt>
      <trkpt lat="48.83053" lon="1.56846">
        <ele>121.26</ele>
        <time>2015-04-27T08:39:05Z</time>
      </trkpt>
      <trkpt lat="48.83047" lon="1.56829">
        <ele>120.3</ele>
        <time>2015-04-27T08:39:15Z</time>
      </trkpt>
      <trkpt lat="48.83042" lon="1.56809">
        <ele>120.3</ele>
        <time>2015-04-27T08:39:25Z</time>
      </trkpt>
      <trkpt lat="48.83039" lon="1.56787">
        <ele>119.82</ele>
        <time>2015-04-27T08:39:36Z</time>
      </trkpt>
      <trkpt lat="48.83036" lon="1.56769">
        <ele>119.34</ele>
        <time>2015-04-27T08:39:45Z</time>
      </trkpt>
      <trkpt lat="48.83034" lon="1.5675">
        <ele>119.34</ele>
        <time>2015-04-27T08:39:55Z</time>
      </trkpt>
      <trkpt lat="48.83031" lon="1.5673">
        <ele>118.86</ele>
        <time>2015-04-27T08:40:05Z</time>
      </trkpt>
      <trkpt lat="48.83029" lon="1.56714">
        <ele>117.9</ele>
        <time>2015-04-27T08:40:14Z</time>
      </trkpt>
      <trkpt lat="48.83025" lon="1.5669">
        <ele>117.9</ele>
        <time>2015-04-27T08:40:26Z</time>
      </trkpt>
      <trkpt lat="48.83023" lon="1.56668">
        <ele>115.98</ele>
        <time>2015-04-27T08:40:38Z</time>
      </trkpt>
      <trkpt lat="48.8302" lon="1.56643">
        <ele>115.01</ele>
        <time>2015-04-27T08:40:51Z</time>
      </trkpt>
      <trkpt lat="48.83016" lon="1.56619">
        <ele>112.61</ele>
        <time>2015-04-27T08:41:04Z</time>
      </trkpt>
      <trkpt lat="48.83014" lon="1.566">
        <ele>111.17</ele>
        <time>2015-04-27T08:41:14Z</time>
      </trkpt>
      <trkpt lat="48.83011" lon="1.56579">
        <ele>110.21</ele>
        <time>2015-04-27T08:41:25Z</time>
      </trkpt>
      <trkpt lat="48.83008" lon="1.5656">
        <ele>108.77</ele>
        <time>2015-04-27T08:41:35Z</time>
      </trkpt>
      <trkpt lat="48.83007" lon="1.56539">
        <ele>106.84</ele>
        <time>2015-04-27T08:41:46Z</time>
      </trkpt>
      <trkpt lat="48.83005" lon="1.56521">
        <ele>105.88</ele>
        <time>2015-04-27T08:41:56Z</time>
      </trkpt>
      <trkpt lat="48.83002" lon="1.56501">
        <ele>103.96</ele>
        <time>2015-04-27T08:42:07Z</time>
      </trkpt>
      <trkpt lat="48.83" lon="1.56488">
        <ele>103</ele>
        <time>2015-04-27T08:42:16Z</time>
      </trkpt>
      <trkpt lat="48.83" lon="1.56488">
        <ele>102.52</ele>
        <time>2015-04-27T08:42:31Z</time>
      </trkpt>
      <trkpt lat="48.83" lon="1.56487">
        <ele>101.56</ele>
        <time>2015-04-27T08:42:50Z</time>
      </trkpt>
      <trkpt lat="48.82998" lon="1.56472">
        <ele>101.56</ele>
        <time>2015-04-27T08:43:00Z</time>
      </trkpt>
      <trkpt lat="48.82997" lon="1.56463">
        <ele>100.11</ele>
        <time>2015-04-27T08:43:09Z</time>
      </trkpt>
      <trkpt lat="48.82995" lon="1.56449">
        <ele>99.15</ele>
        <time>2015-04-27T08:43:18Z</time>
      </trkpt>
      <trkpt lat="48.82992" lon="1.56432">
        <ele>97.23</ele>
        <time>2015-04-27T08:43:28Z</time>
      </trkpt>
      <trkpt lat="48.82988" lon="1.56413">
        <ele>96.27</ele>
        <time>2015-04-27T08:43:39Z</time>
      </trkpt>
      <trkpt lat="48.82986" lon="1.56404">
        <ele>95.79</ele>
        <time>2015-04-27T08:43:45Z</time>
      </trkpt>
      <trkpt lat="48.82986" lon="1.56389">
        <ele>94.83</ele>
        <time>2015-04-27T08:43:54Z</time>
      </trkpt>
      <trkpt lat="48.83001" lon="1.56384">
        <ele>92.9</ele>
        <time>2015-04-27T08:44:06Z</time>
      </trkpt>
      <trkpt lat="48.83013" lon="1.56378">
        <ele>92.9</ele>
        <time>2015-04-27T08:44:17Z</time>
      </trkpt>
      <trkpt lat="48.83026" lon="1.56373">
        <ele>91.94</ele>
        <time>2015-04-27T08:44:27Z</time>
      </trkpt>
      <trkpt lat="48.83037" lon="1.56366">
        <ele>91.94</ele>
        <time>2015-04-27T08:44:37Z</time>
      </trkpt>
      <trkpt lat="48.83047" lon="1.56361">
        <ele>91.46</ele>
        <time>2015-04-27T08:44:46Z</time>
      </trkpt>
      <trkpt lat="48.8306" lon="1.56356">
        <ele>91.46</ele>
        <time>2015-04-27T08:44:56Z</time>
      </trkpt>
      <trkpt lat="48.83065" lon="1.56354">
        <ele>91.46</ele>
        <time>2015-04-27T08:45:01Z</time>
      </trkpt>
      <trkpt lat="48.83074" lon="1.56346">
        <ele>91.46</ele>
        <time>2015-04-27T08:45:12Z</time>
      </trkpt>
      <trkpt lat="48.83078" lon="1.56346">
        <ele>91.46</ele>
        <time>2015-04-27T08:45:18Z</time>
      </trkpt>
      <trkpt lat="48.83088" lon="1.56343">
        <ele>91.46</ele>
        <time>2015-04-27T08:45:27Z</time>
      </trkpt>
      <trkpt lat="48.83094" lon="1.5634">
        <ele>90.5</ele>
        <time>2015-04-27T08:45:35Z</time>
      </trkpt>
      <trkpt lat="48.83091" lon="1.56324">
        <ele>89.54</ele>
        <time>2015-04-27T08:45:45Z</time>
      </trkpt>
      <trkpt lat="48.8309" lon="1.56319">
        <ele>89.54</ele>
        <time>2015-04-27T08:45:53Z</time>
      </trkpt>
      <trkpt lat="48.83085" lon="1.56305">
        <ele>88.1</ele>
        <time>2015-04-27T08:46:02Z</time>
      </trkpt>
      <trkpt lat="48.8308" lon="1.56294">
        <ele>87.62</ele>
        <time>2015-04-27T08:46:10Z</time>
      </trkpt>
      <trkpt lat="48.83074" lon="1.56272">
        <ele>87.14</ele>
        <time>2015-04-27T08:46:22Z</time>
      </trkpt>
      <trkpt lat="48.83069" lon="1.56252">
        <ele>85.69</ele>
        <time>2015-04-27T08:46:33Z</time>
      </trkpt>
      <trkpt lat="48.83062" lon="1.56236">
        <ele>85.21</ele>
        <time>2015-04-27T08:46:43Z</time>
      </trkpt>
      <trkpt lat="48.8305" lon="1.56226">
        <ele>85.21</ele>
        <time>2015-04-27T08:46:54Z</time>
      </trkpt>
      <trkpt lat="48.83038" lon="1.56222">
        <ele>85.21</ele>
        <time>2015-04-27T08:47:04Z</time>
      </trkpt>
      <trkpt lat="48.83032" lon="1.5622">
        <ele>85.21</ele>
        <time>2015-04-27T08:47:10Z</time>
      </trkpt>
      <trkpt lat="48.8302" lon="1.56215">
        <ele>84.73</ele>
        <time>2015-04-27T08:47:21Z</time>
      </trkpt>
      <trkpt lat="48.83009" lon="1.56209">
        <ele>84.73</ele>
        <time>2015-04-27T08:47:31Z</time>
      </trkpt>
      <trkpt lat="48.82997" lon="1.56202">
        <ele>84.73</ele>
        <time>2015-04-27T08:47:41Z</time>
      </trkpt>
      <trkpt lat="48.82984" lon="1.56193">
        <ele>84.73</ele>
        <time>2015-04-27T08:47:52Z</time>
      </trkpt>
      <trkpt lat="48.82978" lon="1.5619">
        <ele>86.18</ele>
        <time>2015-04-27T08:48:01Z</time>
      </trkpt>
      <trkpt lat="48.82978" lon="1.56188">
        <ele>84.73</ele>
        <time>2015-04-27T08:48:03Z</time>
      </trkpt>
      <trkpt lat="48.82976" lon="1.56187">
        <ele>86.18</ele>
        <time>2015-04-27T08:48:06Z</time>
      </trkpt>
      <trkpt lat="48.82973" lon="1.56182">
        <ele>86.18</ele>
        <time>2015-04-27T08:48:15Z</time>
      </trkpt>
      <trkpt lat="48.82973" lon="1.56182">
        <ele>86.18</ele>
        <time>2015-04-27T08:48:16Z</time>
      </trkpt>
      <trkpt lat="48.82971" lon="1.56182">
        <ele>84.73</ele>
        <time>2015-04-27T08:48:20Z</time>
      </trkpt>
      <trkpt lat="48.82971" lon="1.56184">
        <ele>84.25</ele>
        <time>2015-04-27T08:48:36Z</time>
      </trkpt>
      <trkpt lat="48.82971" lon="1.56185">
        <ele>84.25</ele>
        <time>2015-04-27T08:48:57Z</time>
      </trkpt>
      <trkpt lat="48.82972" lon="1.56187">
        <ele>85.69</ele>
        <time>2015-04-27T08:49:02Z</time>
      </trkpt>
      <trkpt lat="48.82973" lon="1.56191">
        <ele>85.69</ele>
        <time>2015-04-27T08:49:10Z</time>
      </trkpt>
      <trkpt lat="48.82974" lon="1.56191">
        <ele>84.25</ele>
        <time>2015-04-27T08:49:18Z</time>
      </trkpt>
      <trkpt lat="48.82974" lon="1.56191">
        <ele>84.25</ele>
        <time>2015-04-27T08:49:19Z</time>
      </trkpt>
      <trkpt lat="48.82974" lon="1.5619">
        <ele>85.69</ele>
        <time>2015-04-27T08:49:22Z</time>
      </trkpt>
      <trkpt lat="48.82975" lon="1.56187">
        <ele>85.69</ele>
        <time>2015-04-27T08:49:32Z</time>
      </trkpt>
      <trkpt lat="48.82975" lon="1.56189">
        <ele>85.69</ele>
        <time>2015-04-27T08:49:48Z</time>
      </trkpt>
      <trkpt lat="48.82975" lon="1.56189">
        <ele>85.69</ele>
        <time>2015-04-27T08:50:00Z</time>
      </trkpt>
      <trkpt lat="48.82972" lon="1.56187">
        <ele>85.69</ele>
        <time>2015-04-27T08:50:13Z</time>
      </trkpt>
      <trkpt lat="48.82965" lon="1.56178">
        <ele>85.69</ele>
        <time>2015-04-27T08:50:23Z</time>
      </trkpt>
      <trkpt lat="48.82956" lon="1.56167">
        <ele>85.69</ele>
        <time>2015-04-27T08:50:34Z</time>
      </trkpt>
      <trkpt lat="48.82949" lon="1.56157">
        <ele>85.69</ele>
        <time>2015-04-27T08:50:43Z</time>
      </trkpt>
      <trkpt lat="48.82942" lon="1.56148">
        <ele>85.69</ele>
        <time>2015-04-27T08:50:52Z</time>
      </trkpt>
      <trkpt lat="48.82936" lon="1.56139">
        <ele>85.69</ele>
        <time>2015-04-27T08:51:00Z</time>
      </trkpt>
      <trkpt lat="48.82926" lon="1.56125">
        <ele>85.69</ele>
        <time>2015-04-27T08:51:11Z</time>
      </trkpt>
      <trkpt lat="48.82917" lon="1.56111">
        <ele>84.73</ele>
        <time>2015-04-27T08:51:22Z</time>
      </trkpt>
      <trkpt lat="48.82913" lon="1.56105">
        <ele>85.21</ele>
        <time>2015-04-27T08:51:27Z</time>
      </trkpt>
      <trkpt lat="48.82906" lon="1.56092">
        <ele>85.21</ele>
        <time>2015-04-27T08:51:36Z</time>
      </trkpt>
      <trkpt lat="48.829" lon="1.56076">
        <ele>85.21</ele>
        <time>2015-04-27T08:51:46Z</time>
      </trkpt>
      <trkpt lat="48.82895" lon="1.56065">
        <ele>85.21</ele>
        <time>2015-04-27T08:51:54Z</time>
      </trkpt>
      <trkpt lat="48.82888" lon="1.56049">
        <ele>84.73</ele>
        <time>2015-04-27T08:52:04Z</time>
      </trkpt>
      <trkpt lat="48.82882" lon="1.56035">
        <ele>84.73</ele>
        <time>2015-04-27T08:52:13Z</time>
      </trkpt>
      <trkpt lat="48.82873" lon="1.56022">
        <ele>84.25</ele>
        <time>2015-04-27T08:52:23Z</time>
      </trkpt>
      <trkpt lat="48.82865" lon="1.56012">
        <ele>84.25</ele>
        <time>2015-04-27T08:52:32Z</time>
      </trkpt>
      <trkpt lat="48.82856" lon="1.56">
        <ele>86.18</ele>
        <time>2015-04-27T08:52:41Z</time>
      </trkpt>
      <trkpt lat="48.82847" lon="1.5599">
        <ele>86.18</ele>
        <time>2015-04-27T08:52:50Z</time>
      </trkpt>
      <trkpt lat="48.82835" lon="1.55981">
        <ele>86.18</ele>
        <time>2015-04-27T08:53:01Z</time>
      </trkpt>
      <trkpt lat="48.82824" lon="1.55971">
        <ele>86.18</ele>
        <time>2015-04-27T08:53:12Z</time>
      </trkpt>
      <trkpt lat="48.82813" lon="1.55961">
        <ele>86.18</ele>
        <time>2015-04-27T08:53:22Z</time>
      </trkpt>
      <trkpt lat="48.82803" lon="1.55953">
        <ele>86.18</ele>
        <time>2015-04-27T08:53:31Z</time>
      </trkpt>
      <trkpt lat="48.8279" lon="1.55942">
        <ele>86.18</ele>
        <time>2015-04-27T08:53:42Z</time>
      </trkpt>
      <trkpt lat="48.82777" lon="1.55932">
        <ele>86.18</ele>
        <time>2015-04-27T08:53:53Z</time>
      </trkpt>
      <trkpt lat="48.82765" lon="1.55921">
        <ele>86.18</ele>
        <time>2015-04-27T08:54:04Z</time>
      </trkpt>
      <trkpt lat="48.82753" lon="1.55911">
        <ele>86.18</ele>
        <time>2015-04-27T08:54:15Z</time>
      </trkpt>
      <trkpt lat="48.82739" lon="1.55898">
        <ele>84.73</ele>
        <time>2015-04-27T08:54:27Z</time>
      </trkpt>
      <trkpt lat="48.8273" lon="1.55889">
        <ele>84.73</ele>
        <time>2015-04-27T08:54:36Z</time>
      </trkpt>
      <trkpt lat="48.8272" lon="1.55879">
        <ele>84.73</ele>
        <time>2015-04-27T08:54:46Z</time>
      </trkpt>
      <trkpt lat="48.82707" lon="1.55867">
        <ele>84.73</ele>
        <time>2015-04-27T08:54:57Z</time>
      </trkpt>
      <trkpt lat="48.82694" lon="1.55856">
        <ele>84.73</ele>
        <time>2015-04-27T08:55:09Z</time>
      </trkpt>
      <trkpt lat="48.82682" lon="1.55844">
        <ele>84.73</ele>
        <time>2015-04-27T08:55:20Z</time>
      </trkpt>
      <trkpt lat="48.82672" lon="1.55836">
        <ele>84.73</ele>
        <time>2015-04-27T08:55:29Z</time>
      </trkpt>
      <trkpt lat="48.8266" lon="1.55826">
        <ele>84.73</ele>
        <time>2015-04-27T08:55:39Z</time>
      </trkpt>
      <trkpt lat="48.8265" lon="1.55815">
        <ele>84.73</ele>
        <time>2015-04-27T08:55:49Z</time>
      </trkpt>
      <trkpt lat="48.82636" lon="1.55803">
        <ele>84.73</ele>
        <time>2015-04-27T08:56:01Z</time>
      </trkpt>
      <trkpt lat="48.82624" lon="1.55792">
        <ele>84.73</ele>
        <time>2015-04-27T08:56:12Z</time>
      </trkpt>
      <trkpt lat="48.82613" lon="1.55781">
        <ele>84.73</ele>
        <time>2015-04-27T08:56:23Z</time>
      </trkpt>
      <trkpt lat="48.82602" lon="1.5577">
        <ele>84.73</ele>
        <time>2015-04-27T08:56:33Z</time>
      </trkpt>
      <trkpt lat="48.8259" lon="1.5576">
        <ele>84.73</ele>
        <time>2015-04-27T08:56:43Z</time>
      </trkpt>
      <trkpt lat="48.82581" lon="1.55752">
        <ele>84.73</ele>
        <time>2015-04-27T08:56:52Z</time>
      </trkpt>
      <trkpt lat="48.82574" lon="1.55747">
        <ele>86.18</ele>
        <time>2015-04-27T08:56:58Z</time>
      </trkpt>
      <trkpt lat="48.82559" lon="1.55738">
        <ele>86.18</ele>
        <time>2015-04-27T08:57:11Z</time>
      </trkpt>
      <trkpt lat="48.82548" lon="1.55733">
        <ele>86.18</ele>
        <time>2015-04-27T08:57:20Z</time>
      </trkpt>
      <trkpt lat="48.82535" lon="1.55728">
        <ele>86.18</ele>
        <time>2015-04-27T08:57:30Z</time>
      </trkpt>
      <trkpt lat="48.8252" lon="1.55723">
        <ele>86.66</ele>
        <time>2015-04-27T08:57:42Z</time>
      </trkpt>
      <trkpt lat="48.82505" lon="1.55719">
        <ele>86.66</ele>
        <time>2015-04-27T08:57:53Z</time>
      </trkpt>
      <trkpt lat="48.82491" lon="1.55716">
        <ele>86.66</ele>
        <time>2015-04-27T08:58:04Z</time>
      </trkpt>
      <trkpt lat="48.82478" lon="1.55712">
        <ele>86.66</ele>
        <time>2015-04-27T08:58:14Z</time>
      </trkpt>
      <trkpt lat="48.82464" lon="1.5571">
        <ele>85.21</ele>
        <time>2015-04-27T08:58:25Z</time>
      </trkpt>
      <trkpt lat="48.82448" lon="1.55706">
        <ele>85.21</ele>
        <time>2015-04-27T08:58:38Z</time>
      </trkpt>
      <trkpt lat="48.82437" lon="1.55704">
        <ele>85.21</ele>
        <time>2015-04-27T08:58:47Z</time>
      </trkpt>
      <trkpt lat="48.82426" lon="1.55705">
        <ele>85.21</ele>
        <time>2015-04-27T08:58:56Z</time>
      </trkpt>
      <trkpt lat="48.82414" lon="1.55705">
        <ele>85.21</ele>
        <time>2015-04-27T08:59:06Z</time>
      </trkpt>
      <trkpt lat="48.82399" lon="1.55707">
        <ele>86.66</ele>
        <time>2015-04-27T08:59:17Z</time>
      </trkpt>
      <trkpt lat="48.82388" lon="1.55709">
        <ele>87.14</ele>
        <time>2015-04-27T08:59:26Z</time>
      </trkpt>
      <trkpt lat="48.82373" lon="1.55714">
        <ele>87.14</ele>
        <time>2015-04-27T08:59:37Z</time>
      </trkpt>
      <trkpt lat="48.82361" lon="1.5572">
        <ele>87.14</ele>
        <time>2015-04-27T08:59:47Z</time>
      </trkpt>
      <trkpt lat="48.82362" lon="1.5572">
        <ele>87.14</ele>
        <time>2015-04-27T08:59:49Z</time>
      </trkpt>
      <trkpt lat="48.82364" lon="1.55718">
        <ele>87.14</ele>
        <time>2015-04-27T08:59:57Z</time>
      </trkpt>
      <trkpt lat="48.82352" lon="1.55725">
        <ele>87.14</ele>
        <time>2015-04-27T09:00:08Z</time>
      </trkpt>
      <trkpt lat="48.8234" lon="1.55729">
        <ele>87.14</ele>
        <time>2015-04-27T09:00:18Z</time>
      </trkpt>
      <trkpt lat="48.8233" lon="1.55734">
        <ele>85.69</ele>
        <time>2015-04-27T09:00:27Z</time>
      </trkpt>
      <trkpt lat="48.82334" lon="1.55734">
        <ele>85.69</ele>
        <time>2015-04-27T09:00:33Z</time>
      </trkpt>
      <trkpt lat="48.82335" lon="1.55734">
        <ele>85.69</ele>
        <time>2015-04-27T09:00:41Z</time>
      </trkpt>
      <trkpt lat="48.82335" lon="1.55733">
        <ele>85.69</ele>
        <time>2015-04-27T09:00:51Z</time>
      </trkpt>
      <trkpt lat="48.82334" lon="1.55734">
        <ele>86.66</ele>
        <time>2015-04-27T09:01:05Z</time>
      </trkpt>
      <trkpt lat="48.82333" lon="1.55735">
        <ele>86.66</ele>
        <time>2015-04-27T09:01:07Z</time>
      </trkpt>
      <trkpt lat="48.82326" lon="1.55745">
        <ele>85.69</ele>
        <time>2015-04-27T09:01:15Z</time>
      </trkpt>
      <trkpt lat="48.82317" lon="1.55756">
        <ele>85.69</ele>
        <time>2015-04-27T09:01:24Z</time>
      </trkpt>
      <trkpt lat="48.82308" lon="1.55771">
        <ele>85.69</ele>
        <time>2015-04-27T09:01:35Z</time>
      </trkpt>
      <trkpt lat="48.82298" lon="1.55789">
        <ele>85.21</ele>
        <time>2015-04-27T09:01:47Z</time>
      </trkpt>
      <trkpt lat="48.82287" lon="1.55809">
        <ele>85.21</ele>
        <time>2015-04-27T09:02:00Z</time>
      </trkpt>
      <trkpt lat="48.82278" lon="1.55826">
        <ele>85.21</ele>
        <time>2015-04-27T09:02:11Z</time>
      </trkpt>
      <trkpt lat="48.82269" lon="1.55845">
        <ele>85.21</ele>
        <time>2015-04-27T09:02:23Z</time>
      </trkpt>
      <trkpt lat="48.82262" lon="1.55863">
        <ele>85.21</ele>
        <time>2015-04-27T09:02:34Z</time>
      </trkpt>
      <trkpt lat="48.82256" lon="1.5588">
        <ele>85.21</ele>
        <time>2015-04-27T09:02:44Z</time>
      </trkpt>
      <trkpt lat="48.82251" lon="1.55898">
        <ele>85.21</ele>
        <time>2015-04-27T09:02:55Z</time>
      </trkpt>
      <trkpt lat="48.82247" lon="1.55918">
        <ele>86.18</ele>
        <time>2015-04-27T09:03:05Z</time>
      </trkpt>
      <trkpt lat="48.82244" lon="1.55932">
        <ele>85.21</ele>
        <time>2015-04-27T09:03:12Z</time>
      </trkpt>
      <trkpt lat="48.82241" lon="1.55952">
        <ele>85.21</ele>
        <time>2015-04-27T09:03:22Z</time>
      </trkpt>
      <trkpt lat="48.82239" lon="1.5597">
        <ele>84.73</ele>
        <time>2015-04-27T09:03:31Z</time>
      </trkpt>
      <trkpt lat="48.82239" lon="1.55985">
        <ele>84.73</ele>
        <time>2015-04-27T09:03:39Z</time>
      </trkpt>
      <trkpt lat="48.82238" lon="1.56013">
        <ele>85.21</ele>
        <time>2015-04-27T09:03:53Z</time>
      </trkpt>
      <trkpt lat="48.82238" lon="1.56035">
        <ele>85.21</ele>
        <time>2015-04-27T09:04:04Z</time>
      </trkpt>
      <trkpt lat="48.82238" lon="1.56053">
        <ele>85.21</ele>
        <time>2015-04-27T09:04:13Z</time>
      </trkpt>
      <trkpt lat="48.82239" lon="1.56077">
        <ele>84.73</ele>
        <time>2015-04-27T09:04:26Z</time>
      </trkpt>
      <trkpt lat="48.82239" lon="1.56101">
        <ele>84.73</ele>
        <time>2015-04-27T09:04:38Z</time>
      </trkpt>
      <trkpt lat="48.82239" lon="1.56123">
        <ele>85.21</ele>
        <time>2015-04-27T09:04:49Z</time>
      </trkpt>
      <trkpt lat="48.82236" lon="1.56144">
        <ele>84.25</ele>
        <time>2015-04-27T09:05:00Z</time>
      </trkpt>
      <trkpt lat="48.82234" lon="1.56165">
        <ele>84.25</ele>
        <time>2015-04-27T09:05:11Z</time>
      </trkpt>
      <trkpt lat="48.82233" lon="1.56186">
        <ele>84.25</ele>
        <time>2015-04-27T09:05:22Z</time>
      </trkpt>
      <trkpt lat="48.8223" lon="1.56207">
        <ele>84.25</ele>
        <time>2015-04-27T09:05:33Z</time>
      </trkpt>
      <trkpt lat="48.82227" lon="1.56232">
        <ele>83.29</ele>
        <time>2015-04-27T09:05:45Z</time>
      </trkpt>
      <trkpt lat="48.82226" lon="1.56238">
        <ele>84.73</ele>
        <time>2015-04-27T09:05:48Z</time>
      </trkpt>
      <trkpt lat="48.82222" lon="1.56259">
        <ele>84.73</ele>
        <time>2015-04-27T09:05:59Z</time>
      </trkpt>
      <trkpt lat="48.82217" lon="1.56282">
        <ele>84.73</ele>
        <time>2015-04-27T09:06:11Z</time>
      </trkpt>
      <trkpt lat="48.82212" lon="1.56308">
        <ele>84.73</ele>
        <time>2015-04-27T09:06:24Z</time>
      </trkpt>
      <trkpt lat="48.82206" lon="1.56333">
        <ele>84.73</ele>
        <time>2015-04-27T09:06:37Z</time>
      </trkpt>
      <trkpt lat="48.82201" lon="1.56354">
        <ele>84.73</ele>
        <time>2015-04-27T09:06:48Z</time>
      </trkpt>
      <trkpt lat="48.82195" lon="1.56376">
        <ele>84.73</ele>
        <time>2015-04-27T09:07:00Z</time>
      </trkpt>
      <trkpt lat="48.82188" lon="1.56397">
        <ele>85.69</ele>
        <time>2015-04-27T09:07:12Z</time>
      </trkpt>
      <trkpt lat="48.8218" lon="1.56416">
        <ele>85.69</ele>
        <time>2015-04-27T09:07:23Z</time>
      </trkpt>
      <trkpt lat="48.82174" lon="1.56429">
        <ele>85.69</ele>
        <time>2015-04-27T09:07:32Z</time>
      </trkpt>
      <trkpt lat="48.82164" lon="1.56444">
        <ele>85.69</ele>
        <time>2015-04-27T09:07:44Z</time>
      </trkpt>
      <trkpt lat="48.82154" lon="1.56457">
        <ele>85.69</ele>
        <time>2015-04-27T09:07:55Z</time>
      </trkpt>
      <trkpt lat="48.82145" lon="1.56468">
        <ele>86.66</ele>
        <time>2015-04-27T09:08:05Z</time>
      </trkpt>
      <trkpt lat="48.82135" lon="1.5648">
        <ele>86.66</ele>
        <time>2015-04-27T09:08:15Z</time>
      </trkpt>
      <trkpt lat="48.82124" lon="1.56493">
        <ele>88.1</ele>
        <time>2015-04-27T09:08:26Z</time>
      </trkpt>
      <trkpt lat="48.82112" lon="1.56508">
        <ele>87.14</ele>
        <time>2015-04-27T09:08:38Z</time>
      </trkpt>
      <trkpt lat="48.82102" lon="1.56521">
        <ele>88.1</ele>
        <time>2015-04-27T09:08:48Z</time>
      </trkpt>
      <trkpt lat="48.82101" lon="1.56522">
        <ele>88.1</ele>
        <time>2015-04-27T09:08:49Z</time>
      </trkpt>
      <trkpt lat="48.82091" lon="1.56537">
        <ele>89.06</ele>
        <time>2015-04-27T09:08:59Z</time>
      </trkpt>
      <trkpt lat="48.8208" lon="1.56553">
        <ele>89.54</ele>
        <time>2015-04-27T09:09:11Z</time>
      </trkpt>
      <trkpt lat="48.82071" lon="1.56569">
        <ele>89.54</ele>
        <time>2015-04-27T09:09:22Z</time>
      </trkpt>
      <trkpt lat="48.82062" lon="1.56583">
        <ele>90.02</ele>
        <time>2015-04-27T09:09:33Z</time>
      </trkpt>
      <trkpt lat="48.82054" lon="1.56599">
        <ele>90.98</ele>
        <time>2015-04-27T09:09:44Z</time>
      </trkpt>
      <trkpt lat="48.82049" lon="1.5661">
        <ele>91.94</ele>
        <time>2015-04-27T09:09:53Z</time>
      </trkpt>
      <trkpt lat="48.82048" lon="1.5661">
        <ele>91.94</ele>
        <time>2015-04-27T09:10:02Z</time>
      </trkpt>
      <trkpt lat="48.82048" lon="1.56615">
        <ele>92.42</ele>
        <time>2015-04-27T09:10:12Z</time>
      </trkpt>
      <trkpt lat="48.82043" lon="1.56629">
        <ele>93.87</ele>
        <time>2015-04-27T09:10:22Z</time>
      </trkpt>
      <trkpt lat="48.82043" lon="1.5663">
        <ele>93.87</ele>
        <time>2015-04-27T09:10:24Z</time>
      </trkpt>
      <trkpt lat="48.8204" lon="1.56647">
        <ele>94.35</ele>
        <time>2015-04-27T09:10:34Z</time>
      </trkpt>
      <trkpt lat="48.82039" lon="1.56662">
        <ele>94.35</ele>
        <time>2015-04-27T09:10:44Z</time>
      </trkpt>
      <trkpt lat="48.82039" lon="1.56673">
        <ele>93.39</ele>
        <time>2015-04-27T09:10:52Z</time>
      </trkpt>
      <trkpt lat="48.82039" lon="1.56669">
        <ele>94.83</ele>
        <time>2015-04-27T09:10:58Z</time>
      </trkpt>
      <trkpt lat="48.82039" lon="1.56669">
        <ele>94.83</ele>
        <time>2015-04-27T09:11:10Z</time>
      </trkpt>
      <trkpt lat="48.82038" lon="1.56671">
        <ele>93.87</ele>
        <time>2015-04-27T09:11:16Z</time>
      </trkpt>
      <trkpt lat="48.82038" lon="1.56671">
        <ele>94.83</ele>
        <time>2015-04-27T09:11:20Z</time>
      </trkpt>
      <trkpt lat="48.82037" lon="1.56671">
        <ele>95.31</ele>
        <time>2015-04-27T09:11:34Z</time>
      </trkpt>
      <trkpt lat="48.82038" lon="1.56672">
        <ele>94.83</ele>
        <time>2015-04-27T09:11:52Z</time>
      </trkpt>
      <trkpt lat="48.82037" lon="1.56685">
        <ele>95.79</ele>
        <time>2015-04-27T09:12:02Z</time>
      </trkpt>
      <trkpt lat="48.82037" lon="1.56696">
        <ele>95.79</ele>
        <time>2015-04-27T09:12:10Z</time>
      </trkpt>
      <trkpt lat="48.82037" lon="1.56708">
        <ele>96.27</ele>
        <time>2015-04-27T09:12:19Z</time>
      </trkpt>
      <trkpt lat="48.82037" lon="1.56711">
        <ele>96.75</ele>
        <time>2015-04-27T09:12:27Z</time>
      </trkpt>
      <trkpt lat="48.82037" lon="1.56718">
        <ele>97.23</ele>
        <time>2015-04-27T09:12:36Z</time>
      </trkpt>
      <trkpt lat="48.82039" lon="1.5673">
        <ele>97.71</ele>
        <time>2015-04-27T09:12:44Z</time>
      </trkpt>
      <trkpt lat="48.82041" lon="1.56745">
        <ele>98.19</ele>
        <time>2015-04-27T09:12:54Z</time>
      </trkpt>
      <trkpt lat="48.82042" lon="1.56756">
        <ele>99.15</ele>
        <time>2015-04-27T09:13:02Z</time>
      </trkpt>
      <trkpt lat="48.82043" lon="1.56757">
        <ele>100.11</ele>
        <time>2015-04-27T09:13:11Z</time>
      </trkpt>
      <trkpt lat="48.82043" lon="1.56758">
        <ele>98.67</ele>
        <time>2015-04-27T09:13:14Z</time>
      </trkpt>
      <trkpt lat="48.82044" lon="1.56762">
        <ele>98.67</ele>
        <time>2015-04-27T09:13:17Z</time>
      </trkpt>
      <trkpt lat="48.82045" lon="1.56782">
        <ele>101.08</ele>
        <time>2015-04-27T09:13:29Z</time>
      </trkpt>
      <trkpt lat="48.82046" lon="1.56796">
        <ele>101.08</ele>
        <time>2015-04-27T09:13:37Z</time>
      </trkpt>
      <trkpt lat="48.82047" lon="1.56809">
        <ele>102.04</ele>
        <time>2015-04-27T09:13:45Z</time>
      </trkpt>
      <trkpt lat="48.82049" lon="1.56818">
        <ele>102.04</ele>
        <time>2015-04-27T09:13:53Z</time>
      </trkpt>
      <trkpt lat="48.82051" lon="1.56825">
        <ele>103</ele>
        <time>2015-04-27T09:14:00Z</time>
      </trkpt>
      <trkpt lat="48.82052" lon="1.56839">
        <ele>104.44</ele>
        <time>2015-04-27T09:14:09Z</time>
      </trkpt>
      <trkpt lat="48.82053" lon="1.56851">
        <ele>104.44</ele>
        <time>2015-04-27T09:14:17Z</time>
      </trkpt>
      <trkpt lat="48.82056" lon="1.56866">
        <ele>105.4</ele>
        <time>2015-04-27T09:14:26Z</time>
      </trkpt>
      <trkpt lat="48.82057" lon="1.56881">
        <ele>106.36</ele>
        <time>2015-04-27T09:14:34Z</time>
      </trkpt>
      <trkpt lat="48.82058" lon="1.56893">
        <ele>107.32</ele>
        <time>2015-04-27T09:14:41Z</time>
      </trkpt>
      <trkpt lat="48.8206" lon="1.56906">
        <ele>108.29</ele>
        <time>2015-04-27T09:14:49Z</time>
      </trkpt>
      <trkpt lat="48.82064" lon="1.56923">
        <ele>108.77</ele>
        <time>2015-04-27T09:15:00Z</time>
      </trkpt>
      <trkpt lat="48.82067" lon="1.56936">
        <ele>109.25</ele>
        <time>2015-04-27T09:15:09Z</time>
      </trkpt>
      <trkpt lat="48.82067" lon="1.56938">
        <ele>109.73</ele>
        <time>2015-04-27T09:15:10Z</time>
      </trkpt>
      <trkpt lat="48.82067" lon="1.56947">
        <ele>110.21</ele>
        <time>2015-04-27T09:15:17Z</time>
      </trkpt>
      <trkpt lat="48.82067" lon="1.5695">
        <ele>110.21</ele>
        <time>2015-04-27T09:15:19Z</time>
      </trkpt>
      <trkpt lat="48.82063" lon="1.56965">
        <ele>110.21</ele>
        <time>2015-04-27T09:15:28Z</time>
      </trkpt>
      <trkpt lat="48.8206" lon="1.5698">
        <ele>110.69</ele>
        <time>2015-04-27T09:15:37Z</time>
      </trkpt>
      <trkpt lat="48.82052" lon="1.56993">
        <ele>111.17</ele>
        <time>2015-04-27T09:15:48Z</time>
      </trkpt>
      <trkpt lat="48.82045" lon="1.57007">
        <ele>111.17</ele>
        <time>2015-04-27T09:15:58Z</time>
      </trkpt>
      <trkpt lat="48.82039" lon="1.57025">
        <ele>112.61</ele>
        <time>2015-04-27T09:16:09Z</time>
      </trkpt>
      <trkpt lat="48.82032" lon="1.57038">
        <ele>113.09</ele>
        <time>2015-04-27T09:16:19Z</time>
      </trkpt>
      <trkpt lat="48.82024" lon="1.57049">
        <ele>113.09</ele>
        <time>2015-04-27T09:16:29Z</time>
      </trkpt>
      <trkpt lat="48.82016" lon="1.57058">
        <ele>113.09</ele>
        <time>2015-04-27T09:16:38Z</time>
      </trkpt>
      <trkpt lat="48.82008" lon="1.57072">
        <ele>112.13</ele>
        <time>2015-04-27T09:16:48Z</time>
      </trkpt>
      <trkpt lat="48.81999" lon="1.57084">
        <ele>111.65</ele>
        <time>2015-04-27T09:16:58Z</time>
      </trkpt>
      <trkpt lat="48.81989" lon="1.57099">
        <ele>111.17</ele>
        <time>2015-04-27T09:17:10Z</time>
      </trkpt>
      <trkpt lat="48.81985" lon="1.57108">
        <ele>111.17</ele>
        <time>2015-04-27T09:17:19Z</time>
      </trkpt>
      <trkpt lat="48.81985" lon="1.57107">
        <ele>111.17</ele>
        <time>2015-04-27T09:17:28Z</time>
      </trkpt>
      <trkpt lat="48.81986" lon="1.57108">
        <ele>111.17</ele>
        <time>2015-04-27T09:17:38Z</time>
      </trkpt>
      <trkpt lat="48.81984" lon="1.57111">
        <ele>111.17</ele>
        <time>2015-04-27T09:17:50Z</time>
      </trkpt>
      <trkpt lat="48.81977" lon="1.57122">
        <ele>110.69</ele>
        <time>2015-04-27T09:18:00Z</time>
      </trkpt>
      <trkpt lat="48.81972" lon="1.57126">
        <ele>110.69</ele>
        <time>2015-04-27T09:18:06Z</time>
      </trkpt>
      <trkpt lat="48.8197" lon="1.57128">
        <ele>110.69</ele>
        <time>2015-04-27T09:18:12Z</time>
      </trkpt>
      <trkpt lat="48.81965" lon="1.57141">
        <ele>110.21</ele>
        <time>2015-04-27T09:18:21Z</time>
      </trkpt>
      <trkpt lat="48.81966" lon="1.57147">
        <ele>110.21</ele>
        <time>2015-04-27T09:18:26Z</time>
      </trkpt>
      <trkpt lat="48.81967" lon="1.57157">
        <ele>110.21</ele>
        <time>2015-04-27T09:18:33Z</time>
      </trkpt>
      <trkpt lat="48.81965" lon="1.57171">
        <ele>109.73</ele>
        <time>2015-04-27T09:18:42Z</time>
      </trkpt>
      <trkpt lat="48.81967" lon="1.57185">
        <ele>109.73</ele>
        <time>2015-04-27T09:18:50Z</time>
      </trkpt>
      <trkpt lat="48.8197" lon="1.57204">
        <ele>111.17</ele>
        <time>2015-04-27T09:18:59Z</time>
      </trkpt>
      <trkpt lat="48.81974" lon="1.57221">
        <ele>111.17</ele>
        <time>2015-04-27T09:19:09Z</time>
      </trkpt>
      <trkpt lat="48.81978" lon="1.57239">
        <ele>111.17</ele>
        <time>2015-04-27T09:19:19Z</time>
      </trkpt>
      <trkpt lat="48.81983" lon="1.57258">
        <ele>111.17</ele>
        <time>2015-04-27T09:19:30Z</time>
      </trkpt>
      <trkpt lat="48.81987" lon="1.57278">
        <ele>109.73</ele>
        <time>2015-04-27T09:19:39Z</time>
      </trkpt>
      <trkpt lat="48.81988" lon="1.57283">
        <ele>111.17</ele>
        <time>2015-04-27T09:19:42Z</time>
      </trkpt>
      <trkpt lat="48.81991" lon="1.57296">
        <ele>110.21</ele>
        <time>2015-04-27T09:19:51Z</time>
      </trkpt>
      <trkpt lat="48.81993" lon="1.57312">
        <ele>110.21</ele>
        <time>2015-04-27T09:20:00Z</time>
      </trkpt>
      <trkpt lat="48.81997" lon="1.57332">
        <ele>110.21</ele>
        <time>2015-04-27T09:20:10Z</time>
      </trkpt>
      <trkpt lat="48.81998" lon="1.57339">
        <ele>110.21</ele>
        <time>2015-04-27T09:20:14Z</time>
      </trkpt>
      <trkpt lat="48.82002" lon="1.57361">
        <ele>111.65</ele>
        <time>2015-04-27T09:20:25Z</time>
      </trkpt>
      <trkpt lat="48.82003" lon="1.5738">
        <ele>111.65</ele>
        <time>2015-04-27T09:20:35Z</time>
      </trkpt>
      <trkpt lat="48.82006" lon="1.57399">
        <ele>112.13</ele>
        <time>2015-04-27T09:20:45Z</time>
      </trkpt>
      <trkpt lat="48.82007" lon="1.57413">
        <ele>112.13</ele>
        <time>2015-04-27T09:20:52Z</time>
      </trkpt>
      <trkpt lat="48.82008" lon="1.57429">
        <ele>112.13</ele>
        <time>2015-04-27T09:21:01Z</time>
      </trkpt>
      <trkpt lat="48.82009" lon="1.57442">
        <ele>112.61</ele>
        <time>2015-04-27T09:21:08Z</time>
      </trkpt>
      <trkpt lat="48.8201" lon="1.5746">
        <ele>112.61</ele>
        <time>2015-04-27T09:21:17Z</time>
      </trkpt>
      <trkpt lat="48.82013" lon="1.57479">
        <ele>112.61</ele>
        <time>2015-04-27T09:21:27Z</time>
      </trkpt>
      <trkpt lat="48.82013" lon="1.57485">
        <ele>112.13</ele>
        <time>2015-04-27T09:21:35Z</time>
      </trkpt>
      <trkpt lat="48.82015" lon="1.57486">
        <ele>112.13</ele>
        <time>2015-04-27T09:21:46Z</time>
      </trkpt>
      <trkpt lat="48.82015" lon="1.57485">
        <ele>111.65</ele>
        <time>2015-04-27T09:21:58Z</time>
      </trkpt>
      <trkpt lat="48.82016" lon="1.57486">
        <ele>111.65</ele>
        <time>2015-04-27T09:22:14Z</time>
      </trkpt>
      <trkpt lat="48.82015" lon="1.5749">
        <ele>111.65</ele>
        <time>2015-04-27T09:22:33Z</time>
      </trkpt>
      <trkpt lat="48.82016" lon="1.57488">
        <ele>111.65</ele>
        <time>2015-04-27T09:22:48Z</time>
      </trkpt>
      <trkpt lat="48.82019" lon="1.57496">
        <ele>112.13</ele>
        <time>2015-04-27T09:22:54Z</time>
      </trkpt>
      <trkpt lat="48.82021" lon="1.57506">
        <ele>111.65</ele>
        <time>2015-04-27T09:23:00Z</time>
      </trkpt>
      <trkpt lat="48.82033" lon="1.57502">
        <ele>110.69</ele>
        <time>2015-04-27T09:23:10Z</time>
      </trkpt>
      <trkpt lat="48.82045" lon="1.57495">
        <ele>111.65</ele>
        <time>2015-04-27T09:23:20Z</time>
      </trkpt>
      <trkpt lat="48.82055" lon="1.57487">
        <ele>110.69</ele>
        <time>2015-04-27T09:23:29Z</time>
      </trkpt>
      <trkpt lat="48.82064" lon="1.57482">
        <ele>110.69</ele>
        <time>2015-04-27T09:23:37Z</time>
      </trkpt>
      <trkpt lat="48.82073" lon="1.57478">
        <ele>112.13</ele>
        <time>2015-04-27T09:23:45Z</time>
      </trkpt>
      <trkpt lat="48.82085" lon="1.57473">
        <ele>111.17</ele>
        <time>2015-04-27T09:23:55Z</time>
      </trkpt>
      <trkpt lat="48.82095" lon="1.57467">
        <ele>111.17</ele>
        <time>2015-04-27T09:24:04Z</time>
      </trkpt>
      <trkpt lat="48.82107" lon="1.5746">
        <ele>110.21</ele>
        <time>2015-04-27T09:24:15Z</time>
      </trkpt>
      <trkpt lat="48.82119" lon="1.57453">
        <ele>111.65</ele>
        <time>2015-04-27T09:24:25Z</time>
      </trkpt>
      <trkpt lat="48.82131" lon="1.57446">
        <ele>112.13</ele>
        <time>2015-04-27T09:24:36Z</time>
      </trkpt>
      <trkpt lat="48.82142" lon="1.5744">
        <ele>112.13</ele>
        <time>2015-04-27T09:24:45Z</time>
      </trkpt>
      <trkpt lat="48.82152" lon="1.57435">
        <ele>111.65</ele>
        <time>2015-04-27T09:24:54Z</time>
      </trkpt>
      <trkpt lat="48.82162" lon="1.57429">
        <ele>112.61</ele>
        <time>2015-04-27T09:25:03Z</time>
      </trkpt>
      <trkpt lat="48.82171" lon="1.57423">
        <ele>113.09</ele>
        <time>2015-04-27T09:25:12Z</time>
      </trkpt>
      <trkpt lat="48.82181" lon="1.57416">
        <ele>113.57</ele>
        <time>2015-04-27T09:25:21Z</time>
      </trkpt>
      <trkpt lat="48.82191" lon="1.57405">
        <ele>113.57</ele>
        <time>2015-04-27T09:25:31Z</time>
      </trkpt>
      <trkpt lat="48.82198" lon="1.57398">
        <ele>112.61</ele>
        <time>2015-04-27T09:25:38Z</time>
      </trkpt>
      <trkpt lat="48.82204" lon="1.57392">
        <ele>114.05</ele>
        <time>2015-04-27T09:25:44Z</time>
      </trkpt>
      <trkpt lat="48.82208" lon="1.57388">
        <ele>114.53</ele>
        <time>2015-04-27T09:25:49Z</time>
      </trkpt>
      <trkpt lat="48.8221" lon="1.57391">
        <ele>115.01</ele>
        <time>2015-04-27T09:25:57Z</time>
      </trkpt>
      <trkpt lat="48.8221" lon="1.57392">
        <ele>114.05</ele>
        <time>2015-04-27T09:26:07Z</time>
      </trkpt>
      <trkpt lat="48.82215" lon="1.57398">
        <ele>114.05</ele>
        <time>2015-04-27T09:26:16Z</time>
      </trkpt>
      <trkpt lat="48.82223" lon="1.57405">
        <ele>114.05</ele>
        <time>2015-04-27T09:26:24Z</time>
      </trkpt>
      <trkpt lat="48.82232" lon="1.57414">
        <ele>114.05</ele>
        <time>2015-04-27T09:26:33Z</time>
      </trkpt>
      <trkpt lat="48.82237" lon="1.57418">
        <ele>115.5</ele>
        <time>2015-04-27T09:26:38Z</time>
      </trkpt>
      <trkpt lat="48.82242" lon="1.57422">
        <ele>114.53</ele>
        <time>2015-04-27T09:26:46Z</time>
      </trkpt>
      <trkpt lat="48.82241" lon="1.57423">
        <ele>114.53</ele>
        <time>2015-04-27T09:26:57Z</time>
      </trkpt>
      <trkpt lat="48.82242" lon="1.57422">
        <ele>114.53</ele>
        <time>2015-04-27T09:27:18Z</time>
      </trkpt>
      <trkpt lat="48.82242" lon="1.5742">
        <ele>114.53</ele>
        <time>2015-04-27T09:27:26Z</time>
      </trkpt>
      <trkpt lat="48.82242" lon="1.5742">
        <ele>114.53</ele>
        <time>2015-04-27T09:27:41Z</time>
      </trkpt>
      <trkpt lat="48.82242" lon="1.57419">
        <ele>114.53</ele>
        <time>2015-04-27T09:27:54Z</time>
      </trkpt>
      <trkpt lat="48.82243" lon="1.57417">
        <ele>114.53</ele>
        <time>2015-04-27T09:28:04Z</time>
      </trkpt>
      <trkpt lat="48.82243" lon="1.57417">
        <ele>114.53</ele>
        <time>2015-04-27T09:28:17Z</time>
      </trkpt>
      <trkpt lat="48.82243" lon="1.57416">
        <ele>114.53</ele>
        <time>2015-04-27T09:28:29Z</time>
      </trkpt>
      <trkpt lat="48.82243" lon="1.57416">
        <ele>114.53</ele>
        <time>2015-04-27T09:28:43Z</time>
      </trkpt>
      <trkpt lat="48.82243" lon="1.57417">
        <ele>114.53</ele>
        <time>2015-04-27T09:29:00Z</time>
      </trkpt>
      <trkpt lat="48.82243" lon="1.57416">
        <ele>114.05</ele>
        <time>2015-04-27T09:29:13Z</time>
      </trkpt>
      <trkpt lat="48.82243" lon="1.57416">
        <ele>114.05</ele>
        <time>2015-04-27T09:29:26Z</time>
      </trkpt>
      <trkpt lat="48.82243" lon="1.57416">
        <ele>114.05</ele>
        <time>2015-04-27T09:29:40Z</time>
      </trkpt>
      <trkpt lat="48.82243" lon="1.57416">
        <ele>114.05</ele>
        <time>2015-04-27T09:29:50Z</time>
      </trkpt>
      <trkpt lat="48.82243" lon="1.57416">
        <ele>114.05</ele>
        <time>2015-04-27T09:30:02Z</time>
      </trkpt>
      <trkpt lat="48.82243" lon="1.57416">
        <ele>114.05</ele>
        <time>2015-04-27T09:30:17Z</time>
      </trkpt>
      <trkpt lat="48.82243" lon="1.57417">
        <ele>114.05</ele>
        <time>2015-04-27T09:30:34Z</time>
      </trkpt>
      <trkpt lat="48.82243" lon="1.57416">
        <ele>114.05</ele>
        <time>2015-04-27T09:30:46Z</time>
      </trkpt>
      <trkpt lat="48.82243" lon="1.57417">
        <ele>114.05</ele>
        <time>2015-04-27T09:31:05Z</time>
      </trkpt>
      <trkpt lat="48.82243" lon="1.57417">
        <ele>113.57</ele>
        <time>2015-04-27T09:31:24Z</time>
      </trkpt>
      <trkpt lat="48.82243" lon="1.57417">
        <ele>113.57</ele>
        <time>2015-04-27T09:31:42Z</time>
      </trkpt>
      <trkpt lat="48.82242" lon="1.57418">
        <ele>113.57</ele>
        <time>2015-04-27T09:31:56Z</time>
      </trkpt>
      <trkpt lat="48.82242" lon="1.57418">
        <ele>113.57</ele>
        <time>2015-04-27T09:32:08Z</time>
      </trkpt>
      <trkpt lat="48.82242" lon="1.5742">
        <ele>115.01</ele>
        <time>2015-04-27T09:32:22Z</time>
      </trkpt>
      <trkpt lat="48.82242" lon="1.57422">
        <ele>114.53</ele>
        <time>2015-04-27T09:32:35Z</time>
      </trkpt>
      <trkpt lat="48.82242" lon="1.57422">
        <ele>115.98</ele>
        <time>2015-04-27T09:32:40Z</time>
      </trkpt>
      <trkpt lat="48.82241" lon="1.57422">
        <ele>115.98</ele>
        <time>2015-04-27T09:32:56Z</time>
      </trkpt>
      <trkpt lat="48.82241" lon="1.57422">
        <ele>114.53</ele>
        <time>2015-04-27T09:32:59Z</time>
      </trkpt>
      <trkpt lat="48.82242" lon="1.57422">
        <ele>114.53</ele>
        <time>2015-04-27T09:33:12Z</time>
      </trkpt>
      <trkpt lat="48.82242" lon="1.57422">
        <ele>115.5</ele>
        <time>2015-04-27T09:33:18Z</time>
      </trkpt>
      <trkpt lat="48.82244" lon="1.5742">
        <ele>115.98</ele>
        <time>2015-04-27T09:33:37Z</time>
      </trkpt>
      <trkpt lat="48.82244" lon="1.57419">
        <ele>115.98</ele>
        <time>2015-04-27T09:33:57Z</time>
      </trkpt>
      <trkpt lat="48.82245" lon="1.57419">
        <ele>115.98</ele>
        <time>2015-04-27T09:34:16Z</time>
      </trkpt>
      <trkpt lat="48.82244" lon="1.57421">
        <ele>115.98</ele>
        <time>2015-04-27T09:34:38Z</time>
      </trkpt>
      <trkpt lat="48.82243" lon="1.57421">
        <ele>116.46</ele>
        <time>2015-04-27T09:35:04Z</time>
      </trkpt>
      <trkpt lat="48.82244" lon="1.57424">
        <ele>116.46</ele>
        <time>2015-04-27T09:35:15Z</time>
      </trkpt>
      <trkpt lat="48.82246" lon="1.57426">
        <ele>116.46</ele>
        <time>2015-04-27T09:35:19Z</time>
      </trkpt>
      <trkpt lat="48.82255" lon="1.57434">
        <ele>116.46</ele>
        <time>2015-04-27T09:35:29Z</time>
      </trkpt>
      <trkpt lat="48.82265" lon="1.57445">
        <ele>116.94</ele>
        <time>2015-04-27T09:35:40Z</time>
      </trkpt>
      <trkpt lat="48.82277" lon="1.57458">
        <ele>117.42</ele>
        <time>2015-04-27T09:35:52Z</time>
      </trkpt>
      <trkpt lat="48.82287" lon="1.5747">
        <ele>117.42</ele>
        <time>2015-04-27T09:36:02Z</time>
      </trkpt>
      <trkpt lat="48.82296" lon="1.57482">
        <ele>117.42</ele>
        <time>2015-04-27T09:36:12Z</time>
      </trkpt>
      <trkpt lat="48.82302" lon="1.57493">
        <ele>117.42</ele>
        <time>2015-04-27T09:36:20Z</time>
      </trkpt>
      <trkpt lat="48.8231" lon="1.57507">
        <ele>117.9</ele>
        <time>2015-04-27T09:36:30Z</time>
      </trkpt>
      <trkpt lat="48.82318" lon="1.5752">
        <ele>117.9</ele>
        <time>2015-04-27T09:36:39Z</time>
      </trkpt>
      <trkpt lat="48.82323" lon="1.57532">
        <ele>119.34</ele>
        <time>2015-04-27T09:36:47Z</time>
      </trkpt>
      <trkpt lat="48.82324" lon="1.57534">
        <ele>119.34</ele>
        <time>2015-04-27T09:36:48Z</time>
      </trkpt>
      <trkpt lat="48.82331" lon="1.57549">
        <ele>119.34</ele>
        <time>2015-04-27T09:36:58Z</time>
      </trkpt>
      <trkpt lat="48.82338" lon="1.57564">
        <ele>117.42</ele>
        <time>2015-04-27T09:37:07Z</time>
      </trkpt>
      <trkpt lat="48.82341" lon="1.57571">
        <ele>118.86</ele>
        <time>2015-04-27T09:37:11Z</time>
      </trkpt>
      <trkpt lat="48.82347" lon="1.57587">
        <ele>119.82</ele>
        <time>2015-04-27T09:37:20Z</time>
      </trkpt>
      <trkpt lat="48.82355" lon="1.57604">
        <ele>119.82</ele>
        <time>2015-04-27T09:37:30Z</time>
      </trkpt>
      <trkpt lat="48.82362" lon="1.57618">
        <ele>119.82</ele>
        <time>2015-04-27T09:37:39Z</time>
      </trkpt>
      <trkpt lat="48.82368" lon="1.57633">
        <ele>119.82</ele>
        <time>2015-04-27T09:37:48Z</time>
      </trkpt>
      <trkpt lat="48.82376" lon="1.57647">
        <ele>119.82</ele>
        <time>2015-04-27T09:37:57Z</time>
      </trkpt>
      <trkpt lat="48.82379" lon="1.57653">
        <ele>118.38</ele>
        <time>2015-04-27T09:38:01Z</time>
      </trkpt>
      <trkpt lat="48.82389" lon="1.57674">
        <ele>118.38</ele>
        <time>2015-04-27T09:38:14Z</time>
      </trkpt>
      <trkpt lat="48.82398" lon="1.5769">
        <ele>118.38</ele>
        <time>2015-04-27T09:38:24Z</time>
      </trkpt>
      <trkpt lat="48.82405" lon="1.57703">
        <ele>118.86</ele>
        <time>2015-04-27T09:38:33Z</time>
      </trkpt>
      <trkpt lat="48.82415" lon="1.5772">
        <ele>118.86</ele>
        <time>2015-04-27T09:38:44Z</time>
      </trkpt>
      <trkpt lat="48.8242" lon="1.57728">
        <ele>117.42</ele>
        <time>2015-04-27T09:38:50Z</time>
      </trkpt>
      <trkpt lat="48.8243" lon="1.57742">
        <ele>117.42</ele>
        <time>2015-04-27T09:39:01Z</time>
      </trkpt>
      <trkpt lat="48.8244" lon="1.57759">
        <ele>117.42</ele>
        <time>2015-04-27T09:39:12Z</time>
      </trkpt>
      <trkpt lat="48.82448" lon="1.57773">
        <ele>116.94</ele>
        <time>2015-04-27T09:39:22Z</time>
      </trkpt>
      <trkpt lat="48.82456" lon="1.57788">
        <ele>116.94</ele>
        <time>2015-04-27T09:39:32Z</time>
      </trkpt>
      <trkpt lat="48.82463" lon="1.57803">
        <ele>116.46</ele>
        <time>2015-04-27T09:39:41Z</time>
      </trkpt>
      <trkpt lat="48.82472" lon="1.57824">
        <ele>115.98</ele>
        <time>2015-04-27T09:39:54Z</time>
      </trkpt>
      <trkpt lat="48.82479" lon="1.57843">
        <ele>115.98</ele>
        <time>2015-04-27T09:40:05Z</time>
      </trkpt>
      <trkpt lat="48.82485" lon="1.57859">
        <ele>115.5</ele>
        <time>2015-04-27T09:40:15Z</time>
      </trkpt>
      <trkpt lat="48.8249" lon="1.57877">
        <ele>115.5</ele>
        <time>2015-04-27T09:40:25Z</time>
      </trkpt>
      <trkpt lat="48.82495" lon="1.57895">
        <ele>114.53</ele>
        <time>2015-04-27T09:40:35Z</time>
      </trkpt>
      <trkpt lat="48.82499" lon="1.57912">
        <ele>114.53</ele>
        <time>2015-04-27T09:40:45Z</time>
      </trkpt>
      <trkpt lat="48.82502" lon="1.5793">
        <ele>114.05</ele>
        <time>2015-04-27T09:40:55Z</time>
      </trkpt>
      <trkpt lat="48.82505" lon="1.5795">
        <ele>113.09</ele>
        <time>2015-04-27T09:41:06Z</time>
      </trkpt>
      <trkpt lat="48.82509" lon="1.57968">
        <ele>112.13</ele>
        <time>2015-04-27T09:41:16Z</time>
      </trkpt>
      <trkpt lat="48.82512" lon="1.57984">
        <ele>111.65</ele>
        <time>2015-04-27T09:41:25Z</time>
      </trkpt>
      <trkpt lat="48.82516" lon="1.58001">
        <ele>111.17</ele>
        <time>2015-04-27T09:41:35Z</time>
      </trkpt>
      <trkpt lat="48.8252" lon="1.58016">
        <ele>110.21</ele>
        <time>2015-04-27T09:41:44Z</time>
      </trkpt>
      <trkpt lat="48.82527" lon="1.58032">
        <ele>109.25</ele>
        <time>2015-04-27T09:41:54Z</time>
      </trkpt>
      <trkpt lat="48.82534" lon="1.58044">
        <ele>107.81</ele>
        <time>2015-04-27T09:42:03Z</time>
      </trkpt>
      <trkpt lat="48.82541" lon="1.58055">
        <ele>107.32</ele>
        <time>2015-04-27T09:42:12Z</time>
      </trkpt>
      <trkpt lat="48.82548" lon="1.58066">
        <ele>106.84</ele>
        <time>2015-04-27T09:42:20Z</time>
      </trkpt>
      <trkpt lat="48.82556" lon="1.58078">
        <ele>106.84</ele>
        <time>2015-04-27T09:42:29Z</time>
      </trkpt>
      <trkpt lat="48.82563" lon="1.58089">
        <ele>105.88</ele>
        <time>2015-04-27T09:42:38Z</time>
      </trkpt>
      <trkpt lat="48.82565" lon="1.58093">
        <ele>105.88</ele>
        <time>2015-04-27T09:42:43Z</time>
      </trkpt>
      <trkpt lat="48.8257" lon="1.581">
        <ele>105.88</ele>
        <time>2015-04-27T09:42:54Z</time>
      </trkpt>
      <trkpt lat="48.82572" lon="1.58103">
        <ele>106.84</ele>
        <time>2015-04-27T09:43:04Z</time>
      </trkpt>
      <trkpt lat="48.82576" lon="1.58108">
        <ele>105.88</ele>
        <time>2015-04-27T09:43:12Z</time>
      </trkpt>
      <trkpt lat="48.82585" lon="1.58119">
        <ele>105.88</ele>
        <time>2015-04-27T09:43:21Z</time>
      </trkpt>
      <trkpt lat="48.82594" lon="1.5812">
        <ele>105.4</ele>
        <time>2015-04-27T09:43:28Z</time>
      </trkpt>
      <trkpt lat="48.82597" lon="1.58121">
        <ele>107.32</ele>
        <time>2015-04-27T09:43:31Z</time>
      </trkpt>
      <trkpt lat="48.82598" lon="1.58122">
        <ele>105.4</ele>
        <time>2015-04-27T09:43:34Z</time>
      </trkpt>
      <trkpt lat="48.82598" lon="1.58123">
        <ele>106.36</ele>
        <time>2015-04-27T09:43:36Z</time>
      </trkpt>
      <trkpt lat="48.82599" lon="1.58126">
        <ele>106.84</ele>
        <time>2015-04-27T09:43:59Z</time>
      </trkpt>
      <trkpt lat="48.82598" lon="1.58124">
        <ele>107.32</ele>
        <time>2015-04-27T09:44:06Z</time>
      </trkpt>
      <trkpt lat="48.82592" lon="1.5813">
        <ele>107.32</ele>
        <time>2015-04-27T09:44:13Z</time>
      </trkpt>
      <trkpt lat="48.82601" lon="1.58148">
        <ele>107.32</ele>
        <time>2015-04-27T09:44:25Z</time>
      </trkpt>
      <trkpt lat="48.82608" lon="1.58159">
        <ele>107.32</ele>
        <time>2015-04-27T09:44:33Z</time>
      </trkpt>
      <trkpt lat="48.8261" lon="1.58162">
        <ele>107.81</ele>
        <time>2015-04-27T09:44:36Z</time>
      </trkpt>
      <trkpt lat="48.82612" lon="1.58167">
        <ele>107.81</ele>
        <time>2015-04-27T09:44:44Z</time>
      </trkpt>
      <trkpt lat="48.82616" lon="1.58172">
        <ele>108.29</ele>
        <time>2015-04-27T09:44:55Z</time>
      </trkpt>
      <trkpt lat="48.82622" lon="1.58179">
        <ele>106.84</ele>
        <time>2015-04-27T09:45:03Z</time>
      </trkpt>
      <trkpt lat="48.82624" lon="1.58183">
        <ele>106.84</ele>
        <time>2015-04-27T09:45:10Z</time>
      </trkpt>
      <trkpt lat="48.82629" lon="1.5819">
        <ele>107.32</ele>
        <time>2015-04-27T09:45:17Z</time>
      </trkpt>
      <trkpt lat="48.82636" lon="1.582">
        <ele>107.32</ele>
        <time>2015-04-27T09:45:25Z</time>
      </trkpt>
      <trkpt lat="48.82644" lon="1.5821">
        <ele>108.29</ele>
        <time>2015-04-27T09:45:34Z</time>
      </trkpt>
      <trkpt lat="48.82651" lon="1.58221">
        <ele>108.77</ele>
        <time>2015-04-27T09:45:43Z</time>
      </trkpt>
      <trkpt lat="48.82659" lon="1.58233">
        <ele>108.77</ele>
        <time>2015-04-27T09:45:53Z</time>
      </trkpt>
      <trkpt lat="48.82669" lon="1.58247">
        <ele>108.77</ele>
        <time>2015-04-27T09:46:04Z</time>
      </trkpt>
      <trkpt lat="48.82676" lon="1.58259">
        <ele>109.25</ele>
        <time>2015-04-27T09:46:13Z</time>
      </trkpt>
      <trkpt lat="48.82682" lon="1.58275">
        <ele>109.73</ele>
        <time>2015-04-27T09:46:24Z</time>
      </trkpt>
      <trkpt lat="48.8269" lon="1.5829">
        <ele>109.73</ele>
        <time>2015-04-27T09:46:35Z</time>
      </trkpt>
      <trkpt lat="48.82697" lon="1.58302">
        <ele>110.69</ele>
        <time>2015-04-27T09:46:44Z</time>
      </trkpt>
      <trkpt lat="48.82703" lon="1.58317">
        <ele>110.69</ele>
        <time>2015-04-27T09:46:54Z</time>
      </trkpt>
      <trkpt lat="48.82708" lon="1.58321">
        <ele>111.17</ele>
        <time>2015-04-27T09:47:02Z</time>
      </trkpt>
      <trkpt lat="48.82708" lon="1.5832">
        <ele>111.17</ele>
        <time>2015-04-27T09:47:11Z</time>
      </trkpt>
      <trkpt lat="48.82709" lon="1.5832">
        <ele>111.17</ele>
        <time>2015-04-27T09:47:19Z</time>
      </trkpt>
      <trkpt lat="48.8271" lon="1.58322">
        <ele>111.17</ele>
        <time>2015-04-27T09:47:28Z</time>
      </trkpt>
      <trkpt lat="48.82712" lon="1.5833">
        <ele>111.65</ele>
        <time>2015-04-27T09:47:40Z</time>
      </trkpt>
      <trkpt lat="48.82719" lon="1.58343">
        <ele>111.65</ele>
        <time>2015-04-27T09:47:49Z</time>
      </trkpt>
      <trkpt lat="48.82725" lon="1.58358">
        <ele>111.65</ele>
        <time>2015-04-27T09:47:59Z</time>
      </trkpt>
      <trkpt lat="48.82729" lon="1.58372">
        <ele>111.65</ele>
        <time>2015-04-27T09:48:08Z</time>
      </trkpt>
      <trkpt lat="48.82734" lon="1.58385">
        <ele>111.65</ele>
        <time>2015-04-27T09:48:17Z</time>
      </trkpt>
      <trkpt lat="48.82741" lon="1.584">
        <ele>112.13</ele>
        <time>2015-04-27T09:48:27Z</time>
      </trkpt>
      <trkpt lat="48.82745" lon="1.58407">
        <ele>112.13</ele>
        <time>2015-04-27T09:48:33Z</time>
      </trkpt>
      <trkpt lat="48.82752" lon="1.58424">
        <ele>113.09</ele>
        <time>2015-04-27T09:48:44Z</time>
      </trkpt>
      <trkpt lat="48.82758" lon="1.58439">
        <ele>113.57</ele>
        <time>2015-04-27T09:48:53Z</time>
      </trkpt>
      <trkpt lat="48.82764" lon="1.58455">
        <ele>114.05</ele>
        <time>2015-04-27T09:49:03Z</time>
      </trkpt>
      <trkpt lat="48.8277" lon="1.58468">
        <ele>114.05</ele>
        <time>2015-04-27T09:49:12Z</time>
      </trkpt>
      <trkpt lat="48.82778" lon="1.58483">
        <ele>114.05</ele>
        <time>2015-04-27T09:49:22Z</time>
      </trkpt>
      <trkpt lat="48.82786" lon="1.58499">
        <ele>114.05</ele>
        <time>2015-04-27T09:49:32Z</time>
      </trkpt>
      <trkpt lat="48.82793" lon="1.58515">
        <ele>114.05</ele>
        <time>2015-04-27T09:49:42Z</time>
      </trkpt>
      <trkpt lat="48.82799" lon="1.58531">
        <ele>114.05</ele>
        <time>2015-04-27T09:49:52Z</time>
      </trkpt>
      <trkpt lat="48.82805" lon="1.58545">
        <ele>114.05</ele>
        <time>2015-04-27T09:50:01Z</time>
      </trkpt>
      <trkpt lat="48.82812" lon="1.58559">
        <ele>114.05</ele>
        <time>2015-04-27T09:50:11Z</time>
      </trkpt>
      <trkpt lat="48.82819" lon="1.58573">
        <ele>114.05</ele>
        <time>2015-04-27T09:50:21Z</time>
      </trkpt>
      <trkpt lat="48.82826" lon="1.58589">
        <ele>113.57</ele>
        <time>2015-04-27T09:50:31Z</time>
      </trkpt>
      <trkpt lat="48.82833" lon="1.58603">
        <ele>113.57</ele>
        <time>2015-04-27T09:50:40Z</time>
      </trkpt>
      <trkpt lat="48.82839" lon="1.58617">
        <ele>113.57</ele>
        <time>2015-04-27T09:50:49Z</time>
      </trkpt>
      <trkpt lat="48.82846" lon="1.58633">
        <ele>113.57</ele>
        <time>2015-04-27T09:50:59Z</time>
      </trkpt>
      <trkpt lat="48.82851" lon="1.58647">
        <ele>113.09</ele>
        <time>2015-04-27T09:51:08Z</time>
      </trkpt>
      <trkpt lat="48.82858" lon="1.58662">
        <ele>112.61</ele>
        <time>2015-04-27T09:51:18Z</time>
      </trkpt>
      <trkpt lat="48.82863" lon="1.58676">
        <ele>114.05</ele>
        <time>2015-04-27T09:51:27Z</time>
      </trkpt>
      <trkpt lat="48.82868" lon="1.58689">
        <ele>114.05</ele>
        <time>2015-04-27T09:51:35Z</time>
      </trkpt>
      <trkpt lat="48.82873" lon="1.58701">
        <ele>115.01</ele>
        <time>2015-04-27T09:51:43Z</time>
      </trkpt>
      <trkpt lat="48.82879" lon="1.58714">
        <ele>115.5</ele>
        <time>2015-04-27T09:51:51Z</time>
      </trkpt>
      <trkpt lat="48.82881" lon="1.58721">
        <ele>114.05</ele>
        <time>2015-04-27T09:51:55Z</time>
      </trkpt>
      <trkpt lat="48.82887" lon="1.58735">
        <ele>115.01</ele>
        <time>2015-04-27T09:52:04Z</time>
      </trkpt>
      <trkpt lat="48.82887" lon="1.58737">
        <ele>115.01</ele>
        <time>2015-04-27T09:52:05Z</time>
      </trkpt>
      <trkpt lat="48.82894" lon="1.58753">
        <ele>115.98</ele>
        <time>2015-04-27T09:52:15Z</time>
      </trkpt>
      <trkpt lat="48.82898" lon="1.58764">
        <ele>116.46</ele>
        <time>2015-04-27T09:52:22Z</time>
      </trkpt>
      <trkpt lat="48.82905" lon="1.58781">
        <ele>116.46</ele>
        <time>2015-04-27T09:52:32Z</time>
      </trkpt>
      <trkpt lat="48.82911" lon="1.58796">
        <ele>116.94</ele>
        <time>2015-04-27T09:52:41Z</time>
      </trkpt>
      <trkpt lat="48.82919" lon="1.58813">
        <ele>117.42</ele>
        <time>2015-04-27T09:52:51Z</time>
      </trkpt>
      <trkpt lat="48.82924" lon="1.58827">
        <ele>117.42</ele>
        <time>2015-04-27T09:53:00Z</time>
      </trkpt>
      <trkpt lat="48.82931" lon="1.58841">
        <ele>117.9</ele>
        <time>2015-04-27T09:53:09Z</time>
      </trkpt>
      <trkpt lat="48.82936" lon="1.58856">
        <ele>118.38</ele>
        <time>2015-04-27T09:53:18Z</time>
      </trkpt>
      <trkpt lat="48.82942" lon="1.58873">
        <ele>118.38</ele>
        <time>2015-04-27T09:53:29Z</time>
      </trkpt>
      <trkpt lat="48.82948" lon="1.58888">
        <ele>118.86</ele>
        <time>2015-04-27T09:53:39Z</time>
      </trkpt>
      <trkpt lat="48.82954" lon="1.589">
        <ele>118.86</ele>
        <time>2015-04-27T09:53:47Z</time>
      </trkpt>
      <trkpt lat="48.82961" lon="1.58911">
        <ele>119.34</ele>
        <time>2015-04-27T09:53:56Z</time>
      </trkpt>
      <trkpt lat="48.82973" lon="1.58922">
        <ele>119.82</ele>
        <time>2015-04-27T09:54:07Z</time>
      </trkpt>
      <trkpt lat="48.82985" lon="1.58931">
        <ele>119.82</ele>
        <time>2015-04-27T09:54:18Z</time>
      </trkpt>
      <trkpt lat="48.82993" lon="1.58936">
        <ele>119.82</ele>
        <time>2015-04-27T09:54:26Z</time>
      </trkpt>
      <trkpt lat="48.83005" lon="1.58943">
        <ele>119.82</ele>
        <time>2015-04-27T09:54:36Z</time>
      </trkpt>
      <trkpt lat="48.83014" lon="1.5895">
        <ele>119.82</ele>
        <time>2015-04-27T09:54:45Z</time>
      </trkpt>
      <trkpt lat="48.83025" lon="1.58957">
        <ele>120.3</ele>
        <time>2015-04-27T09:54:55Z</time>
      </trkpt>
      <trkpt lat="48.83034" lon="1.58964">
        <ele>120.78</ele>
        <time>2015-04-27T09:55:04Z</time>
      </trkpt>
      <trkpt lat="48.83045" lon="1.5897">
        <ele>121.74</ele>
        <time>2015-04-27T09:55:14Z</time>
      </trkpt>
      <trkpt lat="48.83053" lon="1.58977">
        <ele>121.74</ele>
        <time>2015-04-27T09:55:23Z</time>
      </trkpt>
      <trkpt lat="48.83057" lon="1.58983">
        <ele>122.22</ele>
        <time>2015-04-27T09:55:28Z</time>
      </trkpt>
      <trkpt lat="48.83058" lon="1.58993">
        <ele>123.19</ele>
        <time>2015-04-27T09:55:37Z</time>
      </trkpt>
      <trkpt lat="48.83058" lon="1.58995">
        <ele>123.19</ele>
        <time>2015-04-27T09:55:48Z</time>
      </trkpt>
      <trkpt lat="48.83058" lon="1.58997">
        <ele>123.19</ele>
        <time>2015-04-27T09:55:59Z</time>
      </trkpt>
      <trkpt lat="48.83058" lon="1.58996">
        <ele>121.74</ele>
        <time>2015-04-27T09:56:12Z</time>
      </trkpt>
      <trkpt lat="48.83058" lon="1.58997">
        <ele>122.71</ele>
        <time>2015-04-27T09:56:29Z</time>
      </trkpt>
      <trkpt lat="48.83059" lon="1.58997">
        <ele>122.71</ele>
        <time>2015-04-27T09:56:39Z</time>
      </trkpt>
      <trkpt lat="48.83059" lon="1.58998">
        <ele>122.71</ele>
        <time>2015-04-27T09:56:50Z</time>
      </trkpt>
      <trkpt lat="48.8306" lon="1.58997">
        <ele>121.74</ele>
        <time>2015-04-27T09:57:09Z</time>
      </trkpt>
      <trkpt lat="48.8306" lon="1.58996">
        <ele>121.74</ele>
        <time>2015-04-27T09:57:23Z</time>
      </trkpt>
      <trkpt lat="48.83061" lon="1.58997">
        <ele>123.19</ele>
        <time>2015-04-27T09:57:30Z</time>
      </trkpt>
      <trkpt lat="48.83062" lon="1.58998">
        <ele>121.74</ele>
        <time>2015-04-27T09:57:32Z</time>
      </trkpt>
      <trkpt lat="48.83065" lon="1.58999">
        <ele>123.67</ele>
        <time>2015-04-27T09:57:35Z</time>
      </trkpt>
      <trkpt lat="48.83067" lon="1.59001">
        <ele>122.22</ele>
        <time>2015-04-27T09:57:39Z</time>
      </trkpt>
      <trkpt lat="48.83067" lon="1.59001">
        <ele>122.22</ele>
        <time>2015-04-27T09:57:40Z</time>
      </trkpt>
      <trkpt lat="48.83069" lon="1.59001">
        <ele>122.22</ele>
        <time>2015-04-27T09:57:42Z</time>
      </trkpt>
      <trkpt lat="48.83073" lon="1.59005">
        <ele>122.22</ele>
        <time>2015-04-27T09:57:47Z</time>
      </trkpt>
      <trkpt lat="48.83081" lon="1.59015">
        <ele>123.67</ele>
        <time>2015-04-27T09:57:57Z</time>
      </trkpt>
      <trkpt lat="48.83089" lon="1.59024">
        <ele>124.15</ele>
        <time>2015-04-27T09:58:05Z</time>
      </trkpt>
      <trkpt lat="48.83096" lon="1.59033">
        <ele>122.71</ele>
        <time>2015-04-27T09:58:14Z</time>
      </trkpt>
      <trkpt lat="48.83103" lon="1.59043">
        <ele>124.63</ele>
        <time>2015-04-27T09:58:22Z</time>
      </trkpt>
      <trkpt lat="48.83106" lon="1.59046">
        <ele>124.63</ele>
        <time>2015-04-27T09:58:25Z</time>
      </trkpt>
      <trkpt lat="48.83113" lon="1.59059">
        <ele>124.63</ele>
        <time>2015-04-27T09:58:34Z</time>
      </trkpt>
      <trkpt lat="48.83119" lon="1.59069">
        <ele>124.63</ele>
        <time>2015-04-27T09:58:42Z</time>
      </trkpt>
      <trkpt lat="48.83122" lon="1.59076">
        <ele>124.63</ele>
        <time>2015-04-27T09:58:48Z</time>
      </trkpt>
      <trkpt lat="48.83127" lon="1.59088">
        <ele>124.63</ele>
        <time>2015-04-27T09:58:56Z</time>
      </trkpt>
      <trkpt lat="48.83129" lon="1.59103">
        <ele>125.11</ele>
        <time>2015-04-27T09:59:05Z</time>
      </trkpt>
      <trkpt lat="48.8313" lon="1.59104">
        <ele>123.67</ele>
        <time>2015-04-27T09:59:06Z</time>
      </trkpt>
      <trkpt lat="48.83131" lon="1.59115">
        <ele>122.71</ele>
        <time>2015-04-27T09:59:14Z</time>
      </trkpt>
      <trkpt lat="48.83131" lon="1.59117">
        <ele>123.67</ele>
        <time>2015-04-27T09:59:16Z</time>
      </trkpt>
      <trkpt lat="48.83133" lon="1.59127">
        <ele>124.63</ele>
        <time>2015-04-27T09:59:23Z</time>
      </trkpt>
      <trkpt lat="48.83136" lon="1.59138">
        <ele>123.19</ele>
        <time>2015-04-27T09:59:31Z</time>
      </trkpt>
      <trkpt lat="48.83136" lon="1.59144">
        <ele>124.63</ele>
        <time>2015-04-27T09:59:35Z</time>
      </trkpt>
      <trkpt lat="48.8314" lon="1.59156">
        <ele>124.63</ele>
        <time>2015-04-27T09:59:43Z</time>
      </trkpt>
      <trkpt lat="48.83145" lon="1.59171">
        <ele>124.63</ele>
        <time>2015-04-27T09:59:52Z</time>
      </trkpt>
      <trkpt lat="48.8315" lon="1.59184">
        <ele>123.67</ele>
        <time>2015-04-27T10:00:02Z</time>
      </trkpt>
      <trkpt lat="48.8315" lon="1.59184">
        <ele>123.67</ele>
        <time>2015-04-27T10:00:03Z</time>
      </trkpt>
      <trkpt lat="48.83153" lon="1.59193">
        <ele>123.67</ele>
        <time>2015-04-27T10:00:10Z</time>
      </trkpt>
      <trkpt lat="48.83155" lon="1.59197">
        <ele>124.63</ele>
        <time>2015-04-27T10:00:13Z</time>
      </trkpt>
      <trkpt lat="48.83161" lon="1.59214">
        <ele>124.63</ele>
        <time>2015-04-27T10:00:23Z</time>
      </trkpt>
      <trkpt lat="48.83167" lon="1.59231">
        <ele>125.11</ele>
        <time>2015-04-27T10:00:33Z</time>
      </trkpt>
      <trkpt lat="48.8317" lon="1.59244">
        <ele>125.11</ele>
        <time>2015-04-27T10:00:41Z</time>
      </trkpt>
      <trkpt lat="48.83174" lon="1.59258">
        <ele>125.11</ele>
        <time>2015-04-27T10:00:50Z</time>
      </trkpt>
      <trkpt lat="48.83177" lon="1.59276">
        <ele>125.11</ele>
        <time>2015-04-27T10:01:00Z</time>
      </trkpt>
      <trkpt lat="48.83179" lon="1.59292">
        <ele>125.59</ele>
        <time>2015-04-27T10:01:10Z</time>
      </trkpt>
      <trkpt lat="48.83182" lon="1.593">
        <ele>125.59</ele>
        <time>2015-04-27T10:01:17Z</time>
      </trkpt>
      <trkpt lat="48.83184" lon="1.59315">
        <ele>125.59</ele>
        <time>2015-04-27T10:01:26Z</time>
      </trkpt>
      <trkpt lat="48.83184" lon="1.59334">
        <ele>125.59</ele>
        <time>2015-04-27T10:01:35Z</time>
      </trkpt>
      <trkpt lat="48.83182" lon="1.59354">
        <ele>125.59</ele>
        <time>2015-04-27T10:01:45Z</time>
      </trkpt>
      <trkpt lat="48.83179" lon="1.59375">
        <ele>125.59</ele>
        <time>2015-04-27T10:01:56Z</time>
      </trkpt>
      <trkpt lat="48.83175" lon="1.59394">
        <ele>125.59</ele>
        <time>2015-04-27T10:02:06Z</time>
      </trkpt>
      <trkpt lat="48.83171" lon="1.59417">
        <ele>125.59</ele>
        <time>2015-04-27T10:02:18Z</time>
      </trkpt>
      <trkpt lat="48.83167" lon="1.59439">
        <ele>126.07</ele>
        <time>2015-04-27T10:02:29Z</time>
      </trkpt>
      <trkpt lat="48.83163" lon="1.59456">
        <ele>126.07</ele>
        <time>2015-04-27T10:02:39Z</time>
      </trkpt>
      <trkpt lat="48.83161" lon="1.59468">
        <ele>126.07</ele>
        <time>2015-04-27T10:02:46Z</time>
      </trkpt>
      <trkpt lat="48.8316" lon="1.59471">
        <ele>126.07</ele>
        <time>2015-04-27T10:02:48Z</time>
      </trkpt>
      <trkpt lat="48.83158" lon="1.59492">
        <ele>126.07</ele>
        <time>2015-04-27T10:02:59Z</time>
      </trkpt>
      <trkpt lat="48.83156" lon="1.59509">
        <ele>127.51</ele>
        <time>2015-04-27T10:03:07Z</time>
      </trkpt>
      <trkpt lat="48.83155" lon="1.59523">
        <ele>127.51</ele>
        <time>2015-04-27T10:03:14Z</time>
      </trkpt>
      <trkpt lat="48.83157" lon="1.59536">
        <ele>127.51</ele>
        <time>2015-04-27T10:03:21Z</time>
      </trkpt>
      <trkpt lat="48.83158" lon="1.5955">
        <ele>127.51</ele>
        <time>2015-04-27T10:03:28Z</time>
      </trkpt>
      <trkpt lat="48.83159" lon="1.59565">
        <ele>128.95</ele>
        <time>2015-04-27T10:03:36Z</time>
      </trkpt>
      <trkpt lat="48.83162" lon="1.59583">
        <ele>128.95</ele>
        <time>2015-04-27T10:03:46Z</time>
      </trkpt>
      <trkpt lat="48.83163" lon="1.5959">
        <ele>128.95</ele>
        <time>2015-04-27T10:03:50Z</time>
      </trkpt>
      <trkpt lat="48.83165" lon="1.59609">
        <ele>128.95</ele>
        <time>2015-04-27T10:04:00Z</time>
      </trkpt>
      <trkpt lat="48.83168" lon="1.59631">
        <ele>130.4</ele>
        <time>2015-04-27T10:04:12Z</time>
      </trkpt>
      <trkpt lat="48.83171" lon="1.5965">
        <ele>130.88</ele>
        <time>2015-04-27T10:04:23Z</time>
      </trkpt>
      <trkpt lat="48.83174" lon="1.59669">
        <ele>131.84</ele>
        <time>2015-04-27T10:04:33Z</time>
      </trkpt>
      <trkpt lat="48.83177" lon="1.59688">
        <ele>132.32</ele>
        <time>2015-04-27T10:04:43Z</time>
      </trkpt>
      <trkpt lat="48.83179" lon="1.59707">
        <ele>132.8</ele>
        <time>2015-04-27T10:04:54Z</time>
      </trkpt>
      <trkpt lat="48.83181" lon="1.59724">
        <ele>133.28</ele>
        <time>2015-04-27T10:05:04Z</time>
      </trkpt>
      <trkpt lat="48.83184" lon="1.5974">
        <ele>134.24</ele>
        <time>2015-04-27T10:05:13Z</time>
      </trkpt>
      <trkpt lat="48.83188" lon="1.59755">
        <ele>134.24</ele>
        <time>2015-04-27T10:05:22Z</time>
      </trkpt>
      <trkpt lat="48.83192" lon="1.59773">
        <ele>135.2</ele>
        <time>2015-04-27T10:05:32Z</time>
      </trkpt>
      <trkpt lat="48.83196" lon="1.59789">
        <ele>135.2</ele>
        <time>2015-04-27T10:05:41Z</time>
      </trkpt>
      <trkpt lat="48.83201" lon="1.59805">
        <ele>135.2</ele>
        <time>2015-04-27T10:05:51Z</time>
      </trkpt>
      <trkpt lat="48.83203" lon="1.59815">
        <ele>135.2</ele>
        <time>2015-04-27T10:05:57Z</time>
      </trkpt>
      <trkpt lat="48.83201" lon="1.59825">
        <ele>135.68</ele>
        <time>2015-04-27T10:06:02Z</time>
      </trkpt>
      <trkpt lat="48.83201" lon="1.59829">
        <ele>135.68</ele>
        <time>2015-04-27T10:06:08Z</time>
      </trkpt>
      <trkpt lat="48.83211" lon="1.59832">
        <ele>136.16</ele>
        <time>2015-04-27T10:06:17Z</time>
      </trkpt>
      <trkpt lat="48.83217" lon="1.59845">
        <ele>136.16</ele>
        <time>2015-04-27T10:06:25Z</time>
      </trkpt>
      <trkpt lat="48.83222" lon="1.59859">
        <ele>134.72</ele>
        <time>2015-04-27T10:06:33Z</time>
      </trkpt>
      <trkpt lat="48.83223" lon="1.59861">
        <ele>136.16</ele>
        <time>2015-04-27T10:06:35Z</time>
      </trkpt>
      <trkpt lat="48.83229" lon="1.59876">
        <ele>136.16</ele>
        <time>2015-04-27T10:06:44Z</time>
      </trkpt>
      <trkpt lat="48.83235" lon="1.59892">
        <ele>136.16</ele>
        <time>2015-04-27T10:06:54Z</time>
      </trkpt>
      <trkpt lat="48.83238" lon="1.599">
        <ele>134.72</ele>
        <time>2015-04-27T10:06:59Z</time>
      </trkpt>
      <trkpt lat="48.83241" lon="1.59909">
        <ele>136.16</ele>
        <time>2015-04-27T10:07:04Z</time>
      </trkpt>
      <trkpt lat="48.83245" lon="1.59924">
        <ele>136.16</ele>
        <time>2015-04-27T10:07:13Z</time>
      </trkpt>
      <trkpt lat="48.83245" lon="1.59927">
        <ele>134.72</ele>
        <time>2015-04-27T10:07:17Z</time>
      </trkpt>
      <trkpt lat="48.83247" lon="1.59929">
        <ele>134.72</ele>
        <time>2015-04-27T10:07:34Z</time>
      </trkpt>
      <trkpt lat="48.83248" lon="1.59932">
        <ele>136.16</ele>
        <time>2015-04-27T10:07:36Z</time>
      </trkpt>
      <trkpt lat="48.83248" lon="1.59932">
        <ele>134.72</ele>
        <time>2015-04-27T10:07:39Z</time>
      </trkpt>
      <trkpt lat="48.83249" lon="1.59934">
        <ele>136.64</ele>
        <time>2015-04-27T10:07:46Z</time>
      </trkpt>
      <trkpt lat="48.8325" lon="1.5994">
        <ele>136.64</ele>
        <time>2015-04-27T10:07:50Z</time>
      </trkpt>
      <trkpt lat="48.8325" lon="1.59943">
        <ele>135.2</ele>
        <time>2015-04-27T10:07:52Z</time>
      </trkpt>
      <trkpt lat="48.83251" lon="1.59947">
        <ele>135.2</ele>
        <time>2015-04-27T10:07:54Z</time>
      </trkpt>
      <trkpt lat="48.83253" lon="1.59968">
        <ele>134.72</ele>
        <time>2015-04-27T10:08:05Z</time>
      </trkpt>
      <trkpt lat="48.83255" lon="1.59984">
        <ele>134.24</ele>
        <time>2015-04-27T10:08:14Z</time>
      </trkpt>
      <trkpt lat="48.83255" lon="1.59986">
        <ele>134.24</ele>
        <time>2015-04-27T10:08:16Z</time>
      </trkpt>
      <trkpt lat="48.83257" lon="1.6">
        <ele>136.16</ele>
        <time>2015-04-27T10:08:24Z</time>
      </trkpt>
      <trkpt lat="48.83259" lon="1.60021">
        <ele>134.24</ele>
        <time>2015-04-27T10:08:35Z</time>
      </trkpt>
      <trkpt lat="48.83261" lon="1.60039">
        <ele>134.24</ele>
        <time>2015-04-27T10:08:45Z</time>
      </trkpt>
      <trkpt lat="48.83264" lon="1.6006">
        <ele>134.24</ele>
        <time>2015-04-27T10:08:56Z</time>
      </trkpt>
      <trkpt lat="48.83265" lon="1.60077">
        <ele>134.24</ele>
        <time>2015-04-27T10:09:05Z</time>
      </trkpt>
      <trkpt lat="48.83268" lon="1.60098">
        <ele>134.24</ele>
        <time>2015-04-27T10:09:16Z</time>
      </trkpt>
      <trkpt lat="48.83271" lon="1.60117">
        <ele>133.28</ele>
        <time>2015-04-27T10:09:27Z</time>
      </trkpt>
      <trkpt lat="48.83273" lon="1.60135">
        <ele>133.76</ele>
        <time>2015-04-27T10:09:37Z</time>
      </trkpt>
      <trkpt lat="48.83276" lon="1.60156">
        <ele>133.76</ele>
        <time>2015-04-27T10:09:49Z</time>
      </trkpt>
      <trkpt lat="48.83278" lon="1.60175">
        <ele>133.28</ele>
        <time>2015-04-27T10:09:59Z</time>
      </trkpt>
      <trkpt lat="48.8328" lon="1.60193">
        <ele>133.28</ele>
        <time>2015-04-27T10:10:08Z</time>
      </trkpt>
      <trkpt lat="48.83282" lon="1.60211">
        <ele>134.72</ele>
        <time>2015-04-27T10:10:17Z</time>
      </trkpt>
      <trkpt lat="48.83284" lon="1.6023">
        <ele>134.72</ele>
        <time>2015-04-27T10:10:27Z</time>
      </trkpt>
      <trkpt lat="48.83286" lon="1.60251">
        <ele>134.72</ele>
        <time>2015-04-27T10:10:39Z</time>
      </trkpt>
      <trkpt lat="48.83289" lon="1.60272">
        <ele>134.72</ele>
        <time>2015-04-27T10:10:50Z</time>
      </trkpt>
      <trkpt lat="48.8329" lon="1.60287">
        <ele>133.28</ele>
        <time>2015-04-27T10:10:58Z</time>
      </trkpt>
      <trkpt lat="48.83292" lon="1.60301">
        <ele>133.28</ele>
        <time>2015-04-27T10:11:06Z</time>
      </trkpt>
      <trkpt lat="48.83294" lon="1.60312">
        <ele>134.24</ele>
        <time>2015-04-27T10:11:13Z</time>
      </trkpt>
      <trkpt lat="48.83296" lon="1.60331">
        <ele>134.24</ele>
        <time>2015-04-27T10:11:23Z</time>
      </trkpt>
      <trkpt lat="48.83299" lon="1.60352">
        <ele>133.76</ele>
        <time>2015-04-27T10:11:34Z</time>
      </trkpt>
      <trkpt lat="48.83301" lon="1.6037">
        <ele>135.2</ele>
        <time>2015-04-27T10:11:44Z</time>
      </trkpt>
      <trkpt lat="48.83301" lon="1.60389">
        <ele>134.72</ele>
        <time>2015-04-27T10:11:54Z</time>
      </trkpt>
      <trkpt lat="48.83302" lon="1.60402">
        <ele>135.2</ele>
        <time>2015-04-27T10:12:01Z</time>
      </trkpt>
      <trkpt lat="48.83303" lon="1.60426">
        <ele>133.76</ele>
        <time>2015-04-27T10:12:13Z</time>
      </trkpt>
      <trkpt lat="48.83302" lon="1.60443">
        <ele>133.76</ele>
        <time>2015-04-27T10:12:23Z</time>
      </trkpt>
      <trkpt lat="48.83302" lon="1.60458">
        <ele>134.72</ele>
        <time>2015-04-27T10:12:31Z</time>
      </trkpt>
      <trkpt lat="48.83302" lon="1.60475">
        <ele>134.72</ele>
        <time>2015-04-27T10:12:40Z</time>
      </trkpt>
      <trkpt lat="48.83302" lon="1.60485">
        <ele>134.24</ele>
        <time>2015-04-27T10:12:45Z</time>
      </trkpt>
      <trkpt lat="48.83303" lon="1.60499">
        <ele>134.24</ele>
        <time>2015-04-27T10:12:52Z</time>
      </trkpt>
      <trkpt lat="48.83302" lon="1.60502">
        <ele>135.68</ele>
        <time>2015-04-27T10:12:54Z</time>
      </trkpt>
      <trkpt lat="48.83303" lon="1.60518">
        <ele>136.16</ele>
        <time>2015-04-27T10:13:03Z</time>
      </trkpt>
      <trkpt lat="48.83302" lon="1.60541">
        <ele>136.16</ele>
        <time>2015-04-27T10:13:16Z</time>
      </trkpt>
      <trkpt lat="48.833" lon="1.60555">
        <ele>136.16</ele>
        <time>2015-04-27T10:13:25Z</time>
      </trkpt>
      <trkpt lat="48.83297" lon="1.60572">
        <ele>134.72</ele>
        <time>2015-04-27T10:13:36Z</time>
      </trkpt>
      <trkpt lat="48.83295" lon="1.60577">
        <ele>134.72</ele>
        <time>2015-04-27T10:13:40Z</time>
      </trkpt>
      <trkpt lat="48.83292" lon="1.60597">
        <ele>134.72</ele>
        <time>2015-04-27T10:13:51Z</time>
      </trkpt>
      <trkpt lat="48.83287" lon="1.60614">
        <ele>134.72</ele>
        <time>2015-04-27T10:14:01Z</time>
      </trkpt>
      <trkpt lat="48.83284" lon="1.60634">
        <ele>134.24</ele>
        <time>2015-04-27T10:14:11Z</time>
      </trkpt>
      <trkpt lat="48.83282" lon="1.60655">
        <ele>133.76</ele>
        <time>2015-04-27T10:14:21Z</time>
      </trkpt>
      <trkpt lat="48.83279" lon="1.60673">
        <ele>133.76</ele>
        <time>2015-04-27T10:14:30Z</time>
      </trkpt>
      <trkpt lat="48.83276" lon="1.60694">
        <ele>133.76</ele>
        <time>2015-04-27T10:14:41Z</time>
      </trkpt>
      <trkpt lat="48.83274" lon="1.6071">
        <ele>133.76</ele>
        <time>2015-04-27T10:14:51Z</time>
      </trkpt>
      <trkpt lat="48.83274" lon="1.60715">
        <ele>133.76</ele>
        <time>2015-04-27T10:14:55Z</time>
      </trkpt>
      <trkpt lat="48.83283" lon="1.60717">
        <ele>133.76</ele>
        <time>2015-04-27T10:15:04Z</time>
      </trkpt>
      <trkpt lat="48.83284" lon="1.60716">
        <ele>135.2</ele>
        <time>2015-04-27T10:15:06Z</time>
      </trkpt>
      <trkpt lat="48.83284" lon="1.60714">
        <ele>133.76</ele>
        <time>2015-04-27T10:15:10Z</time>
      </trkpt>
      <trkpt lat="48.83286" lon="1.60713">
        <ele>133.76</ele>
        <time>2015-04-27T10:15:17Z</time>
      </trkpt>
      <trkpt lat="48.83286" lon="1.60715">
        <ele>133.28</ele>
        <time>2015-04-27T10:15:25Z</time>
      </trkpt>
      <trkpt lat="48.83283" lon="1.60713">
        <ele>132.8</ele>
        <time>2015-04-27T10:15:43Z</time>
      </trkpt>
      <trkpt lat="48.83283" lon="1.60712">
        <ele>133.76</ele>
        <time>2015-04-27T10:15:52Z</time>
      </trkpt>
      <trkpt lat="48.83284" lon="1.60715">
        <ele>133.76</ele>
        <time>2015-04-27T10:16:15Z</time>
      </trkpt>
      <trkpt lat="48.83286" lon="1.60715">
        <ele>134.24</ele>
        <time>2015-04-27T10:16:17Z</time>
      </trkpt>
      <trkpt lat="48.8329" lon="1.60709">
        <ele>134.24</ele>
        <time>2015-04-27T10:16:24Z</time>
      </trkpt>
      <trkpt lat="48.8329" lon="1.60707">
        <ele>132.8</ele>
        <time>2015-04-27T10:16:27Z</time>
      </trkpt>
      <trkpt lat="48.8329" lon="1.60707">
        <ele>132.32</ele>
        <time>2015-04-27T10:16:36Z</time>
      </trkpt>
      <trkpt lat="48.8329" lon="1.60706">
        <ele>132.32</ele>
        <time>2015-04-27T10:16:41Z</time>
      </trkpt>
      <trkpt lat="48.83293" lon="1.60703">
        <ele>132.32</ele>
        <time>2015-04-27T10:16:45Z</time>
      </trkpt>
      <trkpt lat="48.83295" lon="1.60702">
        <ele>132.32</ele>
        <time>2015-04-27T10:16:47Z</time>
      </trkpt>
      <trkpt lat="48.83301" lon="1.60697">
        <ele>132.32</ele>
        <time>2015-04-27T10:16:55Z</time>
      </trkpt>
      <trkpt lat="48.83302" lon="1.60698">
        <ele>132.32</ele>
        <time>2015-04-27T10:17:02Z</time>
      </trkpt>
      <trkpt lat="48.83303" lon="1.60696">
        <ele>132.32</ele>
        <time>2015-04-27T10:17:16Z</time>
      </trkpt>
      <trkpt lat="48.83304" lon="1.60693">
        <ele>132.32</ele>
        <time>2015-04-27T10:17:35Z</time>
      </trkpt>
      <trkpt lat="48.83305" lon="1.60692">
        <ele>132.32</ele>
        <time>2015-04-27T10:17:57Z</time>
      </trkpt>
      <trkpt lat="48.83303" lon="1.6069">
        <ele>132.32</ele>
        <time>2015-04-27T10:18:15Z</time>
      </trkpt>
      <trkpt lat="48.83302" lon="1.6069">
        <ele>132.32</ele>
        <time>2015-04-27T10:18:39Z</time>
      </trkpt>
      <trkpt lat="48.83303" lon="1.6069">
        <ele>132.32</ele>
        <time>2015-04-27T10:18:55Z</time>
      </trkpt>
      <trkpt lat="48.83304" lon="1.6069">
        <ele>132.32</ele>
        <time>2015-04-27T10:19:09Z</time>
      </trkpt>
      <trkpt lat="48.83303" lon="1.60688">
        <ele>132.32</ele>
        <time>2015-04-27T10:19:26Z</time>
      </trkpt>
      <trkpt lat="48.83303" lon="1.60688">
        <ele>131.84</ele>
        <time>2015-04-27T10:19:44Z</time>
      </trkpt>
      <trkpt lat="48.83302" lon="1.60686">
        <ele>131.84</ele>
        <time>2015-04-27T10:20:03Z</time>
      </trkpt>
      <trkpt lat="48.83301" lon="1.60687">
        <ele>131.36</ele>
        <time>2015-04-27T10:20:22Z</time>
      </trkpt>
      <trkpt lat="48.83301" lon="1.60687">
        <ele>131.36</ele>
        <time>2015-04-27T10:20:42Z</time>
      </trkpt>
      <trkpt lat="48.833" lon="1.60688">
        <ele>131.36</ele>
        <time>2015-04-27T10:21:00Z</time>
      </trkpt>
      <trkpt lat="48.833" lon="1.60688">
        <ele>131.84</ele>
        <time>2015-04-27T10:21:16Z</time>
      </trkpt>
      <trkpt lat="48.83301" lon="1.60686">
        <ele>131.84</ele>
        <time>2015-04-27T10:21:36Z</time>
      </trkpt>
      <trkpt lat="48.83301" lon="1.60686">
        <ele>131.84</ele>
        <time>2015-04-27T10:21:56Z</time>
      </trkpt>
      <trkpt lat="48.83302" lon="1.60688">
        <ele>131.84</ele>
        <time>2015-04-27T10:22:19Z</time>
      </trkpt>
      <trkpt lat="48.83302" lon="1.60688">
        <ele>131.84</ele>
        <time>2015-04-27T10:22:34Z</time>
      </trkpt>
      <trkpt lat="48.83302" lon="1.60687">
        <ele>131.84</ele>
        <time>2015-04-27T10:22:50Z</time>
      </trkpt>
      <trkpt lat="48.83304" lon="1.60688">
        <ele>131.84</ele>
        <time>2015-04-27T10:23:03Z</time>
      </trkpt>
      <trkpt lat="48.83304" lon="1.60689">
        <ele>131.84</ele>
        <time>2015-04-27T10:23:18Z</time>
      </trkpt>
      <trkpt lat="48.83305" lon="1.60689">
        <ele>131.84</ele>
        <time>2015-04-27T10:23:35Z</time>
      </trkpt>
      <trkpt lat="48.83304" lon="1.60688">
        <ele>131.84</ele>
        <time>2015-04-27T10:23:54Z</time>
      </trkpt>
      <trkpt lat="48.83305" lon="1.60687">
        <ele>131.84</ele>
        <time>2015-04-27T10:24:11Z</time>
      </trkpt>
      <trkpt lat="48.83305" lon="1.60686">
        <ele>131.36</ele>
        <time>2015-04-27T10:24:26Z</time>
      </trkpt>
      <trkpt lat="48.83306" lon="1.60684">
        <ele>131.36</ele>
        <time>2015-04-27T10:24:43Z</time>
      </trkpt>
      <trkpt lat="48.83306" lon="1.60683">
        <ele>131.36</ele>
        <time>2015-04-27T10:25:04Z</time>
      </trkpt>
      <trkpt lat="48.83304" lon="1.60685">
        <ele>131.36</ele>
        <time>2015-04-27T10:25:22Z</time>
      </trkpt>
      <trkpt lat="48.83302" lon="1.6069">
        <ele>131.36</ele>
        <time>2015-04-27T10:25:45Z</time>
      </trkpt>
      <trkpt lat="48.83305" lon="1.6069">
        <ele>131.36</ele>
        <time>2015-04-27T10:26:09Z</time>
      </trkpt>
      <trkpt lat="48.83306" lon="1.6069">
        <ele>131.36</ele>
        <time>2015-04-27T10:26:33Z</time>
      </trkpt>
      <trkpt lat="48.83302" lon="1.60692">
        <ele>131.36</ele>
        <time>2015-04-27T10:26:51Z</time>
      </trkpt>
      <trkpt lat="48.83301" lon="1.6069">
        <ele>131.36</ele>
        <time>2015-04-27T10:27:13Z</time>
      </trkpt>
      <trkpt lat="48.83301" lon="1.60687">
        <ele>131.36</ele>
        <time>2015-04-27T10:27:33Z</time>
      </trkpt>
      <trkpt lat="48.83301" lon="1.60688">
        <ele>131.36</ele>
        <time>2015-04-27T10:27:57Z</time>
      </trkpt>
      <trkpt lat="48.83302" lon="1.60689">
        <ele>131.36</ele>
        <time>2015-04-27T10:28:20Z</time>
      </trkpt>
      <trkpt lat="48.83303" lon="1.60693">
        <ele>131.36</ele>
        <time>2015-04-27T10:28:44Z</time>
      </trkpt>
      <trkpt lat="48.83303" lon="1.60694">
        <ele>131.36</ele>
        <time>2015-04-27T10:29:04Z</time>
      </trkpt>
      <trkpt lat="48.83303" lon="1.60697">
        <ele>131.36</ele>
        <time>2015-04-27T10:29:33Z</time>
      </trkpt>
      <trkpt lat="48.83303" lon="1.60697">
        <ele>131.36</ele>
        <time>2015-04-27T10:29:57Z</time>
      </trkpt>
      <trkpt lat="48.83302" lon="1.60694">
        <ele>132.8</ele>
        <time>2015-04-27T10:30:26Z</time>
      </trkpt>
      <trkpt lat="48.83304" lon="1.60693">
        <ele>132.8</ele>
        <time>2015-04-27T10:30:54Z</time>
      </trkpt>
      <trkpt lat="48.83306" lon="1.60692">
        <ele>132.8</ele>
        <time>2015-04-27T10:31:16Z</time>
      </trkpt>
      <trkpt lat="48.83305" lon="1.60693">
        <ele>132.8</ele>
        <time>2015-04-27T10:31:36Z</time>
      </trkpt>
      <trkpt lat="48.83303" lon="1.60692">
        <ele>132.8</ele>
        <time>2015-04-27T10:31:57Z</time>
      </trkpt>
      <trkpt lat="48.83304" lon="1.60692">
        <ele>132.8</ele>
        <time>2015-04-27T10:32:20Z</time>
      </trkpt>
      <trkpt lat="48.83304" lon="1.60693">
        <ele>132.8</ele>
        <time>2015-04-27T10:32:39Z</time>
      </trkpt>
      <trkpt lat="48.83307" lon="1.60694">
        <ele>132.8</ele>
        <time>2015-04-27T10:32:59Z</time>
      </trkpt>
      <trkpt lat="48.83308" lon="1.60695">
        <ele>131.36</ele>
        <time>2015-04-27T10:33:23Z</time>
      </trkpt>
      <trkpt lat="48.83309" lon="1.60696">
        <ele>131.36</ele>
        <time>2015-04-27T10:33:45Z</time>
      </trkpt>
      <trkpt lat="48.83311" lon="1.60695">
        <ele>131.36</ele>
        <time>2015-04-27T10:34:07Z</time>
      </trkpt>
      <trkpt lat="48.83311" lon="1.60693">
        <ele>131.84</ele>
        <time>2015-04-27T10:34:30Z</time>
      </trkpt>
      <trkpt lat="48.83309" lon="1.60694">
        <ele>131.84</ele>
        <time>2015-04-27T10:34:55Z</time>
      </trkpt>
      <trkpt lat="48.83306" lon="1.60695">
        <ele>131.84</ele>
        <time>2015-04-27T10:35:18Z</time>
      </trkpt>
      <trkpt lat="48.83304" lon="1.60695">
        <ele>131.84</ele>
        <time>2015-04-27T10:35:36Z</time>
      </trkpt>
      <trkpt lat="48.83301" lon="1.60693">
        <ele>132.32</ele>
        <time>2015-04-27T10:35:51Z</time>
      </trkpt>
      <trkpt lat="48.83301" lon="1.60695">
        <ele>132.32</ele>
        <time>2015-04-27T10:36:15Z</time>
      </trkpt>
      <trkpt lat="48.833" lon="1.60694">
        <ele>132.32</ele>
        <time>2015-04-27T10:36:39Z</time>
      </trkpt>
      <trkpt lat="48.83301" lon="1.60694">
        <ele>132.32</ele>
        <time>2015-04-27T10:37:02Z</time>
      </trkpt>
      <trkpt lat="48.833" lon="1.60692">
        <ele>132.32</ele>
        <time>2015-04-27T10:37:25Z</time>
      </trkpt>
      <trkpt lat="48.833" lon="1.60692">
        <ele>132.8</ele>
        <time>2015-04-27T10:37:48Z</time>
      </trkpt>
      <trkpt lat="48.83301" lon="1.60691">
        <ele>132.8</ele>
        <time>2015-04-27T10:38:11Z</time>
      </trkpt>
      <trkpt lat="48.83301" lon="1.6069">
        <ele>132.8</ele>
        <time>2015-04-27T10:38:35Z</time>
      </trkpt>
      <trkpt lat="48.833" lon="1.60694">
        <ele>132.8</ele>
        <time>2015-04-27T10:38:52Z</time>
      </trkpt>
      <trkpt lat="48.833" lon="1.60696">
        <ele>132.8</ele>
        <time>2015-04-27T10:39:09Z</time>
      </trkpt>
      <trkpt lat="48.833" lon="1.60695">
        <ele>132.8</ele>
        <time>2015-04-27T10:39:32Z</time>
      </trkpt>
      <trkpt lat="48.83301" lon="1.60698">
        <ele>133.28</ele>
        <time>2015-04-27T10:39:53Z</time>
      </trkpt>
      <trkpt lat="48.83302" lon="1.60698">
        <ele>133.28</ele>
        <time>2015-04-27T10:40:09Z</time>
      </trkpt>
      <trkpt lat="48.833" lon="1.60697">
        <ele>133.28</ele>
        <time>2015-04-27T10:40:29Z</time>
      </trkpt>
      <trkpt lat="48.833" lon="1.60697">
        <ele>133.28</ele>
        <time>2015-04-27T10:40:55Z</time>
      </trkpt>
      <trkpt lat="48.83302" lon="1.60698">
        <ele>133.28</ele>
        <time>2015-04-27T10:41:17Z</time>
      </trkpt>
      <trkpt lat="48.83305" lon="1.60699">
        <ele>134.72</ele>
        <time>2015-04-27T10:41:41Z</time>
      </trkpt>
      <trkpt lat="48.83306" lon="1.60699">
        <ele>133.28</ele>
        <time>2015-04-27T10:42:05Z</time>
      </trkpt>
      <trkpt lat="48.83306" lon="1.60698">
        <ele>132.8</ele>
        <time>2015-04-27T10:42:19Z</time>
      </trkpt>
      <trkpt lat="48.83306" lon="1.60699">
        <ele>134.24</ele>
        <time>2015-04-27T10:42:23Z</time>
      </trkpt>
      <trkpt lat="48.83305" lon="1.60699">
        <ele>134.24</ele>
        <time>2015-04-27T10:42:38Z</time>
      </trkpt>
      <trkpt lat="48.83303" lon="1.60699">
        <ele>134.72</ele>
        <time>2015-04-27T10:42:55Z</time>
      </trkpt>
      <trkpt lat="48.83302" lon="1.607">
        <ele>133.28</ele>
        <time>2015-04-27T10:43:12Z</time>
      </trkpt>
      <trkpt lat="48.83302" lon="1.60698">
        <ele>133.28</ele>
        <time>2015-04-27T10:43:25Z</time>
      </trkpt>
      <trkpt lat="48.83301" lon="1.60692">
        <ele>133.28</ele>
        <time>2015-04-27T10:43:47Z</time>
      </trkpt>
      <trkpt lat="48.83301" lon="1.60692">
        <ele>133.28</ele>
        <time>2015-04-27T10:44:12Z</time>
      </trkpt>
      <trkpt lat="48.83301" lon="1.60695">
        <ele>133.28</ele>
        <time>2015-04-27T10:44:27Z</time>
      </trkpt>
      <trkpt lat="48.83302" lon="1.60697">
        <ele>133.76</ele>
        <time>2015-04-27T10:44:48Z</time>
      </trkpt>
      <trkpt lat="48.83302" lon="1.60696">
        <ele>133.76</ele>
        <time>2015-04-27T10:45:05Z</time>
      </trkpt>
      <trkpt lat="48.83301" lon="1.60702">
        <ele>133.76</ele>
        <time>2015-04-27T10:45:24Z</time>
      </trkpt>
      <trkpt lat="48.833" lon="1.60706">
        <ele>133.76</ele>
        <time>2015-04-27T10:45:47Z</time>
      </trkpt>
      <trkpt lat="48.833" lon="1.60707">
        <ele>134.24</ele>
        <time>2015-04-27T10:46:06Z</time>
      </trkpt>
      <trkpt lat="48.833" lon="1.60707">
        <ele>135.2</ele>
        <time>2015-04-27T10:46:26Z</time>
      </trkpt>
      <trkpt lat="48.833" lon="1.60707">
        <ele>135.68</ele>
        <time>2015-04-27T10:46:49Z</time>
      </trkpt>
      <trkpt lat="48.83299" lon="1.60709">
        <ele>135.68</ele>
        <time>2015-04-27T10:47:12Z</time>
      </trkpt>
      <trkpt lat="48.83297" lon="1.6071">
        <ele>135.68</ele>
        <time>2015-04-27T10:47:31Z</time>
      </trkpt>
      <trkpt lat="48.83297" lon="1.60709">
        <ele>136.16</ele>
        <time>2015-04-27T10:47:54Z</time>
      </trkpt>
      <trkpt lat="48.83297" lon="1.60708">
        <ele>136.16</ele>
        <time>2015-04-27T10:48:19Z</time>
      </trkpt>
      <trkpt lat="48.83296" lon="1.60708">
        <ele>136.64</ele>
        <time>2015-04-27T10:48:38Z</time>
      </trkpt>
      <trkpt lat="48.83294" lon="1.60708">
        <ele>136.64</ele>
        <time>2015-04-27T10:48:59Z</time>
      </trkpt>
      <trkpt lat="48.83293" lon="1.60707">
        <ele>136.64</ele>
        <time>2015-04-27T10:49:17Z</time>
      </trkpt>
      <trkpt lat="48.83295" lon="1.60706">
        <ele>137.13</ele>
        <time>2015-04-27T10:49:35Z</time>
      </trkpt>
      <trkpt lat="48.83296" lon="1.60705">
        <ele>137.13</ele>
        <time>2015-04-27T10:49:47Z</time>
      </trkpt>
      <trkpt lat="48.83297" lon="1.60704">
        <ele>137.13</ele>
        <time>2015-04-27T10:50:05Z</time>
      </trkpt>
      <trkpt lat="48.83298" lon="1.60704">
        <ele>137.61</ele>
        <time>2015-04-27T10:50:27Z</time>
      </trkpt>
      <trkpt lat="48.83302" lon="1.60703">
        <ele>137.61</ele>
        <time>2015-04-27T10:50:45Z</time>
      </trkpt>
      <trkpt lat="48.83303" lon="1.60702">
        <ele>137.61</ele>
        <time>2015-04-27T10:51:05Z</time>
      </trkpt>
      <trkpt lat="48.83304" lon="1.607">
        <ele>137.61</ele>
        <time>2015-04-27T10:51:21Z</time>
      </trkpt>
      <trkpt lat="48.83304" lon="1.60699">
        <ele>138.09</ele>
        <time>2015-04-27T10:51:40Z</time>
      </trkpt>
      <trkpt lat="48.83304" lon="1.607">
        <ele>138.09</ele>
        <time>2015-04-27T10:51:59Z</time>
      </trkpt>
      <trkpt lat="48.83304" lon="1.607">
        <ele>138.09</ele>
        <time>2015-04-27T10:52:18Z</time>
      </trkpt>
      <trkpt lat="48.83305" lon="1.60699">
        <ele>138.09</ele>
        <time>2015-04-27T10:52:35Z</time>
      </trkpt>
      <trkpt lat="48.83308" lon="1.60697">
        <ele>138.09</ele>
        <time>2015-04-27T10:52:48Z</time>
      </trkpt>
      <trkpt lat="48.83308" lon="1.60697">
        <ele>138.57</ele>
        <time>2015-04-27T10:53:09Z</time>
      </trkpt>
      <trkpt lat="48.83307" lon="1.60698">
        <ele>138.57</ele>
        <time>2015-04-27T10:53:25Z</time>
      </trkpt>
      <trkpt lat="48.83307" lon="1.607">
        <ele>138.57</ele>
        <time>2015-04-27T10:53:46Z</time>
      </trkpt>
      <trkpt lat="48.83307" lon="1.60702">
        <ele>139.05</ele>
        <time>2015-04-27T10:54:09Z</time>
      </trkpt>
      <trkpt lat="48.83305" lon="1.60702">
        <ele>139.05</ele>
        <time>2015-04-27T10:54:29Z</time>
      </trkpt>
      <trkpt lat="48.83306" lon="1.60701">
        <ele>139.53</ele>
        <time>2015-04-27T10:54:45Z</time>
      </trkpt>
      <trkpt lat="48.83305" lon="1.60702">
        <ele>139.53</ele>
        <time>2015-04-27T10:55:01Z</time>
      </trkpt>
      <trkpt lat="48.83305" lon="1.60704">
        <ele>139.53</ele>
        <time>2015-04-27T10:55:22Z</time>
      </trkpt>
      <trkpt lat="48.83305" lon="1.60704">
        <ele>140.01</ele>
        <time>2015-04-27T10:55:39Z</time>
      </trkpt>
      <trkpt lat="48.83306" lon="1.60705">
        <ele>140.01</ele>
        <time>2015-04-27T10:55:57Z</time>
      </trkpt>
      <trkpt lat="48.83303" lon="1.60705">
        <ele>140.97</ele>
        <time>2015-04-27T10:56:09Z</time>
      </trkpt>
      <trkpt lat="48.83302" lon="1.60706">
        <ele>140.97</ele>
        <time>2015-04-27T10:56:25Z</time>
      </trkpt>
      <trkpt lat="48.83299" lon="1.60706">
        <ele>141.93</ele>
        <time>2015-04-27T10:56:41Z</time>
      </trkpt>
      <trkpt lat="48.83297" lon="1.60704">
        <ele>141.93</ele>
        <time>2015-04-27T10:56:53Z</time>
      </trkpt>
      <trkpt lat="48.83301" lon="1.60702">
        <ele>141.93</ele>
        <time>2015-04-27T10:57:09Z</time>
      </trkpt>
      <trkpt lat="48.83302" lon="1.60704">
        <ele>140.97</ele>
        <time>2015-04-27T10:57:27Z</time>
      </trkpt>
      <trkpt lat="48.83303" lon="1.60704">
        <ele>142.41</ele>
        <time>2015-04-27T10:57:31Z</time>
      </trkpt>
      <trkpt lat="48.83303" lon="1.60706">
        <ele>142.41</ele>
        <time>2015-04-27T10:57:47Z</time>
      </trkpt>
      <trkpt lat="48.83302" lon="1.60706">
        <ele>142.41</ele>
        <time>2015-04-27T10:58:02Z</time>
      </trkpt>
      <trkpt lat="48.83301" lon="1.60705">
        <ele>142.41</ele>
        <time>2015-04-27T10:58:23Z</time>
      </trkpt>
      <trkpt lat="48.83301" lon="1.60705">
        <ele>142.41</ele>
        <time>2015-04-27T10:58:35Z</time>
      </trkpt>
      <trkpt lat="48.833" lon="1.60704">
        <ele>142.41</ele>
        <time>2015-04-27T10:58:52Z</time>
      </trkpt>
      <trkpt lat="48.833" lon="1.60703">
        <ele>141.45</ele>
        <time>2015-04-27T10:58:54Z</time>
      </trkpt>
      <trkpt lat="48.833" lon="1.60693">
        <ele>141.45</ele>
        <time>2015-04-27T10:59:18Z</time>
      </trkpt>
      <trkpt lat="48.833" lon="1.60698">
        <ele>141.45</ele>
        <time>2015-04-27T10:59:33Z</time>
      </trkpt>
      <trkpt lat="48.833" lon="1.60699">
        <ele>141.45</ele>
        <time>2015-04-27T10:59:46Z</time>
      </trkpt>
      <trkpt lat="48.833" lon="1.60703">
        <ele>141.45</ele>
        <time>2015-04-27T11:00:02Z</time>
      </trkpt>
      <trkpt lat="48.83301" lon="1.60706">
        <ele>141.45</ele>
        <time>2015-04-27T11:00:25Z</time>
      </trkpt>
      <trkpt lat="48.83303" lon="1.60703">
        <ele>141.45</ele>
        <time>2015-04-27T11:00:48Z</time>
      </trkpt>
      <trkpt lat="48.833" lon="1.60699">
        <ele>140.97</ele>
        <time>2015-04-27T11:01:08Z</time>
      </trkpt>
      <trkpt lat="48.83301" lon="1.60701">
        <ele>140.97</ele>
        <time>2015-04-27T11:01:23Z</time>
      </trkpt>
      <trkpt lat="48.83295" lon="1.6071">
        <ele>140.97</ele>
        <time>2015-04-27T11:01:32Z</time>
      </trkpt>
      <trkpt lat="48.83288" lon="1.60717">
        <ele>140.97</ele>
        <time>2015-04-27T11:01:41Z</time>
      </trkpt>
      <trkpt lat="48.83286" lon="1.60716">
        <ele>140.97</ele>
        <time>2015-04-27T11:01:48Z</time>
      </trkpt>
      <trkpt lat="48.83284" lon="1.60717">
        <ele>142.41</ele>
        <time>2015-04-27T11:01:55Z</time>
      </trkpt>
      <trkpt lat="48.83284" lon="1.60721">
        <ele>142.41</ele>
        <time>2015-04-27T11:02:03Z</time>
      </trkpt>
      <trkpt lat="48.83284" lon="1.60723">
        <ele>142.41</ele>
        <time>2015-04-27T11:02:13Z</time>
      </trkpt>
      <trkpt lat="48.83289" lon="1.60722">
        <ele>142.41</ele>
        <time>2015-04-27T11:02:21Z</time>
      </trkpt>
      <trkpt lat="48.83299" lon="1.60715">
        <ele>142.41</ele>
        <time>2015-04-27T11:02:32Z</time>
      </trkpt>
      <trkpt lat="48.83307" lon="1.6071">
        <ele>142.41</ele>
        <time>2015-04-27T11:02:40Z</time>
      </trkpt>
      <trkpt lat="48.8331" lon="1.60708">
        <ele>142.41</ele>
        <time>2015-04-27T11:02:48Z</time>
      </trkpt>
      <trkpt lat="48.83313" lon="1.60707">
        <ele>142.89</ele>
        <time>2015-04-27T11:03:04Z</time>
      </trkpt>
      <trkpt lat="48.83316" lon="1.60707">
        <ele>141.45</ele>
        <time>2015-04-27T11:03:12Z</time>
      </trkpt>
      <trkpt lat="48.83325" lon="1.60698">
        <ele>141.45</ele>
        <time>2015-04-27T11:03:22Z</time>
      </trkpt>
      <trkpt lat="48.83331" lon="1.60692">
        <ele>141.45</ele>
        <time>2015-04-27T11:03:30Z</time>
      </trkpt>
      <trkpt lat="48.83341" lon="1.60683">
        <ele>141.45</ele>
        <time>2015-04-27T11:03:40Z</time>
      </trkpt>
      <trkpt lat="48.8335" lon="1.60672">
        <ele>142.41</ele>
        <time>2015-04-27T11:03:50Z</time>
      </trkpt>
      <trkpt lat="48.83359" lon="1.60659">
        <ele>142.41</ele>
        <time>2015-04-27T11:04:01Z</time>
      </trkpt>
      <trkpt lat="48.83368" lon="1.60648">
        <ele>142.89</ele>
        <time>2015-04-27T11:04:10Z</time>
      </trkpt>
      <trkpt lat="48.83368" lon="1.60647">
        <ele>142.89</ele>
        <time>2015-04-27T11:04:11Z</time>
      </trkpt>
      <trkpt lat="48.83374" lon="1.60641">
        <ele>142.89</ele>
        <time>2015-04-27T11:04:19Z</time>
      </trkpt>
      <trkpt lat="48.83382" lon="1.60629">
        <ele>143.85</ele>
        <time>2015-04-27T11:04:28Z</time>
      </trkpt>
      <trkpt lat="48.8339" lon="1.6062">
        <ele>143.85</ele>
        <time>2015-04-27T11:04:37Z</time>
      </trkpt>
      <trkpt lat="48.834" lon="1.6061">
        <ele>143.85</ele>
        <time>2015-04-27T11:04:47Z</time>
      </trkpt>
      <trkpt lat="48.83409" lon="1.60598">
        <ele>144.34</ele>
        <time>2015-04-27T11:04:58Z</time>
      </trkpt>
      <trkpt lat="48.83418" lon="1.60586">
        <ele>143.37</ele>
        <time>2015-04-27T11:05:08Z</time>
      </trkpt>
      <trkpt lat="48.83419" lon="1.60585">
        <ele>146.26</ele>
        <time>2015-04-27T11:05:09Z</time>
      </trkpt>
      <trkpt lat="48.8342" lon="1.60584">
        <ele>144.82</ele>
        <time>2015-04-27T11:05:10Z</time>
      </trkpt>
      <trkpt lat="48.83424" lon="1.60579">
        <ele>142.41</ele>
        <time>2015-04-27T11:05:15Z</time>
      </trkpt>
      <trkpt lat="48.83427" lon="1.60575">
        <ele>143.37</ele>
        <time>2015-04-27T11:05:18Z</time>
      </trkpt>
      <trkpt lat="48.83435" lon="1.60566">
        <ele>144.82</ele>
        <time>2015-04-27T11:05:27Z</time>
      </trkpt>
      <trkpt lat="48.8344" lon="1.60558">
        <ele>144.82</ele>
        <time>2015-04-27T11:05:35Z</time>
      </trkpt>
      <trkpt lat="48.83453" lon="1.60542">
        <ele>145.3</ele>
        <time>2015-04-27T11:05:49Z</time>
      </trkpt>
      <trkpt lat="48.83463" lon="1.60528">
        <ele>145.3</ele>
        <time>2015-04-27T11:06:00Z</time>
      </trkpt>
      <trkpt lat="48.83473" lon="1.60516">
        <ele>145.3</ele>
        <time>2015-04-27T11:06:11Z</time>
      </trkpt>
      <trkpt lat="48.83481" lon="1.60506">
        <ele>148.66</ele>
        <time>2015-04-27T11:06:21Z</time>
      </trkpt>
      <trkpt lat="48.83482" lon="1.60505">
        <ele>144.82</ele>
        <time>2015-04-27T11:06:22Z</time>
      </trkpt>
      <trkpt lat="48.83491" lon="1.60493">
        <ele>144.82</ele>
        <time>2015-04-27T11:06:32Z</time>
      </trkpt>
      <trkpt lat="48.83501" lon="1.60479">
        <ele>144.82</ele>
        <time>2015-04-27T11:06:44Z</time>
      </trkpt>
      <trkpt lat="48.83504" lon="1.60475">
        <ele>146.26</ele>
        <time>2015-04-27T11:06:47Z</time>
      </trkpt>
      <trkpt lat="48.83514" lon="1.60463">
        <ele>146.74</ele>
        <time>2015-04-27T11:06:58Z</time>
      </trkpt>
      <trkpt lat="48.83524" lon="1.6045">
        <ele>147.22</ele>
        <time>2015-04-27T11:07:09Z</time>
      </trkpt>
      <trkpt lat="48.83534" lon="1.60439">
        <ele>147.7</ele>
        <time>2015-04-27T11:07:20Z</time>
      </trkpt>
      <trkpt lat="48.83543" lon="1.60429">
        <ele>147.7</ele>
        <time>2015-04-27T11:07:30Z</time>
      </trkpt>
      <trkpt lat="48.83553" lon="1.60417">
        <ele>148.18</ele>
        <time>2015-04-27T11:07:41Z</time>
      </trkpt>
      <trkpt lat="48.83557" lon="1.60416">
        <ele>149.14</ele>
        <time>2015-04-27T11:07:50Z</time>
      </trkpt>
      <trkpt lat="48.83561" lon="1.60412">
        <ele>149.14</ele>
        <time>2015-04-27T11:07:58Z</time>
      </trkpt>
      <trkpt lat="48.83571" lon="1.60401">
        <ele>149.14</ele>
        <time>2015-04-27T11:08:08Z</time>
      </trkpt>
      <trkpt lat="48.83581" lon="1.60391">
        <ele>149.62</ele>
        <time>2015-04-27T11:08:18Z</time>
      </trkpt>
      <trkpt lat="48.83593" lon="1.6038">
        <ele>149.62</ele>
        <time>2015-04-27T11:08:29Z</time>
      </trkpt>
      <trkpt lat="48.83603" lon="1.60369">
        <ele>150.58</ele>
        <time>2015-04-27T11:08:39Z</time>
      </trkpt>
      <trkpt lat="48.83614" lon="1.60356">
        <ele>150.58</ele>
        <time>2015-04-27T11:08:50Z</time>
      </trkpt>
      <trkpt lat="48.83624" lon="1.60341">
        <ele>150.58</ele>
        <time>2015-04-27T11:09:02Z</time>
      </trkpt>
      <trkpt lat="48.83633" lon="1.60325">
        <ele>151.06</ele>
        <time>2015-04-27T11:09:13Z</time>
      </trkpt>
      <trkpt lat="48.83639" lon="1.60309">
        <ele>151.06</ele>
        <time>2015-04-27T11:09:23Z</time>
      </trkpt>
      <trkpt lat="48.83646" lon="1.60289">
        <ele>151.54</ele>
        <time>2015-04-27T11:09:35Z</time>
      </trkpt>
      <trkpt lat="48.83653" lon="1.6027">
        <ele>151.54</ele>
        <time>2015-04-27T11:09:47Z</time>
      </trkpt>
      <trkpt lat="48.8366" lon="1.60249">
        <ele>151.54</ele>
        <time>2015-04-27T11:10:00Z</time>
      </trkpt>
      <trkpt lat="48.83667" lon="1.60229">
        <ele>152.03</ele>
        <time>2015-04-27T11:10:12Z</time>
      </trkpt>
      <trkpt lat="48.83676" lon="1.6021">
        <ele>152.03</ele>
        <time>2015-04-27T11:10:24Z</time>
      </trkpt>
      <trkpt lat="48.83684" lon="1.60192">
        <ele>152.03</ele>
        <time>2015-04-27T11:10:36Z</time>
      </trkpt>
      <trkpt lat="48.8369" lon="1.60178">
        <ele>152.03</ele>
        <time>2015-04-27T11:10:45Z</time>
      </trkpt>
      <trkpt lat="48.83698" lon="1.60163">
        <ele>151.06</ele>
        <time>2015-04-27T11:10:56Z</time>
      </trkpt>
      <trkpt lat="48.83708" lon="1.60146">
        <ele>151.06</ele>
        <time>2015-04-27T11:11:08Z</time>
      </trkpt>
      <trkpt lat="48.83716" lon="1.60132">
        <ele>151.06</ele>
        <time>2015-04-27T11:11:18Z</time>
      </trkpt>
      <trkpt lat="48.83726" lon="1.60116">
        <ele>150.58</ele>
        <time>2015-04-27T11:11:30Z</time>
      </trkpt>
      <trkpt lat="48.83736" lon="1.60101">
        <ele>150.1</ele>
        <time>2015-04-27T11:11:42Z</time>
      </trkpt>
      <trkpt lat="48.83747" lon="1.60085">
        <ele>150.1</ele>
        <time>2015-04-27T11:11:54Z</time>
      </trkpt>
      <trkpt lat="48.83757" lon="1.60071">
        <ele>150.1</ele>
        <time>2015-04-27T11:12:06Z</time>
      </trkpt>
      <trkpt lat="48.83765" lon="1.6006">
        <ele>150.58</ele>
        <time>2015-04-27T11:12:14Z</time>
      </trkpt>
      <trkpt lat="48.83769" lon="1.60052">
        <ele>149.14</ele>
        <time>2015-04-27T11:12:19Z</time>
      </trkpt>
      <trkpt lat="48.83778" lon="1.60039">
        <ele>147.7</ele>
        <time>2015-04-27T11:12:28Z</time>
      </trkpt>
      <trkpt lat="48.83789" lon="1.60023">
        <ele>147.22</ele>
        <time>2015-04-27T11:12:40Z</time>
      </trkpt>
      <trkpt lat="48.83802" lon="1.60005">
        <ele>146.26</ele>
        <time>2015-04-27T11:12:53Z</time>
      </trkpt>
      <trkpt lat="48.83811" lon="1.59991">
        <ele>144.82</ele>
        <time>2015-04-27T11:13:03Z</time>
      </trkpt>
      <trkpt lat="48.83816" lon="1.59984">
        <ele>146.26</ele>
        <time>2015-04-27T11:13:08Z</time>
      </trkpt>
      <trkpt lat="48.83825" lon="1.59969">
        <ele>147.22</ele>
        <time>2015-04-27T11:13:19Z</time>
      </trkpt>
      <trkpt lat="48.83827" lon="1.59965">
        <ele>145.78</ele>
        <time>2015-04-27T11:13:22Z</time>
      </trkpt>
      <trkpt lat="48.83837" lon="1.5995">
        <ele>144.82</ele>
        <time>2015-04-27T11:13:33Z</time>
      </trkpt>
      <trkpt lat="48.83845" lon="1.59935">
        <ele>144.82</ele>
        <time>2015-04-27T11:13:43Z</time>
      </trkpt>
      <trkpt lat="48.83854" lon="1.59916">
        <ele>145.78</ele>
        <time>2015-04-27T11:13:55Z</time>
      </trkpt>
      <trkpt lat="48.83863" lon="1.59896">
        <ele>145.78</ele>
        <time>2015-04-27T11:14:07Z</time>
      </trkpt>
      <trkpt lat="48.83869" lon="1.59881">
        <ele>145.78</ele>
        <time>2015-04-27T11:14:16Z</time>
      </trkpt>
      <trkpt lat="48.83875" lon="1.59858">
        <ele>146.26</ele>
        <time>2015-04-27T11:14:29Z</time>
      </trkpt>
      <trkpt lat="48.83877" lon="1.59851">
        <ele>144.34</ele>
        <time>2015-04-27T11:14:33Z</time>
      </trkpt>
      <trkpt lat="48.83882" lon="1.59836">
        <ele>145.78</ele>
        <time>2015-04-27T11:14:41Z</time>
      </trkpt>
      <trkpt lat="48.83884" lon="1.59827">
        <ele>144.34</ele>
        <time>2015-04-27T11:14:46Z</time>
      </trkpt>
      <trkpt lat="48.83886" lon="1.59819">
        <ele>145.78</ele>
        <time>2015-04-27T11:14:50Z</time>
      </trkpt>
      <trkpt lat="48.83893" lon="1.59796">
        <ele>145.78</ele>
        <time>2015-04-27T11:15:03Z</time>
      </trkpt>
      <trkpt lat="48.83899" lon="1.59772">
        <ele>146.26</ele>
        <time>2015-04-27T11:15:16Z</time>
      </trkpt>
      <trkpt lat="48.83905" lon="1.59748">
        <ele>145.78</ele>
        <time>2015-04-27T11:15:28Z</time>
      </trkpt>
      <trkpt lat="48.83911" lon="1.59724">
        <ele>145.78</ele>
        <time>2015-04-27T11:15:41Z</time>
      </trkpt>
      <trkpt lat="48.83917" lon="1.59701">
        <ele>145.78</ele>
        <time>2015-04-27T11:15:53Z</time>
      </trkpt>
      <trkpt lat="48.83923" lon="1.59679">
        <ele>145.78</ele>
        <time>2015-04-27T11:16:05Z</time>
      </trkpt>
      <trkpt lat="48.83929" lon="1.59655">
        <ele>145.78</ele>
        <time>2015-04-27T11:16:18Z</time>
      </trkpt>
      <trkpt lat="48.83934" lon="1.59635">
        <ele>145.78</ele>
        <time>2015-04-27T11:16:29Z</time>
      </trkpt>
      <trkpt lat="48.8394" lon="1.59616">
        <ele>145.78</ele>
        <time>2015-04-27T11:16:40Z</time>
      </trkpt>
      <trkpt lat="48.83942" lon="1.59602">
        <ele>145.78</ele>
        <time>2015-04-27T11:16:48Z</time>
      </trkpt>
      <trkpt lat="48.83947" lon="1.59585">
        <ele>145.78</ele>
        <time>2015-04-27T11:16:58Z</time>
      </trkpt>
      <trkpt lat="48.83949" lon="1.59568">
        <ele>145.3</ele>
        <time>2015-04-27T11:17:08Z</time>
      </trkpt>
      <trkpt lat="48.83953" lon="1.5955">
        <ele>145.78</ele>
        <time>2015-04-27T11:17:17Z</time>
      </trkpt>
      <trkpt lat="48.83957" lon="1.59531">
        <ele>144.82</ele>
        <time>2015-04-27T11:17:26Z</time>
      </trkpt>
      <trkpt lat="48.83962" lon="1.59515">
        <ele>144.82</ele>
        <time>2015-04-27T11:17:35Z</time>
      </trkpt>
      <trkpt lat="48.83965" lon="1.59496">
        <ele>144.82</ele>
        <time>2015-04-27T11:17:44Z</time>
      </trkpt>
      <trkpt lat="48.83967" lon="1.59479">
        <ele>143.85</ele>
        <time>2015-04-27T11:17:53Z</time>
      </trkpt>
      <trkpt lat="48.83971" lon="1.59462">
        <ele>143.37</ele>
        <time>2015-04-27T11:18:02Z</time>
      </trkpt>
      <trkpt lat="48.83975" lon="1.59443">
        <ele>142.89</ele>
        <time>2015-04-27T11:18:13Z</time>
      </trkpt>
      <trkpt lat="48.83979" lon="1.5942">
        <ele>142.89</ele>
        <time>2015-04-27T11:18:24Z</time>
      </trkpt>
      <trkpt lat="48.83981" lon="1.59406">
        <ele>142.89</ele>
        <time>2015-04-27T11:18:32Z</time>
      </trkpt>
      <trkpt lat="48.83986" lon="1.59386">
        <ele>142.89</ele>
        <time>2015-04-27T11:18:42Z</time>
      </trkpt>
      <trkpt lat="48.83989" lon="1.59374">
        <ele>142.41</ele>
        <time>2015-04-27T11:18:50Z</time>
      </trkpt>
      <trkpt lat="48.83991" lon="1.5936">
        <ele>141.45</ele>
        <time>2015-04-27T11:18:58Z</time>
      </trkpt>
      <trkpt lat="48.83994" lon="1.59347">
        <ele>141.45</ele>
        <time>2015-04-27T11:19:07Z</time>
      </trkpt>
      <trkpt lat="48.83996" lon="1.59335">
        <ele>141.45</ele>
        <time>2015-04-27T11:19:16Z</time>
      </trkpt>
      <trkpt lat="48.83993" lon="1.59338">
        <ele>141.45</ele>
        <time>2015-04-27T11:19:24Z</time>
      </trkpt>
      <trkpt lat="48.8399" lon="1.59342">
        <ele>141.45</ele>
        <time>2015-04-27T11:19:31Z</time>
      </trkpt>
      <trkpt lat="48.83988" lon="1.59342">
        <ele>141.45</ele>
        <time>2015-04-27T11:19:45Z</time>
      </trkpt>
      <trkpt lat="48.83983" lon="1.5936">
        <ele>140.97</ele>
        <time>2015-04-27T11:19:56Z</time>
      </trkpt>
      <trkpt lat="48.8398" lon="1.59375">
        <ele>140.97</ele>
        <time>2015-04-27T11:20:05Z</time>
      </trkpt>
      <trkpt lat="48.83978" lon="1.59386">
        <ele>140.97</ele>
        <time>2015-04-27T11:20:11Z</time>
      </trkpt>
      <trkpt lat="48.83979" lon="1.59389">
        <ele>140.97</ele>
        <time>2015-04-27T11:20:13Z</time>
      </trkpt>
      <trkpt lat="48.83985" lon="1.59393">
        <ele>141.93</ele>
        <time>2015-04-27T11:20:20Z</time>
      </trkpt>
      <trkpt lat="48.83995" lon="1.59393">
        <ele>141.93</ele>
        <time>2015-04-27T11:20:30Z</time>
      </trkpt>
      <trkpt lat="48.84006" lon="1.59398">
        <ele>141.93</ele>
        <time>2015-04-27T11:20:40Z</time>
      </trkpt>
      <trkpt lat="48.84019" lon="1.59406">
        <ele>141.93</ele>
        <time>2015-04-27T11:20:50Z</time>
      </trkpt>
      <trkpt lat="48.8403" lon="1.5941">
        <ele>141.93</ele>
        <time>2015-04-27T11:20:59Z</time>
      </trkpt>
      <trkpt lat="48.84041" lon="1.59414">
        <ele>142.41</ele>
        <time>2015-04-27T11:21:09Z</time>
      </trkpt>
      <trkpt lat="48.84046" lon="1.59419">
        <ele>142.41</ele>
        <time>2015-04-27T11:21:17Z</time>
      </trkpt>
      <trkpt lat="48.84056" lon="1.59427">
        <ele>142.41</ele>
        <time>2015-04-27T11:21:27Z</time>
      </trkpt>
      <trkpt lat="48.84066" lon="1.59432">
        <ele>142.41</ele>
        <time>2015-04-27T11:21:36Z</time>
      </trkpt>
      <trkpt lat="48.84072" lon="1.59437">
        <ele>142.41</ele>
        <time>2015-04-27T11:21:43Z</time>
      </trkpt>
      <trkpt lat="48.8408" lon="1.59443">
        <ele>142.41</ele>
        <time>2015-04-27T11:21:52Z</time>
      </trkpt>
      <trkpt lat="48.8409" lon="1.59451">
        <ele>142.41</ele>
        <time>2015-04-27T11:22:03Z</time>
      </trkpt>
      <trkpt lat="48.84097" lon="1.59454">
        <ele>142.41</ele>
        <time>2015-04-27T11:22:11Z</time>
      </trkpt>
      <trkpt lat="48.84108" lon="1.59461">
        <ele>142.41</ele>
        <time>2015-04-27T11:22:22Z</time>
      </trkpt>
      <trkpt lat="48.84117" lon="1.59463">
        <ele>142.89</ele>
        <time>2015-04-27T11:22:30Z</time>
      </trkpt>
      <trkpt lat="48.84127" lon="1.59472">
        <ele>142.89</ele>
        <time>2015-04-27T11:22:40Z</time>
      </trkpt>
      <trkpt lat="48.84134" lon="1.59475">
        <ele>142.89</ele>
        <time>2015-04-27T11:22:48Z</time>
      </trkpt>
      <trkpt lat="48.84143" lon="1.5948">
        <ele>143.37</ele>
        <time>2015-04-27T11:22:57Z</time>
      </trkpt>
      <trkpt lat="48.8415" lon="1.59481">
        <ele>143.37</ele>
        <time>2015-04-27T11:23:04Z</time>
      </trkpt>
      <trkpt lat="48.84158" lon="1.59487">
        <ele>143.37</ele>
        <time>2015-04-27T11:23:13Z</time>
      </trkpt>
      <trkpt lat="48.84167" lon="1.59494">
        <ele>143.37</ele>
        <time>2015-04-27T11:23:21Z</time>
      </trkpt>
      <trkpt lat="48.84179" lon="1.595">
        <ele>143.85</ele>
        <time>2015-04-27T11:23:31Z</time>
      </trkpt>
      <trkpt lat="48.8419" lon="1.59506">
        <ele>143.85</ele>
        <time>2015-04-27T11:23:41Z</time>
      </trkpt>
      <trkpt lat="48.84195" lon="1.5951">
        <ele>144.82</ele>
        <time>2015-04-27T11:23:50Z</time>
      </trkpt>
      <trkpt lat="48.842" lon="1.5951">
        <ele>144.82</ele>
        <time>2015-04-27T11:23:58Z</time>
      </trkpt>
      <trkpt lat="48.84202" lon="1.59509">
        <ele>143.85</ele>
        <time>2015-04-27T11:24:12Z</time>
      </trkpt>
      <trkpt lat="48.84202" lon="1.59511">
        <ele>143.85</ele>
        <time>2015-04-27T11:24:18Z</time>
      </trkpt>
      <trkpt lat="48.84202" lon="1.5951">
        <ele>144.82</ele>
        <time>2015-04-27T11:24:25Z</time>
      </trkpt>
      <trkpt lat="48.84204" lon="1.59509">
        <ele>144.82</ele>
        <time>2015-04-27T11:24:37Z</time>
      </trkpt>
      <trkpt lat="48.84205" lon="1.59506">
        <ele>144.82</ele>
        <time>2015-04-27T11:24:54Z</time>
      </trkpt>
      <trkpt lat="48.84209" lon="1.595">
        <ele>145.3</ele>
        <time>2015-04-27T11:25:18Z</time>
      </trkpt>
      <trkpt lat="48.84213" lon="1.59502">
        <ele>145.3</ele>
        <time>2015-04-27T11:25:38Z</time>
      </trkpt>
      <trkpt lat="48.84213" lon="1.595">
        <ele>145.3</ele>
        <time>2015-04-27T11:25:51Z</time>
      </trkpt>
      <trkpt lat="48.84205" lon="1.59498">
        <ele>145.3</ele>
        <time>2015-04-27T11:26:11Z</time>
      </trkpt>
      <trkpt lat="48.84196" lon="1.595">
        <ele>145.78</ele>
        <time>2015-04-27T11:26:31Z</time>
      </trkpt>
      <trkpt lat="48.84199" lon="1.59503">
        <ele>142.89</ele>
        <time>2015-04-27T11:26:36Z</time>
      </trkpt>
      <trkpt lat="48.842" lon="1.59503">
        <ele>146.74</ele>
        <time>2015-04-27T11:26:37Z</time>
      </trkpt>
      <trkpt lat="48.84204" lon="1.59507">
        <ele>145.3</ele>
        <time>2015-04-27T11:26:46Z</time>
      </trkpt>
      <trkpt lat="48.84209" lon="1.59511">
        <ele>145.3</ele>
        <time>2015-04-27T11:27:07Z</time>
      </trkpt>
      <trkpt lat="48.84209" lon="1.59512">
        <ele>146.26</ele>
        <time>2015-04-27T11:27:15Z</time>
      </trkpt>
      <trkpt lat="48.84206" lon="1.59513">
        <ele>146.26</ele>
        <time>2015-04-27T11:27:25Z</time>
      </trkpt>
      <trkpt lat="48.84204" lon="1.59514">
        <ele>145.78</ele>
        <time>2015-04-27T11:27:39Z</time>
      </trkpt>
      <trkpt lat="48.84207" lon="1.59519">
        <ele>145.78</ele>
        <time>2015-04-27T11:27:51Z</time>
      </trkpt>
      <trkpt lat="48.84214" lon="1.59524">
        <ele>145.78</ele>
        <time>2015-04-27T11:28:00Z</time>
      </trkpt>
      <trkpt lat="48.84225" lon="1.59533">
        <ele>146.26</ele>
        <time>2015-04-27T11:28:12Z</time>
      </trkpt>
      <trkpt lat="48.84234" lon="1.5954">
        <ele>146.26</ele>
        <time>2015-04-27T11:28:21Z</time>
      </trkpt>
      <trkpt lat="48.8425" lon="1.59546">
        <ele>146.26</ele>
        <time>2015-04-27T11:28:33Z</time>
      </trkpt>
      <trkpt lat="48.8426" lon="1.59549">
        <ele>146.74</ele>
        <time>2015-04-27T11:28:42Z</time>
      </trkpt>
      <trkpt lat="48.8427" lon="1.59552">
        <ele>146.74</ele>
        <time>2015-04-27T11:28:51Z</time>
      </trkpt>
      <trkpt lat="48.84281" lon="1.59556">
        <ele>146.74</ele>
        <time>2015-04-27T11:29:02Z</time>
      </trkpt>
      <trkpt lat="48.84288" lon="1.59561">
        <ele>147.7</ele>
        <time>2015-04-27T11:29:11Z</time>
      </trkpt>
      <trkpt lat="48.84298" lon="1.59568">
        <ele>147.7</ele>
        <time>2015-04-27T11:29:22Z</time>
      </trkpt>
      <trkpt lat="48.84307" lon="1.5957">
        <ele>147.7</ele>
        <time>2015-04-27T11:29:30Z</time>
      </trkpt>
      <trkpt lat="48.8432" lon="1.59573">
        <ele>147.7</ele>
        <time>2015-04-27T11:29:40Z</time>
      </trkpt>
      <trkpt lat="48.84334" lon="1.59571">
        <ele>148.18</ele>
        <time>2015-04-27T11:29:51Z</time>
      </trkpt>
      <trkpt lat="48.84346" lon="1.59571">
        <ele>148.18</ele>
        <time>2015-04-27T11:30:01Z</time>
      </trkpt>
      <trkpt lat="48.84359" lon="1.59568">
        <ele>148.66</ele>
        <time>2015-04-27T11:30:12Z</time>
      </trkpt>
      <trkpt lat="48.84364" lon="1.59569">
        <ele>148.66</ele>
        <time>2015-04-27T11:30:16Z</time>
      </trkpt>
      <trkpt lat="48.84376" lon="1.59567">
        <ele>149.62</ele>
        <time>2015-04-27T11:30:26Z</time>
      </trkpt>
      <trkpt lat="48.84386" lon="1.59568">
        <ele>149.62</ele>
        <time>2015-04-27T11:30:35Z</time>
      </trkpt>
      <trkpt lat="48.84396" lon="1.59569">
        <ele>150.1</ele>
        <time>2015-04-27T11:30:45Z</time>
      </trkpt>
      <trkpt lat="48.84407" lon="1.59568">
        <ele>151.54</ele>
        <time>2015-04-27T11:30:55Z</time>
      </trkpt>
      <trkpt lat="48.84414" lon="1.59567">
        <ele>151.54</ele>
        <time>2015-04-27T11:31:02Z</time>
      </trkpt>
      <trkpt lat="48.84417" lon="1.59567">
        <ele>151.54</ele>
        <time>2015-04-27T11:31:10Z</time>
      </trkpt>
      <trkpt lat="48.84418" lon="1.59566">
        <ele>151.54</ele>
        <time>2015-04-27T11:31:17Z</time>
      </trkpt>
      <trkpt lat="48.84425" lon="1.59562">
        <ele>152.03</ele>
        <time>2015-04-27T11:31:26Z</time>
      </trkpt>
      <trkpt lat="48.84435" lon="1.59557">
        <ele>152.03</ele>
        <time>2015-04-27T11:31:36Z</time>
      </trkpt>
      <trkpt lat="48.84444" lon="1.59557">
        <ele>152.03</ele>
        <time>2015-04-27T11:31:45Z</time>
      </trkpt>
      <trkpt lat="48.84452" lon="1.59555">
        <ele>152.51</ele>
        <time>2015-04-27T11:31:56Z</time>
      </trkpt>
      <trkpt lat="48.84461" lon="1.59556">
        <ele>152.51</ele>
        <time>2015-04-27T11:32:05Z</time>
      </trkpt>
      <trkpt lat="48.84472" lon="1.59555">
        <ele>153.95</ele>
        <time>2015-04-27T11:32:15Z</time>
      </trkpt>
      <trkpt lat="48.8448" lon="1.59555">
        <ele>153.95</ele>
        <time>2015-04-27T11:32:23Z</time>
      </trkpt>
      <trkpt lat="48.8449" lon="1.59555">
        <ele>154.43</ele>
        <time>2015-04-27T11:32:33Z</time>
      </trkpt>
      <trkpt lat="48.84502" lon="1.59552">
        <ele>154.91</ele>
        <time>2015-04-27T11:32:43Z</time>
      </trkpt>
      <trkpt lat="48.84509" lon="1.5955">
        <ele>154.91</ele>
        <time>2015-04-27T11:32:52Z</time>
      </trkpt>
      <trkpt lat="48.84522" lon="1.59548">
        <ele>154.91</ele>
        <time>2015-04-27T11:33:03Z</time>
      </trkpt>
      <trkpt lat="48.84534" lon="1.59546">
        <ele>155.39</ele>
        <time>2015-04-27T11:33:14Z</time>
      </trkpt>
      <trkpt lat="48.84547" lon="1.59541">
        <ele>155.39</ele>
        <time>2015-04-27T11:33:26Z</time>
      </trkpt>
      <trkpt lat="48.84558" lon="1.59535">
        <ele>155.87</ele>
        <time>2015-04-27T11:33:34Z</time>
      </trkpt>
      <trkpt lat="48.84567" lon="1.59533">
        <ele>155.87</ele>
        <time>2015-04-27T11:33:43Z</time>
      </trkpt>
      <trkpt lat="48.84575" lon="1.59529">
        <ele>155.87</ele>
        <time>2015-04-27T11:33:50Z</time>
      </trkpt>
      <trkpt lat="48.84587" lon="1.59522">
        <ele>156.83</ele>
        <time>2015-04-27T11:33:59Z</time>
      </trkpt>
      <trkpt lat="48.84598" lon="1.59519">
        <ele>157.31</ele>
        <time>2015-04-27T11:34:08Z</time>
      </trkpt>
      <trkpt lat="48.84607" lon="1.59515">
        <ele>155.87</ele>
        <time>2015-04-27T11:34:18Z</time>
      </trkpt>
      <trkpt lat="48.84608" lon="1.59514">
        <ele>155.87</ele>
        <time>2015-04-27T11:34:19Z</time>
      </trkpt>
      <trkpt lat="48.84617" lon="1.59508">
        <ele>154.91</ele>
        <time>2015-04-27T11:34:29Z</time>
      </trkpt>
      <trkpt lat="48.8462" lon="1.59504">
        <ele>157.79</ele>
        <time>2015-04-27T11:34:36Z</time>
      </trkpt>
      <trkpt lat="48.84622" lon="1.59505">
        <ele>156.83</ele>
        <time>2015-04-27T11:34:45Z</time>
      </trkpt>
      <trkpt lat="48.84625" lon="1.59504">
        <ele>156.35</ele>
        <time>2015-04-27T11:35:00Z</time>
      </trkpt>
      <trkpt lat="48.84633" lon="1.59501">
        <ele>156.35</ele>
        <time>2015-04-27T11:35:08Z</time>
      </trkpt>
      <trkpt lat="48.84644" lon="1.59496">
        <ele>156.35</ele>
        <time>2015-04-27T11:35:17Z</time>
      </trkpt>
      <trkpt lat="48.84653" lon="1.59491">
        <ele>154.43</ele>
        <time>2015-04-27T11:35:25Z</time>
      </trkpt>
      <trkpt lat="48.84662" lon="1.59487">
        <ele>154.91</ele>
        <time>2015-04-27T11:35:33Z</time>
      </trkpt>
      <trkpt lat="48.84672" lon="1.59482">
        <ele>155.39</ele>
        <time>2015-04-27T11:35:42Z</time>
      </trkpt>
      <trkpt lat="48.84685" lon="1.59477">
        <ele>153.95</ele>
        <time>2015-04-27T11:35:53Z</time>
      </trkpt>
      <trkpt lat="48.84698" lon="1.59475">
        <ele>153.95</ele>
        <time>2015-04-27T11:36:03Z</time>
      </trkpt>
      <trkpt lat="48.84701" lon="1.59474">
        <ele>155.39</ele>
        <time>2015-04-27T11:36:06Z</time>
      </trkpt>
      <trkpt lat="48.84706" lon="1.59474">
        <ele>154.43</ele>
        <time>2015-04-27T11:36:10Z</time>
      </trkpt>
      <trkpt lat="48.84721" lon="1.59473">
        <ele>153.95</ele>
        <time>2015-04-27T11:36:22Z</time>
      </trkpt>
      <trkpt lat="48.84732" lon="1.59473">
        <ele>153.47</ele>
        <time>2015-04-27T11:36:31Z</time>
      </trkpt>
      <trkpt lat="48.84744" lon="1.59473">
        <ele>153.47</ele>
        <time>2015-04-27T11:36:41Z</time>
      </trkpt>
      <trkpt lat="48.84754" lon="1.59474">
        <ele>153.47</ele>
        <time>2015-04-27T11:36:49Z</time>
      </trkpt>
      <trkpt lat="48.84766" lon="1.59474">
        <ele>152.99</ele>
        <time>2015-04-27T11:37:00Z</time>
      </trkpt>
      <trkpt lat="48.84775" lon="1.59472">
        <ele>152.99</ele>
        <time>2015-04-27T11:37:09Z</time>
      </trkpt>
      <trkpt lat="48.84777" lon="1.5947">
        <ele>152.99</ele>
        <time>2015-04-27T11:37:19Z</time>
      </trkpt>
      <trkpt lat="48.84782" lon="1.59473">
        <ele>152.99</ele>
        <time>2015-04-27T11:37:27Z</time>
      </trkpt>
      <trkpt lat="48.84784" lon="1.59474">
        <ele>152.51</ele>
        <time>2015-04-27T11:37:29Z</time>
      </trkpt>
      <trkpt lat="48.84797" lon="1.59477">
        <ele>152.51</ele>
        <time>2015-04-27T11:37:41Z</time>
      </trkpt>
      <trkpt lat="48.84812" lon="1.59482">
        <ele>151.06</ele>
        <time>2015-04-27T11:37:53Z</time>
      </trkpt>
      <trkpt lat="48.84821" lon="1.59486">
        <ele>151.54</ele>
        <time>2015-04-27T11:38:01Z</time>
      </trkpt>
      <trkpt lat="48.8483" lon="1.5949">
        <ele>150.58</ele>
        <time>2015-04-27T11:38:11Z</time>
      </trkpt>
      <trkpt lat="48.84836" lon="1.59493">
        <ele>150.58</ele>
        <time>2015-04-27T11:38:18Z</time>
      </trkpt>
      <trkpt lat="48.84838" lon="1.59489">
        <ele>150.58</ele>
        <time>2015-04-27T11:38:30Z</time>
      </trkpt>
      <trkpt lat="48.8484" lon="1.59482">
        <ele>149.62</ele>
        <time>2015-04-27T11:38:37Z</time>
      </trkpt>
      <trkpt lat="48.8484" lon="1.59477">
        <ele>149.14</ele>
        <time>2015-04-27T11:38:41Z</time>
      </trkpt>
      <trkpt lat="48.84843" lon="1.59468">
        <ele>150.58</ele>
        <time>2015-04-27T11:38:47Z</time>
      </trkpt>
      <trkpt lat="48.84842" lon="1.59452">
        <ele>150.58</ele>
        <time>2015-04-27T11:38:56Z</time>
      </trkpt>
      <trkpt lat="48.84838" lon="1.59441">
        <ele>150.58</ele>
        <time>2015-04-27T11:39:04Z</time>
      </trkpt>
      <trkpt lat="48.84835" lon="1.59432">
        <ele>149.14</ele>
        <time>2015-04-27T11:39:11Z</time>
      </trkpt>
      <trkpt lat="48.84833" lon="1.59416">
        <ele>149.14</ele>
        <time>2015-04-27T11:39:20Z</time>
      </trkpt>
      <trkpt lat="48.84833" lon="1.59397">
        <ele>149.14</ele>
        <time>2015-04-27T11:39:31Z</time>
      </trkpt>
      <trkpt lat="48.84833" lon="1.59395">
        <ele>149.14</ele>
        <time>2015-04-27T11:39:35Z</time>
      </trkpt>
      <trkpt lat="48.84841" lon="1.5938">
        <ele>148.66</ele>
        <time>2015-04-27T11:39:46Z</time>
      </trkpt>
      <trkpt lat="48.84847" lon="1.5937">
        <ele>148.18</ele>
        <time>2015-04-27T11:39:54Z</time>
      </trkpt>
      <trkpt lat="48.84855" lon="1.59354">
        <ele>148.18</ele>
        <time>2015-04-27T11:40:04Z</time>
      </trkpt>
      <trkpt lat="48.84863" lon="1.59339">
        <ele>147.22</ele>
        <time>2015-04-27T11:40:14Z</time>
      </trkpt>
      <trkpt lat="48.84871" lon="1.59325">
        <ele>147.22</ele>
        <time>2015-04-27T11:40:24Z</time>
      </trkpt>
      <trkpt lat="48.84879" lon="1.59311">
        <ele>146.26</ele>
        <time>2015-04-27T11:40:34Z</time>
      </trkpt>
      <trkpt lat="48.84885" lon="1.59303">
        <ele>145.3</ele>
        <time>2015-04-27T11:40:43Z</time>
      </trkpt>
      <trkpt lat="48.8489" lon="1.59295">
        <ele>145.3</ele>
        <time>2015-04-27T11:40:51Z</time>
      </trkpt>
      <trkpt lat="48.84894" lon="1.59291">
        <ele>145.3</ele>
        <time>2015-04-27T11:41:00Z</time>
      </trkpt>
      <trkpt lat="48.84898" lon="1.59283">
        <ele>144.82</ele>
        <time>2015-04-27T11:41:08Z</time>
      </trkpt>
      <trkpt lat="48.84905" lon="1.59272">
        <ele>144.82</ele>
        <time>2015-04-27T11:41:18Z</time>
      </trkpt>
      <trkpt lat="48.84911" lon="1.59263">
        <ele>144.82</ele>
        <time>2015-04-27T11:41:26Z</time>
      </trkpt>
      <trkpt lat="48.84918" lon="1.59251">
        <ele>144.82</ele>
        <time>2015-04-27T11:41:35Z</time>
      </trkpt>
      <trkpt lat="48.84925" lon="1.59237">
        <ele>144.82</ele>
        <time>2015-04-27T11:41:46Z</time>
      </trkpt>
      <trkpt lat="48.84934" lon="1.59222">
        <ele>144.82</ele>
        <time>2015-04-27T11:41:57Z</time>
      </trkpt>
      <trkpt lat="48.84943" lon="1.59207">
        <ele>144.82</ele>
        <time>2015-04-27T11:42:08Z</time>
      </trkpt>
      <trkpt lat="48.8495" lon="1.59194">
        <ele>144.34</ele>
        <time>2015-04-27T11:42:18Z</time>
      </trkpt>
      <trkpt lat="48.84955" lon="1.59188">
        <ele>146.26</ele>
        <time>2015-04-27T11:42:24Z</time>
      </trkpt>
      <trkpt lat="48.84956" lon="1.59187">
        <ele>146.26</ele>
        <time>2015-04-27T11:42:25Z</time>
      </trkpt>
      <trkpt lat="48.84963" lon="1.59175">
        <ele>146.26</ele>
        <time>2015-04-27T11:42:34Z</time>
      </trkpt>
      <trkpt lat="48.84964" lon="1.59174">
        <ele>146.26</ele>
        <time>2015-04-27T11:42:35Z</time>
      </trkpt>
      <trkpt lat="48.84972" lon="1.59161">
        <ele>145.3</ele>
        <time>2015-04-27T11:42:44Z</time>
      </trkpt>
      <trkpt lat="48.84977" lon="1.59153">
        <ele>146.26</ele>
        <time>2015-04-27T11:42:51Z</time>
      </trkpt>
      <trkpt lat="48.8498" lon="1.5915">
        <ele>146.26</ele>
        <time>2015-04-27T11:42:58Z</time>
      </trkpt>
      <trkpt lat="48.84988" lon="1.59139">
        <ele>145.78</ele>
        <time>2015-04-27T11:43:08Z</time>
      </trkpt>
      <trkpt lat="48.84993" lon="1.59133">
        <ele>145.78</ele>
        <time>2015-04-27T11:43:13Z</time>
      </trkpt>
      <trkpt lat="48.85002" lon="1.59119">
        <ele>145.78</ele>
        <time>2015-04-27T11:43:23Z</time>
      </trkpt>
      <trkpt lat="48.85009" lon="1.5911">
        <ele>145.78</ele>
        <time>2015-04-27T11:43:31Z</time>
      </trkpt>
      <trkpt lat="48.85014" lon="1.591">
        <ele>145.78</ele>
        <time>2015-04-27T11:43:39Z</time>
      </trkpt>
      <trkpt lat="48.85017" lon="1.59095">
        <ele>144.82</ele>
        <time>2015-04-27T11:43:42Z</time>
      </trkpt>
      <trkpt lat="48.85024" lon="1.59083">
        <ele>144.82</ele>
        <time>2015-04-27T11:43:51Z</time>
      </trkpt>
      <trkpt lat="48.85034" lon="1.59067">
        <ele>144.82</ele>
        <time>2015-04-27T11:44:03Z</time>
      </trkpt>
      <trkpt lat="48.85043" lon="1.59053">
        <ele>144.82</ele>
        <time>2015-04-27T11:44:14Z</time>
      </trkpt>
      <trkpt lat="48.85051" lon="1.59042">
        <ele>144.34</ele>
        <time>2015-04-27T11:44:23Z</time>
      </trkpt>
      <trkpt lat="48.85055" lon="1.59035">
        <ele>144.34</ele>
        <time>2015-04-27T11:44:29Z</time>
      </trkpt>
      <trkpt lat="48.85062" lon="1.59023">
        <ele>144.34</ele>
        <time>2015-04-27T11:44:38Z</time>
      </trkpt>
      <trkpt lat="48.85066" lon="1.59017">
        <ele>145.78</ele>
        <time>2015-04-27T11:44:43Z</time>
      </trkpt>
      <trkpt lat="48.85073" lon="1.59006">
        <ele>146.26</ele>
        <time>2015-04-27T11:44:52Z</time>
      </trkpt>
      <trkpt lat="48.85077" lon="1.59002">
        <ele>146.26</ele>
        <time>2015-04-27T11:44:56Z</time>
      </trkpt>
      <trkpt lat="48.85077" lon="1.58999">
        <ele>146.74</ele>
        <time>2015-04-27T11:45:03Z</time>
      </trkpt>
      <trkpt lat="48.85079" lon="1.58997">
        <ele>146.74</ele>
        <time>2015-04-27T11:45:09Z</time>
      </trkpt>
      <trkpt lat="48.85087" lon="1.5899">
        <ele>146.74</ele>
        <time>2015-04-27T11:45:17Z</time>
      </trkpt>
      <trkpt lat="48.85086" lon="1.5898">
        <ele>147.7</ele>
        <time>2015-04-27T11:45:26Z</time>
      </trkpt>
      <trkpt lat="48.85084" lon="1.5898">
        <ele>147.7</ele>
        <time>2015-04-27T11:45:39Z</time>
      </trkpt>
      <trkpt lat="48.85082" lon="1.58979">
        <ele>147.7</ele>
        <time>2015-04-27T11:45:47Z</time>
      </trkpt>
      <trkpt lat="48.85081" lon="1.58982">
        <ele>147.7</ele>
        <time>2015-04-27T11:45:58Z</time>
      </trkpt>
      <trkpt lat="48.85081" lon="1.58982">
        <ele>147.7</ele>
        <time>2015-04-27T11:46:19Z</time>
      </trkpt>
      <trkpt lat="48.8508" lon="1.58982">
        <ele>147.7</ele>
        <time>2015-04-27T11:46:32Z</time>
      </trkpt>
      <trkpt lat="48.85081" lon="1.58983">
        <ele>147.22</ele>
        <time>2015-04-27T11:46:50Z</time>
      </trkpt>
      <trkpt lat="48.85082" lon="1.58984">
        <ele>147.22</ele>
        <time>2015-04-27T11:47:12Z</time>
      </trkpt>
      <trkpt lat="48.85082" lon="1.58982">
        <ele>147.22</ele>
        <time>2015-04-27T11:47:20Z</time>
      </trkpt>
      <trkpt lat="48.85081" lon="1.58979">
        <ele>147.22</ele>
        <time>2015-04-27T11:47:28Z</time>
      </trkpt>
      <trkpt lat="48.8508" lon="1.58972">
        <ele>147.22</ele>
        <time>2015-04-27T11:47:33Z</time>
      </trkpt>
      <trkpt lat="48.85079" lon="1.5897">
        <ele>147.22</ele>
        <time>2015-04-27T11:47:35Z</time>
      </trkpt>
      <trkpt lat="48.85072" lon="1.5896">
        <ele>147.22</ele>
        <time>2015-04-27T11:47:44Z</time>
      </trkpt>
      <trkpt lat="48.85065" lon="1.58948">
        <ele>148.18</ele>
        <time>2015-04-27T11:47:54Z</time>
      </trkpt>
      <trkpt lat="48.85059" lon="1.58938">
        <ele>148.18</ele>
        <time>2015-04-27T11:48:02Z</time>
      </trkpt>
      <trkpt lat="48.85059" lon="1.58935">
        <ele>148.18</ele>
        <time>2015-04-27T11:48:08Z</time>
      </trkpt>
      <trkpt lat="48.85054" lon="1.58928">
        <ele>148.18</ele>
        <time>2015-04-27T11:48:15Z</time>
      </trkpt>
      <trkpt lat="48.8505" lon="1.5892">
        <ele>146.74</ele>
        <time>2015-04-27T11:48:21Z</time>
      </trkpt>
      <trkpt lat="48.85045" lon="1.58911">
        <ele>148.18</ele>
        <time>2015-04-27T11:48:28Z</time>
      </trkpt>
      <trkpt lat="48.85039" lon="1.58899">
        <ele>148.18</ele>
        <time>2015-04-27T11:48:37Z</time>
      </trkpt>
      <trkpt lat="48.85029" lon="1.58883">
        <ele>148.18</ele>
        <time>2015-04-27T11:48:49Z</time>
      </trkpt>
      <trkpt lat="48.85022" lon="1.5887">
        <ele>148.18</ele>
        <time>2015-04-27T11:48:59Z</time>
      </trkpt>
      <trkpt lat="48.85014" lon="1.58856">
        <ele>148.18</ele>
        <time>2015-04-27T11:49:09Z</time>
      </trkpt>
      <trkpt lat="48.85007" lon="1.58843">
        <ele>147.22</ele>
        <time>2015-04-27T11:49:19Z</time>
      </trkpt>
      <trkpt lat="48.84999" lon="1.5883">
        <ele>147.22</ele>
        <time>2015-04-27T11:49:29Z</time>
      </trkpt>
      <trkpt lat="48.84992" lon="1.58816">
        <ele>146.74</ele>
        <time>2015-04-27T11:49:40Z</time>
      </trkpt>
      <trkpt lat="48.84985" lon="1.58807">
        <ele>146.74</ele>
        <time>2015-04-27T11:49:48Z</time>
      </trkpt>
      <trkpt lat="48.84976" lon="1.58794">
        <ele>146.74</ele>
        <time>2015-04-27T11:49:59Z</time>
      </trkpt>
      <trkpt lat="48.84974" lon="1.5879">
        <ele>146.74</ele>
        <time>2015-04-27T11:50:02Z</time>
      </trkpt>
      <trkpt lat="48.84966" lon="1.58775">
        <ele>148.18</ele>
        <time>2015-04-27T11:50:13Z</time>
      </trkpt>
      <trkpt lat="48.84957" lon="1.58766">
        <ele>148.18</ele>
        <time>2015-04-27T11:50:22Z</time>
      </trkpt>
      <trkpt lat="48.84953" lon="1.58757">
        <ele>148.18</ele>
        <time>2015-04-27T11:50:30Z</time>
      </trkpt>
      <trkpt lat="48.84952" lon="1.58757">
        <ele>149.14</ele>
        <time>2015-04-27T11:50:37Z</time>
      </trkpt>
      <trkpt lat="48.84952" lon="1.58757">
        <ele>147.7</ele>
        <time>2015-04-27T11:50:39Z</time>
      </trkpt>
      <trkpt lat="48.84953" lon="1.58755">
        <ele>147.22</ele>
        <time>2015-04-27T11:50:52Z</time>
      </trkpt>
      <trkpt lat="48.84958" lon="1.58748">
        <ele>144.34</ele>
        <time>2015-04-27T11:51:00Z</time>
      </trkpt>
      <trkpt lat="48.84958" lon="1.58747">
        <ele>150.58</ele>
        <time>2015-04-27T11:51:01Z</time>
      </trkpt>
      <trkpt lat="48.8496" lon="1.58745">
        <ele>147.22</ele>
        <time>2015-04-27T11:51:04Z</time>
      </trkpt>
      <trkpt lat="48.84963" lon="1.58739">
        <ele>147.22</ele>
        <time>2015-04-27T11:51:11Z</time>
      </trkpt>
      <trkpt lat="48.84968" lon="1.58732">
        <ele>147.22</ele>
        <time>2015-04-27T11:51:20Z</time>
      </trkpt>
      <trkpt lat="48.84972" lon="1.58725">
        <ele>147.7</ele>
        <time>2015-04-27T11:51:28Z</time>
      </trkpt>
      <trkpt lat="48.84972" lon="1.58724">
        <ele>147.22</ele>
        <time>2015-04-27T11:51:29Z</time>
      </trkpt>
      <trkpt lat="48.84979" lon="1.58711">
        <ele>148.18</ele>
        <time>2015-04-27T11:51:39Z</time>
      </trkpt>
      <trkpt lat="48.84986" lon="1.587">
        <ele>148.18</ele>
        <time>2015-04-27T11:51:48Z</time>
      </trkpt>
      <trkpt lat="48.84994" lon="1.58688">
        <ele>148.66</ele>
        <time>2015-04-27T11:51:58Z</time>
      </trkpt>
      <trkpt lat="48.85" lon="1.58676">
        <ele>148.66</ele>
        <time>2015-04-27T11:52:07Z</time>
      </trkpt>
      <trkpt lat="48.85004" lon="1.58671">
        <ele>149.14</ele>
        <time>2015-04-27T11:52:12Z</time>
      </trkpt>
      <trkpt lat="48.85012" lon="1.58659">
        <ele>149.14</ele>
        <time>2015-04-27T11:52:23Z</time>
      </trkpt>
      <trkpt lat="48.85019" lon="1.58648">
        <ele>149.14</ele>
        <time>2015-04-27T11:52:32Z</time>
      </trkpt>
      <trkpt lat="48.85027" lon="1.58634">
        <ele>149.14</ele>
        <time>2015-04-27T11:52:43Z</time>
      </trkpt>
      <trkpt lat="48.85032" lon="1.58622">
        <ele>149.62</ele>
        <time>2015-04-27T11:52:52Z</time>
      </trkpt>
      <trkpt lat="48.85039" lon="1.5861">
        <ele>150.58</ele>
        <time>2015-04-27T11:53:01Z</time>
      </trkpt>
      <trkpt lat="48.85044" lon="1.58601">
        <ele>150.1</ele>
        <time>2015-04-27T11:53:08Z</time>
      </trkpt>
      <trkpt lat="48.85053" lon="1.58586">
        <ele>150.1</ele>
        <time>2015-04-27T11:53:19Z</time>
      </trkpt>
      <trkpt lat="48.85061" lon="1.58572">
        <ele>150.1</ele>
        <time>2015-04-27T11:53:30Z</time>
      </trkpt>
      <trkpt lat="48.85066" lon="1.58561">
        <ele>150.1</ele>
        <time>2015-04-27T11:53:38Z</time>
      </trkpt>
      <trkpt lat="48.85072" lon="1.58551">
        <ele>151.06</ele>
        <time>2015-04-27T11:53:46Z</time>
      </trkpt>
      <trkpt lat="48.85075" lon="1.5854">
        <ele>151.06</ele>
        <time>2015-04-27T11:53:54Z</time>
      </trkpt>
      <trkpt lat="48.85082" lon="1.58528">
        <ele>151.06</ele>
        <time>2015-04-27T11:54:03Z</time>
      </trkpt>
      <trkpt lat="48.85088" lon="1.58514">
        <ele>151.06</ele>
        <time>2015-04-27T11:54:12Z</time>
      </trkpt>
      <trkpt lat="48.85096" lon="1.58499">
        <ele>151.54</ele>
        <time>2015-04-27T11:54:22Z</time>
      </trkpt>
      <trkpt lat="48.85104" lon="1.58484">
        <ele>150.1</ele>
        <time>2015-04-27T11:54:32Z</time>
      </trkpt>
      <trkpt lat="48.85112" lon="1.58471">
        <ele>149.14</ele>
        <time>2015-04-27T11:54:41Z</time>
      </trkpt>
      <trkpt lat="48.85114" lon="1.58468">
        <ele>150.58</ele>
        <time>2015-04-27T11:54:43Z</time>
      </trkpt>
      <trkpt lat="48.85115" lon="1.58464">
        <ele>150.58</ele>
        <time>2015-04-27T11:54:45Z</time>
      </trkpt>
      <trkpt lat="48.85119" lon="1.58459">
        <ele>151.06</ele>
        <time>2015-04-27T11:54:49Z</time>
      </trkpt>
      <trkpt lat="48.85128" lon="1.58446">
        <ele>151.06</ele>
        <time>2015-04-27T11:54:59Z</time>
      </trkpt>
      <trkpt lat="48.85136" lon="1.58429">
        <ele>151.06</ele>
        <time>2015-04-27T11:55:10Z</time>
      </trkpt>
      <trkpt lat="48.85144" lon="1.58415">
        <ele>151.06</ele>
        <time>2015-04-27T11:55:20Z</time>
      </trkpt>
      <trkpt lat="48.85152" lon="1.584">
        <ele>151.06</ele>
        <time>2015-04-27T11:55:31Z</time>
      </trkpt>
      <trkpt lat="48.8516" lon="1.58385">
        <ele>151.06</ele>
        <time>2015-04-27T11:55:42Z</time>
      </trkpt>
      <trkpt lat="48.85169" lon="1.58371">
        <ele>151.54</ele>
        <time>2015-04-27T11:55:53Z</time>
      </trkpt>
      <trkpt lat="48.8517" lon="1.58367">
        <ele>150.1</ele>
        <time>2015-04-27T11:55:56Z</time>
      </trkpt>
      <trkpt lat="48.85171" lon="1.58354">
        <ele>152.03</ele>
        <time>2015-04-27T11:56:04Z</time>
      </trkpt>
      <trkpt lat="48.85163" lon="1.58341">
        <ele>151.54</ele>
        <time>2015-04-27T11:56:14Z</time>
      </trkpt>
      <trkpt lat="48.85156" lon="1.58331">
        <ele>151.54</ele>
        <time>2015-04-27T11:56:22Z</time>
      </trkpt>
      <trkpt lat="48.85155" lon="1.58329">
        <ele>151.54</ele>
        <time>2015-04-27T11:56:24Z</time>
      </trkpt>
      <trkpt lat="48.85149" lon="1.5832">
        <ele>151.54</ele>
        <time>2015-04-27T11:56:31Z</time>
      </trkpt>
      <trkpt lat="48.85141" lon="1.58303">
        <ele>151.54</ele>
        <time>2015-04-27T11:56:43Z</time>
      </trkpt>
      <trkpt lat="48.85135" lon="1.58289">
        <ele>151.54</ele>
        <time>2015-04-27T11:56:52Z</time>
      </trkpt>
      <trkpt lat="48.85128" lon="1.58274">
        <ele>151.54</ele>
        <time>2015-04-27T11:57:02Z</time>
      </trkpt>
      <trkpt lat="48.85123" lon="1.58261">
        <ele>151.54</ele>
        <time>2015-04-27T11:57:11Z</time>
      </trkpt>
      <trkpt lat="48.85117" lon="1.58247">
        <ele>151.54</ele>
        <time>2015-04-27T11:57:20Z</time>
      </trkpt>
      <trkpt lat="48.85113" lon="1.58232">
        <ele>151.54</ele>
        <time>2015-04-27T11:57:29Z</time>
      </trkpt>
      <trkpt lat="48.85109" lon="1.5822">
        <ele>151.54</ele>
        <time>2015-04-27T11:57:38Z</time>
      </trkpt>
      <trkpt lat="48.85106" lon="1.58208">
        <ele>149.62</ele>
        <time>2015-04-27T11:57:47Z</time>
      </trkpt>
      <trkpt lat="48.85102" lon="1.58195">
        <ele>149.14</ele>
        <time>2015-04-27T11:57:56Z</time>
      </trkpt>
      <trkpt lat="48.85098" lon="1.58181">
        <ele>148.66</ele>
        <time>2015-04-27T11:58:06Z</time>
      </trkpt>
      <trkpt lat="48.85094" lon="1.58167">
        <ele>148.18</ele>
        <time>2015-04-27T11:58:17Z</time>
      </trkpt>
      <trkpt lat="48.85092" lon="1.58152">
        <ele>148.18</ele>
        <time>2015-04-27T11:58:26Z</time>
      </trkpt>
      <trkpt lat="48.85087" lon="1.58133">
        <ele>147.22</ele>
        <time>2015-04-27T11:58:35Z</time>
      </trkpt>
      <trkpt lat="48.85083" lon="1.58115">
        <ele>146.74</ele>
        <time>2015-04-27T11:58:44Z</time>
      </trkpt>
      <trkpt lat="48.85081" lon="1.58107">
        <ele>148.18</ele>
        <time>2015-04-27T11:58:49Z</time>
      </trkpt>
      <trkpt lat="48.8508" lon="1.58099">
        <ele>146.26</ele>
        <time>2015-04-27T11:58:53Z</time>
      </trkpt>
      <trkpt lat="48.85077" lon="1.58085">
        <ele>146.26</ele>
        <time>2015-04-27T11:59:02Z</time>
      </trkpt>
      <trkpt lat="48.85075" lon="1.58068">
        <ele>145.78</ele>
        <time>2015-04-27T11:59:12Z</time>
      </trkpt>
      <trkpt lat="48.85072" lon="1.5805">
        <ele>145.3</ele>
        <time>2015-04-27T11:59:22Z</time>
      </trkpt>
      <trkpt lat="48.8507" lon="1.58031">
        <ele>144.82</ele>
        <time>2015-04-27T11:59:33Z</time>
      </trkpt>
      <trkpt lat="48.85067" lon="1.58013">
        <ele>144.82</ele>
        <time>2015-04-27T11:59:44Z</time>
      </trkpt>
      <trkpt lat="48.85065" lon="1.57999">
        <ele>144.82</ele>
        <time>2015-04-27T11:59:53Z</time>
      </trkpt>
      <trkpt lat="48.85069" lon="1.57992">
        <ele>144.34</ele>
        <time>2015-04-27T12:00:01Z</time>
      </trkpt>
      <trkpt lat="48.85075" lon="1.57991">
        <ele>144.34</ele>
        <time>2015-04-27T12:00:11Z</time>
      </trkpt>
      <trkpt lat="48.85077" lon="1.57993">
        <ele>144.34</ele>
        <time>2015-04-27T12:00:14Z</time>
      </trkpt>
      <trkpt lat="48.85085" lon="1.57997">
        <ele>143.85</ele>
        <time>2015-04-27T12:00:23Z</time>
      </trkpt>
      <trkpt lat="48.85093" lon="1.58">
        <ele>144.82</ele>
        <time>2015-04-27T12:00:31Z</time>
      </trkpt>
      <trkpt lat="48.85094" lon="1.58">
        <ele>144.82</ele>
        <time>2015-04-27T12:00:32Z</time>
      </trkpt>
      <trkpt lat="48.85104" lon="1.58004">
        <ele>145.3</ele>
        <time>2015-04-27T12:00:41Z</time>
      </trkpt>
      <trkpt lat="48.85114" lon="1.58006">
        <ele>146.26</ele>
        <time>2015-04-27T12:00:50Z</time>
      </trkpt>
      <trkpt lat="48.8512" lon="1.58008">
        <ele>146.26</ele>
        <time>2015-04-27T12:00:56Z</time>
      </trkpt>
      <trkpt lat="48.85124" lon="1.58008">
        <ele>146.26</ele>
        <time>2015-04-27T12:01:00Z</time>
      </trkpt>
      <trkpt lat="48.85134" lon="1.58011">
        <ele>145.3</ele>
        <time>2015-04-27T12:01:10Z</time>
      </trkpt>
      <trkpt lat="48.85143" lon="1.58016">
        <ele>145.3</ele>
        <time>2015-04-27T12:01:19Z</time>
      </trkpt>
      <trkpt lat="48.85151" lon="1.58021">
        <ele>145.3</ele>
        <time>2015-04-27T12:01:29Z</time>
      </trkpt>
      <trkpt lat="48.85164" lon="1.58028">
        <ele>146.26</ele>
        <time>2015-04-27T12:01:40Z</time>
      </trkpt>
      <trkpt lat="48.85173" lon="1.58033">
        <ele>146.74</ele>
        <time>2015-04-27T12:01:49Z</time>
      </trkpt>
      <trkpt lat="48.85183" lon="1.58035">
        <ele>147.22</ele>
        <time>2015-04-27T12:02:00Z</time>
      </trkpt>
      <trkpt lat="48.85191" lon="1.58036">
        <ele>147.7</ele>
        <time>2015-04-27T12:02:07Z</time>
      </trkpt>
      <trkpt lat="48.85206" lon="1.58045">
        <ele>147.7</ele>
        <time>2015-04-27T12:02:21Z</time>
      </trkpt>
      <trkpt lat="48.85213" lon="1.58049">
        <ele>147.7</ele>
        <time>2015-04-27T12:02:28Z</time>
      </trkpt>
      <trkpt lat="48.85225" lon="1.58054">
        <ele>148.66</ele>
        <time>2015-04-27T12:02:38Z</time>
      </trkpt>
      <trkpt lat="48.85238" lon="1.58059">
        <ele>147.22</ele>
        <time>2015-04-27T12:02:49Z</time>
      </trkpt>
      <trkpt lat="48.85245" lon="1.58062">
        <ele>148.66</ele>
        <time>2015-04-27T12:02:57Z</time>
      </trkpt>
      <trkpt lat="48.85256" lon="1.58069">
        <ele>148.66</ele>
        <time>2015-04-27T12:03:05Z</time>
      </trkpt>
      <trkpt lat="48.85267" lon="1.58077">
        <ele>148.66</ele>
        <time>2015-04-27T12:03:15Z</time>
      </trkpt>
      <trkpt lat="48.85278" lon="1.58083">
        <ele>148.66</ele>
        <time>2015-04-27T12:03:24Z</time>
      </trkpt>
      <trkpt lat="48.85288" lon="1.58085">
        <ele>148.66</ele>
        <time>2015-04-27T12:03:33Z</time>
      </trkpt>
      <trkpt lat="48.85299" lon="1.58086">
        <ele>149.14</ele>
        <time>2015-04-27T12:03:43Z</time>
      </trkpt>
      <trkpt lat="48.85307" lon="1.58088">
        <ele>149.14</ele>
        <time>2015-04-27T12:03:51Z</time>
      </trkpt>
      <trkpt lat="48.85317" lon="1.58092">
        <ele>149.62</ele>
        <time>2015-04-27T12:04:01Z</time>
      </trkpt>
      <trkpt lat="48.85331" lon="1.58097">
        <ele>150.1</ele>
        <time>2015-04-27T12:04:13Z</time>
      </trkpt>
      <trkpt lat="48.85341" lon="1.58099">
        <ele>150.58</ele>
        <time>2015-04-27T12:04:23Z</time>
      </trkpt>
      <trkpt lat="48.85351" lon="1.58102">
        <ele>150.58</ele>
        <time>2015-04-27T12:04:33Z</time>
      </trkpt>
      <trkpt lat="48.85362" lon="1.58109">
        <ele>151.06</ele>
        <time>2015-04-27T12:04:44Z</time>
      </trkpt>
      <trkpt lat="48.85375" lon="1.58114">
        <ele>151.54</ele>
        <time>2015-04-27T12:04:54Z</time>
      </trkpt>
      <trkpt lat="48.85386" lon="1.58119">
        <ele>152.51</ele>
        <time>2015-04-27T12:05:03Z</time>
      </trkpt>
      <trkpt lat="48.85396" lon="1.58125">
        <ele>152.51</ele>
        <time>2015-04-27T12:05:12Z</time>
      </trkpt>
      <trkpt lat="48.85405" lon="1.58128">
        <ele>153.47</ele>
        <time>2015-04-27T12:05:21Z</time>
      </trkpt>
      <trkpt lat="48.85414" lon="1.58132">
        <ele>153.95</ele>
        <time>2015-04-27T12:05:29Z</time>
      </trkpt>
      <trkpt lat="48.85419" lon="1.58134">
        <ele>152.51</ele>
        <time>2015-04-27T12:05:34Z</time>
      </trkpt>
      <trkpt lat="48.8543" lon="1.58141">
        <ele>152.51</ele>
        <time>2015-04-27T12:05:45Z</time>
      </trkpt>
      <trkpt lat="48.85439" lon="1.58147">
        <ele>152.51</ele>
        <time>2015-04-27T12:05:54Z</time>
      </trkpt>
      <trkpt lat="48.85446" lon="1.58151">
        <ele>153.95</ele>
        <time>2015-04-27T12:06:00Z</time>
      </trkpt>
      <trkpt lat="48.85455" lon="1.58158">
        <ele>153.95</ele>
        <time>2015-04-27T12:06:09Z</time>
      </trkpt>
      <trkpt lat="48.85462" lon="1.58162">
        <ele>153.95</ele>
        <time>2015-04-27T12:06:18Z</time>
      </trkpt>
      <trkpt lat="48.85462" lon="1.58162">
        <ele>153.95</ele>
        <time>2015-04-27T12:06:31Z</time>
      </trkpt>
      <trkpt lat="48.85463" lon="1.58165">
        <ele>153.95</ele>
        <time>2015-04-27T12:06:48Z</time>
      </trkpt>
      <trkpt lat="48.85467" lon="1.58166">
        <ele>153.95</ele>
        <time>2015-04-27T12:06:56Z</time>
      </trkpt>
      <trkpt lat="48.85472" lon="1.5817">
        <ele>154.43</ele>
        <time>2015-04-27T12:07:04Z</time>
      </trkpt>
      <trkpt lat="48.85475" lon="1.58172">
        <ele>152.99</ele>
        <time>2015-04-27T12:07:07Z</time>
      </trkpt>
      <trkpt lat="48.85478" lon="1.58173">
        <ele>154.43</ele>
        <time>2015-04-27T12:07:10Z</time>
      </trkpt>
      <trkpt lat="48.85478" lon="1.58173">
        <ele>154.43</ele>
        <time>2015-04-27T12:07:15Z</time>
      </trkpt>
      <trkpt lat="48.85477" lon="1.58172">
        <ele>154.43</ele>
        <time>2015-04-27T12:07:32Z</time>
      </trkpt>
      <trkpt lat="48.85477" lon="1.58173">
        <ele>154.43</ele>
        <time>2015-04-27T12:07:44Z</time>
      </trkpt>
      <trkpt lat="48.85481" lon="1.58176">
        <ele>154.43</ele>
        <time>2015-04-27T12:07:53Z</time>
      </trkpt>
      <trkpt lat="48.85492" lon="1.58183">
        <ele>154.43</ele>
        <time>2015-04-27T12:08:01Z</time>
      </trkpt>
      <trkpt lat="48.85499" lon="1.58189">
        <ele>154.43</ele>
        <time>2015-04-27T12:08:08Z</time>
      </trkpt>
      <trkpt lat="48.85511" lon="1.58196">
        <ele>153.47</ele>
        <time>2015-04-27T12:08:19Z</time>
      </trkpt>
      <trkpt lat="48.85516" lon="1.58198">
        <ele>152.03</ele>
        <time>2015-04-27T12:08:23Z</time>
      </trkpt>
      <trkpt lat="48.85526" lon="1.58204">
        <ele>152.03</ele>
        <time>2015-04-27T12:08:32Z</time>
      </trkpt>
      <trkpt lat="48.85535" lon="1.5821">
        <ele>151.54</ele>
        <time>2015-04-27T12:08:40Z</time>
      </trkpt>
      <trkpt lat="48.85543" lon="1.58215">
        <ele>150.58</ele>
        <time>2015-04-27T12:08:48Z</time>
      </trkpt>
      <trkpt lat="48.85552" lon="1.5822">
        <ele>150.1</ele>
        <time>2015-04-27T12:08:56Z</time>
      </trkpt>
      <trkpt lat="48.85563" lon="1.58226">
        <ele>149.62</ele>
        <time>2015-04-27T12:09:06Z</time>
      </trkpt>
      <trkpt lat="48.85573" lon="1.58231">
        <ele>149.14</ele>
        <time>2015-04-27T12:09:14Z</time>
      </trkpt>
      <trkpt lat="48.85586" lon="1.58238">
        <ele>148.66</ele>
        <time>2015-04-27T12:09:25Z</time>
      </trkpt>
      <trkpt lat="48.85598" lon="1.58242">
        <ele>147.7</ele>
        <time>2015-04-27T12:09:34Z</time>
      </trkpt>
      <trkpt lat="48.85611" lon="1.58248">
        <ele>147.22</ele>
        <time>2015-04-27T12:09:45Z</time>
      </trkpt>
      <trkpt lat="48.85624" lon="1.58253">
        <ele>146.74</ele>
        <time>2015-04-27T12:09:55Z</time>
      </trkpt>
      <trkpt lat="48.85639" lon="1.5826">
        <ele>145.78</ele>
        <time>2015-04-27T12:10:07Z</time>
      </trkpt>
      <trkpt lat="48.85652" lon="1.58266">
        <ele>145.3</ele>
        <time>2015-04-27T12:10:18Z</time>
      </trkpt>
      <trkpt lat="48.85665" lon="1.58272">
        <ele>144.34</ele>
        <time>2015-04-27T12:10:28Z</time>
      </trkpt>
      <trkpt lat="48.85678" lon="1.58279">
        <ele>143.85</ele>
        <time>2015-04-27T12:10:39Z</time>
      </trkpt>
      <trkpt lat="48.85691" lon="1.58285">
        <ele>143.85</ele>
        <time>2015-04-27T12:10:49Z</time>
      </trkpt>
      <trkpt lat="48.85701" lon="1.58291">
        <ele>142.89</ele>
        <time>2015-04-27T12:10:58Z</time>
      </trkpt>
      <trkpt lat="48.85713" lon="1.58298">
        <ele>141.93</ele>
        <time>2015-04-27T12:11:09Z</time>
      </trkpt>
      <trkpt lat="48.85723" lon="1.58304">
        <ele>141.93</ele>
        <time>2015-04-27T12:11:18Z</time>
      </trkpt>
      <trkpt lat="48.85733" lon="1.58309">
        <ele>140.97</ele>
        <time>2015-04-27T12:11:27Z</time>
      </trkpt>
      <trkpt lat="48.85744" lon="1.58317">
        <ele>139.53</ele>
        <time>2015-04-27T12:11:37Z</time>
      </trkpt>
      <trkpt lat="48.85755" lon="1.58323">
        <ele>139.05</ele>
        <time>2015-04-27T12:11:47Z</time>
      </trkpt>
      <trkpt lat="48.85765" lon="1.58329">
        <ele>137.61</ele>
        <time>2015-04-27T12:11:56Z</time>
      </trkpt>
      <trkpt lat="48.85775" lon="1.58334">
        <ele>136.64</ele>
        <time>2015-04-27T12:12:05Z</time>
      </trkpt>
      <trkpt lat="48.85784" lon="1.58342">
        <ele>136.16</ele>
        <time>2015-04-27T12:12:13Z</time>
      </trkpt>
      <trkpt lat="48.85795" lon="1.58349">
        <ele>134.24</ele>
        <time>2015-04-27T12:12:23Z</time>
      </trkpt>
      <trkpt lat="48.85803" lon="1.58356">
        <ele>134.24</ele>
        <time>2015-04-27T12:12:31Z</time>
      </trkpt>
      <trkpt lat="48.85812" lon="1.58362">
        <ele>133.28</ele>
        <time>2015-04-27T12:12:40Z</time>
      </trkpt>
      <trkpt lat="48.85823" lon="1.58367">
        <ele>132.8</ele>
        <time>2015-04-27T12:12:50Z</time>
      </trkpt>
      <trkpt lat="48.85831" lon="1.58371">
        <ele>132.8</ele>
        <time>2015-04-27T12:12:58Z</time>
      </trkpt>
      <trkpt lat="48.85841" lon="1.58375">
        <ele>132.32</ele>
        <time>2015-04-27T12:13:09Z</time>
      </trkpt>
      <trkpt lat="48.85852" lon="1.58379">
        <ele>132.8</ele>
        <time>2015-04-27T12:13:19Z</time>
      </trkpt>
      <trkpt lat="48.85862" lon="1.58384">
        <ele>132.8</ele>
        <time>2015-04-27T12:13:26Z</time>
      </trkpt>
      <trkpt lat="48.85871" lon="1.58388">
        <ele>132.8</ele>
        <time>2015-04-27T12:13:34Z</time>
      </trkpt>
      <trkpt lat="48.85882" lon="1.58395">
        <ele>131.36</ele>
        <time>2015-04-27T12:13:42Z</time>
      </trkpt>
      <trkpt lat="48.85895" lon="1.58398">
        <ele>131.36</ele>
        <time>2015-04-27T12:13:52Z</time>
      </trkpt>
      <trkpt lat="48.85907" lon="1.58397">
        <ele>130.88</ele>
        <time>2015-04-27T12:14:01Z</time>
      </trkpt>
      <trkpt lat="48.85916" lon="1.58395">
        <ele>130.88</ele>
        <time>2015-04-27T12:14:10Z</time>
      </trkpt>
      <trkpt lat="48.85932" lon="1.58396">
        <ele>130.4</ele>
        <time>2015-04-27T12:14:23Z</time>
      </trkpt>
      <trkpt lat="48.85945" lon="1.58399">
        <ele>130.4</ele>
        <time>2015-04-27T12:14:32Z</time>
      </trkpt>
      <trkpt lat="48.85958" lon="1.58402">
        <ele>130.4</ele>
        <time>2015-04-27T12:14:42Z</time>
      </trkpt>
      <trkpt lat="48.85973" lon="1.58406">
        <ele>129.92</ele>
        <time>2015-04-27T12:14:53Z</time>
      </trkpt>
      <trkpt lat="48.85982" lon="1.58409">
        <ele>129.92</ele>
        <time>2015-04-27T12:15:01Z</time>
      </trkpt>
      <trkpt lat="48.85994" lon="1.58414">
        <ele>129.43</ele>
        <time>2015-04-27T12:15:11Z</time>
      </trkpt>
      <trkpt lat="48.86004" lon="1.58416">
        <ele>129.43</ele>
        <time>2015-04-27T12:15:19Z</time>
      </trkpt>
      <trkpt lat="48.86015" lon="1.58421">
        <ele>129.43</ele>
        <time>2015-04-27T12:15:29Z</time>
      </trkpt>
      <trkpt lat="48.86025" lon="1.58423">
        <ele>127.03</ele>
        <time>2015-04-27T12:15:38Z</time>
      </trkpt>
      <trkpt lat="48.86026" lon="1.58423">
        <ele>132.8</ele>
        <time>2015-04-27T12:15:39Z</time>
      </trkpt>
      <trkpt lat="48.86028" lon="1.58423">
        <ele>129.43</ele>
        <time>2015-04-27T12:15:41Z</time>
      </trkpt>
      <trkpt lat="48.86029" lon="1.58423">
        <ele>129.43</ele>
        <time>2015-04-27T12:15:42Z</time>
      </trkpt>
      <trkpt lat="48.8603" lon="1.58423">
        <ele>129.43</ele>
        <time>2015-04-27T12:15:43Z</time>
      </trkpt>
      <trkpt lat="48.86035" lon="1.58414">
        <ele>128.95</ele>
        <time>2015-04-27T12:15:52Z</time>
      </trkpt>
      <trkpt lat="48.86035" lon="1.58413">
        <ele>128.95</ele>
        <time>2015-04-27T12:15:57Z</time>
      </trkpt>
      <trkpt lat="48.86035" lon="1.58413">
        <ele>129.92</ele>
        <time>2015-04-27T12:16:01Z</time>
      </trkpt>
      <trkpt lat="48.86036" lon="1.58413">
        <ele>128.95</ele>
        <time>2015-04-27T12:16:03Z</time>
      </trkpt>
      <trkpt lat="48.86036" lon="1.58412">
        <ele>128.47</ele>
        <time>2015-04-27T12:16:13Z</time>
      </trkpt>
      <trkpt lat="48.86039" lon="1.58406">
        <ele>129.92</ele>
        <time>2015-04-27T12:16:18Z</time>
      </trkpt>
      <trkpt lat="48.8604" lon="1.58405">
        <ele>129.92</ele>
        <time>2015-04-27T12:16:19Z</time>
      </trkpt>
      <trkpt lat="48.86045" lon="1.58397">
        <ele>128.47</ele>
        <time>2015-04-27T12:16:26Z</time>
      </trkpt>
      <trkpt lat="48.86052" lon="1.58383">
        <ele>128.47</ele>
        <time>2015-04-27T12:16:36Z</time>
      </trkpt>
      <trkpt lat="48.86057" lon="1.58367">
        <ele>129.43</ele>
        <time>2015-04-27T12:16:45Z</time>
      </trkpt>
      <trkpt lat="48.86062" lon="1.58353">
        <ele>129.43</ele>
        <time>2015-04-27T12:16:54Z</time>
      </trkpt>
      <trkpt lat="48.86065" lon="1.58344">
        <ele>129.92</ele>
        <time>2015-04-27T12:17:01Z</time>
      </trkpt>
      <trkpt lat="48.86064" lon="1.58328">
        <ele>128.47</ele>
        <time>2015-04-27T12:17:10Z</time>
      </trkpt>
      <trkpt lat="48.86063" lon="1.58318">
        <ele>129.92</ele>
        <time>2015-04-27T12:17:15Z</time>
      </trkpt>
      <trkpt lat="48.86061" lon="1.58299">
        <ele>129.92</ele>
        <time>2015-04-27T12:17:25Z</time>
      </trkpt>
      <trkpt lat="48.8606" lon="1.58283">
        <ele>129.92</ele>
        <time>2015-04-27T12:17:34Z</time>
      </trkpt>
      <trkpt lat="48.86059" lon="1.58266">
        <ele>129.92</ele>
        <time>2015-04-27T12:17:43Z</time>
      </trkpt>
      <trkpt lat="48.86058" lon="1.58245">
        <ele>129.43</ele>
        <time>2015-04-27T12:17:55Z</time>
      </trkpt>
      <trkpt lat="48.86056" lon="1.58227">
        <ele>129.43</ele>
        <time>2015-04-27T12:18:04Z</time>
      </trkpt>
      <trkpt lat="48.86055" lon="1.5821">
        <ele>129.92</ele>
        <time>2015-04-27T12:18:14Z</time>
      </trkpt>
      <trkpt lat="48.86055" lon="1.58189">
        <ele>129.92</ele>
        <time>2015-04-27T12:18:25Z</time>
      </trkpt>
      <trkpt lat="48.86057" lon="1.58172">
        <ele>129.92</ele>
        <time>2015-04-27T12:18:35Z</time>
      </trkpt>
      <trkpt lat="48.86059" lon="1.58153">
        <ele>129.92</ele>
        <time>2015-04-27T12:18:45Z</time>
      </trkpt>
      <trkpt lat="48.86064" lon="1.58137">
        <ele>129.92</ele>
        <time>2015-04-27T12:18:55Z</time>
      </trkpt>
      <trkpt lat="48.86071" lon="1.58126">
        <ele>130.4</ele>
        <time>2015-04-27T12:19:03Z</time>
      </trkpt>
      <trkpt lat="48.86076" lon="1.58115">
        <ele>130.4</ele>
        <time>2015-04-27T12:19:11Z</time>
      </trkpt>
      <trkpt lat="48.86081" lon="1.58105">
        <ele>130.4</ele>
        <time>2015-04-27T12:19:19Z</time>
      </trkpt>
      <trkpt lat="48.86086" lon="1.58093">
        <ele>130.4</ele>
        <time>2015-04-27T12:19:27Z</time>
      </trkpt>
      <trkpt lat="48.86092" lon="1.58078">
        <ele>130.4</ele>
        <time>2015-04-27T12:19:37Z</time>
      </trkpt>
      <trkpt lat="48.86099" lon="1.58067">
        <ele>130.4</ele>
        <time>2015-04-27T12:19:45Z</time>
      </trkpt>
      <trkpt lat="48.86102" lon="1.58062">
        <ele>130.4</ele>
        <time>2015-04-27T12:19:49Z</time>
      </trkpt>
      <trkpt lat="48.8611" lon="1.58051">
        <ele>130.88</ele>
        <time>2015-04-27T12:19:59Z</time>
      </trkpt>
      <trkpt lat="48.86113" lon="1.58048">
        <ele>130.88</ele>
        <time>2015-04-27T12:20:03Z</time>
      </trkpt>
      <trkpt lat="48.86123" lon="1.58043">
        <ele>130.4</ele>
        <time>2015-04-27T12:20:12Z</time>
      </trkpt>
      <trkpt lat="48.86131" lon="1.58036">
        <ele>129.92</ele>
        <time>2015-04-27T12:20:20Z</time>
      </trkpt>
      <trkpt lat="48.86144" lon="1.58025">
        <ele>129.92</ele>
        <time>2015-04-27T12:20:33Z</time>
      </trkpt>
      <trkpt lat="48.86156" lon="1.58015">
        <ele>128.95</ele>
        <time>2015-04-27T12:20:44Z</time>
      </trkpt>
      <trkpt lat="48.86169" lon="1.58007">
        <ele>128.47</ele>
        <time>2015-04-27T12:20:56Z</time>
      </trkpt>
      <trkpt lat="48.86179" lon="1.58005">
        <ele>127.51</ele>
        <time>2015-04-27T12:21:04Z</time>
      </trkpt>
      <trkpt lat="48.86191" lon="1.57999">
        <ele>126.55</ele>
        <time>2015-04-27T12:21:14Z</time>
      </trkpt>
      <trkpt lat="48.86202" lon="1.58">
        <ele>126.55</ele>
        <time>2015-04-27T12:21:23Z</time>
      </trkpt>
      <trkpt lat="48.86214" lon="1.57994">
        <ele>127.03</ele>
        <time>2015-04-27T12:21:33Z</time>
      </trkpt>
      <trkpt lat="48.86217" lon="1.57992">
        <ele>125.59</ele>
        <time>2015-04-27T12:21:35Z</time>
      </trkpt>
      <trkpt lat="48.86226" lon="1.57985">
        <ele>125.59</ele>
        <time>2015-04-27T12:21:44Z</time>
      </trkpt>
      <trkpt lat="48.8623" lon="1.57982">
        <ele>127.51</ele>
        <time>2015-04-27T12:21:48Z</time>
      </trkpt>
      <trkpt lat="48.86232" lon="1.57979">
        <ele>126.07</ele>
        <time>2015-04-27T12:21:54Z</time>
      </trkpt>
      <trkpt lat="48.86232" lon="1.57979">
        <ele>126.07</ele>
        <time>2015-04-27T12:21:55Z</time>
      </trkpt>
      <trkpt lat="48.86232" lon="1.57976">
        <ele>125.59</ele>
        <time>2015-04-27T12:22:11Z</time>
      </trkpt>
      <trkpt lat="48.86232" lon="1.57976">
        <ele>125.59</ele>
        <time>2015-04-27T12:22:26Z</time>
      </trkpt>
      <trkpt lat="48.86231" lon="1.57975">
        <ele>125.59</ele>
        <time>2015-04-27T12:22:40Z</time>
      </trkpt>
      <trkpt lat="48.86231" lon="1.57975">
        <ele>125.11</ele>
        <time>2015-04-27T12:23:01Z</time>
      </trkpt>
      <trkpt lat="48.86232" lon="1.57976">
        <ele>125.11</ele>
        <time>2015-04-27T12:23:15Z</time>
      </trkpt>
      <trkpt lat="48.86233" lon="1.57975">
        <ele>125.11</ele>
        <time>2015-04-27T12:23:27Z</time>
      </trkpt>
      <trkpt lat="48.86232" lon="1.57975">
        <ele>125.11</ele>
        <time>2015-04-27T12:23:37Z</time>
      </trkpt>
      <trkpt lat="48.86231" lon="1.57976">
        <ele>125.11</ele>
        <time>2015-04-27T12:24:06Z</time>
      </trkpt>
      <trkpt lat="48.86231" lon="1.57976">
        <ele>125.11</ele>
        <time>2015-04-27T12:24:24Z</time>
      </trkpt>
      <trkpt lat="48.86231" lon="1.57977">
        <ele>125.11</ele>
        <time>2015-04-27T12:24:43Z</time>
      </trkpt>
      <trkpt lat="48.86231" lon="1.57976">
        <ele>125.11</ele>
        <time>2015-04-27T12:24:54Z</time>
      </trkpt>
      <trkpt lat="48.86231" lon="1.57977">
        <ele>126.55</ele>
        <time>2015-04-27T12:24:56Z</time>
      </trkpt>
      <trkpt lat="48.8623" lon="1.57976">
        <ele>122.71</ele>
        <time>2015-04-27T12:25:06Z</time>
      </trkpt>
      <trkpt lat="48.8623" lon="1.57976">
        <ele>129.43</ele>
        <time>2015-04-27T12:25:07Z</time>
      </trkpt>
      <trkpt lat="48.86231" lon="1.57975">
        <ele>125.59</ele>
        <time>2015-04-27T12:25:09Z</time>
      </trkpt>
      <trkpt lat="48.86231" lon="1.57975">
        <ele>125.59</ele>
        <time>2015-04-27T12:25:10Z</time>
      </trkpt>
      <trkpt lat="48.86234" lon="1.57973">
        <ele>127.03</ele>
        <time>2015-04-27T12:25:25Z</time>
      </trkpt>
      <trkpt lat="48.86236" lon="1.5797">
        <ele>127.03</ele>
        <time>2015-04-27T12:25:33Z</time>
      </trkpt>
      <trkpt lat="48.86237" lon="1.5797">
        <ele>127.03</ele>
        <time>2015-04-27T12:25:44Z</time>
      </trkpt>
      <trkpt lat="48.86235" lon="1.57972">
        <ele>127.03</ele>
        <time>2015-04-27T12:25:54Z</time>
      </trkpt>
      <trkpt lat="48.86234" lon="1.57973">
        <ele>127.03</ele>
        <time>2015-04-27T12:26:07Z</time>
      </trkpt>
      <trkpt lat="48.86232" lon="1.57976">
        <ele>125.11</ele>
        <time>2015-04-27T12:26:23Z</time>
      </trkpt>
      <trkpt lat="48.86232" lon="1.57977">
        <ele>127.03</ele>
        <time>2015-04-27T12:26:25Z</time>
      </trkpt>
      <trkpt lat="48.86234" lon="1.57976">
        <ele>127.03</ele>
        <time>2015-04-27T12:26:37Z</time>
      </trkpt>
      <trkpt lat="48.86237" lon="1.57969">
        <ele>127.03</ele>
        <time>2015-04-27T12:26:47Z</time>
      </trkpt>
      <trkpt lat="48.8624" lon="1.57964">
        <ele>125.59</ele>
        <time>2015-04-27T12:26:52Z</time>
      </trkpt>
      <trkpt lat="48.86242" lon="1.5796">
        <ele>127.51</ele>
        <time>2015-04-27T12:26:55Z</time>
      </trkpt>
      <trkpt lat="48.86247" lon="1.57949">
        <ele>126.07</ele>
        <time>2015-04-27T12:27:03Z</time>
      </trkpt>
      <trkpt lat="48.86255" lon="1.57936">
        <ele>126.07</ele>
        <time>2015-04-27T12:27:14Z</time>
      </trkpt>
      <trkpt lat="48.86262" lon="1.57926">
        <ele>126.07</ele>
        <time>2015-04-27T12:27:22Z</time>
      </trkpt>
      <trkpt lat="48.86268" lon="1.57913">
        <ele>126.07</ele>
        <time>2015-04-27T12:27:31Z</time>
      </trkpt>
      <trkpt lat="48.86275" lon="1.57902">
        <ele>126.07</ele>
        <time>2015-04-27T12:27:40Z</time>
      </trkpt>
      <trkpt lat="48.86283" lon="1.57893">
        <ele>127.51</ele>
        <time>2015-04-27T12:27:49Z</time>
      </trkpt>
      <trkpt lat="48.86292" lon="1.57882">
        <ele>126.55</ele>
        <time>2015-04-27T12:27:58Z</time>
      </trkpt>
      <trkpt lat="48.86302" lon="1.57871">
        <ele>125.59</ele>
        <time>2015-04-27T12:28:08Z</time>
      </trkpt>
      <trkpt lat="48.86312" lon="1.57861">
        <ele>125.59</ele>
        <time>2015-04-27T12:28:18Z</time>
      </trkpt>
      <trkpt lat="48.86324" lon="1.57849">
        <ele>125.59</ele>
        <time>2015-04-27T12:28:29Z</time>
      </trkpt>
      <trkpt lat="48.86328" lon="1.57842">
        <ele>127.03</ele>
        <time>2015-04-27T12:28:34Z</time>
      </trkpt>
      <trkpt lat="48.86338" lon="1.57828">
        <ele>127.03</ele>
        <time>2015-04-27T12:28:45Z</time>
      </trkpt>
      <trkpt lat="48.86348" lon="1.57813">
        <ele>126.55</ele>
        <time>2015-04-27T12:28:56Z</time>
      </trkpt>
      <trkpt lat="48.86359" lon="1.57795">
        <ele>126.55</ele>
        <time>2015-04-27T12:29:09Z</time>
      </trkpt>
      <trkpt lat="48.86362" lon="1.57789">
        <ele>126.07</ele>
        <time>2015-04-27T12:29:13Z</time>
      </trkpt>
      <trkpt lat="48.86372" lon="1.57773">
        <ele>127.03</ele>
        <time>2015-04-27T12:29:24Z</time>
      </trkpt>
      <trkpt lat="48.86381" lon="1.57759">
        <ele>127.03</ele>
        <time>2015-04-27T12:29:35Z</time>
      </trkpt>
      <trkpt lat="48.86391" lon="1.57742">
        <ele>127.03</ele>
        <time>2015-04-27T12:29:47Z</time>
      </trkpt>
      <trkpt lat="48.86394" lon="1.57736">
        <ele>126.07</ele>
        <time>2015-04-27T12:29:52Z</time>
      </trkpt>
      <trkpt lat="48.86402" lon="1.57722">
        <ele>126.55</ele>
        <time>2015-04-27T12:30:02Z</time>
      </trkpt>
      <trkpt lat="48.86413" lon="1.57705">
        <ele>126.55</ele>
        <time>2015-04-27T12:30:14Z</time>
      </trkpt>
      <trkpt lat="48.86421" lon="1.57691">
        <ele>126.55</ele>
        <time>2015-04-27T12:30:24Z</time>
      </trkpt>
      <trkpt lat="48.8643" lon="1.57675">
        <ele>126.55</ele>
        <time>2015-04-27T12:30:35Z</time>
      </trkpt>
      <trkpt lat="48.86441" lon="1.57658">
        <ele>126.55</ele>
        <time>2015-04-27T12:30:47Z</time>
      </trkpt>
      <trkpt lat="48.86448" lon="1.57647">
        <ele>126.07</ele>
        <time>2015-04-27T12:30:55Z</time>
      </trkpt>
      <trkpt lat="48.86458" lon="1.57631">
        <ele>126.07</ele>
        <time>2015-04-27T12:31:06Z</time>
      </trkpt>
      <trkpt lat="48.8647" lon="1.57613">
        <ele>126.07</ele>
        <time>2015-04-27T12:31:19Z</time>
      </trkpt>
      <trkpt lat="48.8648" lon="1.57598">
        <ele>125.59</ele>
        <time>2015-04-27T12:31:30Z</time>
      </trkpt>
      <trkpt lat="48.86491" lon="1.57583">
        <ele>125.59</ele>
        <time>2015-04-27T12:31:42Z</time>
      </trkpt>
      <trkpt lat="48.86502" lon="1.57569">
        <ele>126.55</ele>
        <time>2015-04-27T12:31:53Z</time>
      </trkpt>
      <trkpt lat="48.86514" lon="1.57556">
        <ele>126.55</ele>
        <time>2015-04-27T12:32:05Z</time>
      </trkpt>
      <trkpt lat="48.86516" lon="1.57553">
        <ele>125.11</ele>
        <time>2015-04-27T12:32:07Z</time>
      </trkpt>
      <trkpt lat="48.8652" lon="1.57549">
        <ele>126.07</ele>
        <time>2015-04-27T12:32:11Z</time>
      </trkpt>
      <trkpt lat="48.86528" lon="1.57541">
        <ele>124.63</ele>
        <time>2015-04-27T12:32:18Z</time>
      </trkpt>
      <trkpt lat="48.86532" lon="1.57536">
        <ele>126.07</ele>
        <time>2015-04-27T12:32:22Z</time>
      </trkpt>
      <trkpt lat="48.86543" lon="1.57523">
        <ele>127.03</ele>
        <time>2015-04-27T12:32:33Z</time>
      </trkpt>
      <trkpt lat="48.86546" lon="1.5752">
        <ele>125.11</ele>
        <time>2015-04-27T12:32:36Z</time>
      </trkpt>
      <trkpt lat="48.86555" lon="1.57511">
        <ele>126.55</ele>
        <time>2015-04-27T12:32:44Z</time>
      </trkpt>
      <trkpt lat="48.86563" lon="1.57502">
        <ele>126.55</ele>
        <time>2015-04-27T12:32:53Z</time>
      </trkpt>
      <trkpt lat="48.86572" lon="1.57491">
        <ele>126.55</ele>
        <time>2015-04-27T12:33:03Z</time>
      </trkpt>
      <trkpt lat="48.86582" lon="1.57478">
        <ele>126.55</ele>
        <time>2015-04-27T12:33:14Z</time>
      </trkpt>
      <trkpt lat="48.86593" lon="1.57466">
        <ele>127.51</ele>
        <time>2015-04-27T12:33:24Z</time>
      </trkpt>
      <trkpt lat="48.866" lon="1.57457">
        <ele>127.99</ele>
        <time>2015-04-27T12:33:33Z</time>
      </trkpt>
      <trkpt lat="48.86607" lon="1.57449">
        <ele>127.03</ele>
        <time>2015-04-27T12:33:40Z</time>
      </trkpt>
      <trkpt lat="48.86619" lon="1.57435">
        <ele>127.03</ele>
        <time>2015-04-27T12:33:52Z</time>
      </trkpt>
      <trkpt lat="48.8663" lon="1.57423">
        <ele>127.03</ele>
        <time>2015-04-27T12:34:03Z</time>
      </trkpt>
      <trkpt lat="48.86639" lon="1.57412">
        <ele>127.03</ele>
        <time>2015-04-27T12:34:12Z</time>
      </trkpt>
      <trkpt lat="48.8665" lon="1.574">
        <ele>127.99</ele>
        <time>2015-04-27T12:34:23Z</time>
      </trkpt>
      <trkpt lat="48.86662" lon="1.57388">
        <ele>127.99</ele>
        <time>2015-04-27T12:34:34Z</time>
      </trkpt>
      <trkpt lat="48.86675" lon="1.57373">
        <ele>127.99</ele>
        <time>2015-04-27T12:34:46Z</time>
      </trkpt>
      <trkpt lat="48.86686" lon="1.57361">
        <ele>128.47</ele>
        <time>2015-04-27T12:34:57Z</time>
      </trkpt>
      <trkpt lat="48.86697" lon="1.57346">
        <ele>128.95</ele>
        <time>2015-04-27T12:35:09Z</time>
      </trkpt>
      <trkpt lat="48.86703" lon="1.57339">
        <ele>127.51</ele>
        <time>2015-04-27T12:35:15Z</time>
      </trkpt>
      <trkpt lat="48.86716" lon="1.57322">
        <ele>126.55</ele>
        <time>2015-04-27T12:35:28Z</time>
      </trkpt>
      <trkpt lat="48.8672" lon="1.57316">
        <ele>127.99</ele>
        <time>2015-04-27T12:35:33Z</time>
      </trkpt>
      <trkpt lat="48.86726" lon="1.57309">
        <ele>126.07</ele>
        <time>2015-04-27T12:35:39Z</time>
      </trkpt>
      <trkpt lat="48.86731" lon="1.57303">
        <ele>127.51</ele>
        <time>2015-04-27T12:35:44Z</time>
      </trkpt>
      <trkpt lat="48.86743" lon="1.57286">
        <ele>127.99</ele>
        <time>2015-04-27T12:35:57Z</time>
      </trkpt>
      <trkpt lat="48.86751" lon="1.57274">
        <ele>127.99</ele>
        <time>2015-04-27T12:36:05Z</time>
      </trkpt>
      <trkpt lat="48.8676" lon="1.57259">
        <ele>127.03</ele>
        <time>2015-04-27T12:36:15Z</time>
      </trkpt>
      <trkpt lat="48.86767" lon="1.57248">
        <ele>127.03</ele>
        <time>2015-04-27T12:36:23Z</time>
      </trkpt>
      <trkpt lat="48.86774" lon="1.57234">
        <ele>127.03</ele>
        <time>2015-04-27T12:36:16Z</time>
      </trkpt>
      <trkpt lat="48.86784" lon="1.57215">
        <ele>127.99</ele>
        <time>2015-04-27T12:36:28Z</time>
      </trkpt>
      <trkpt lat="48.86793" lon="1.57196">
        <ele>127.99</ele>
        <time>2015-04-27T12:36:40Z</time>
      </trkpt>
      <trkpt lat="48.86804" lon="1.57175">
        <ele>127.51</ele>
        <time>2015-04-27T12:36:53Z</time>
      </trkpt>
      <trkpt lat="48.86812" lon="1.57157">
        <ele>127.51</ele>
        <time>2015-04-27T12:37:04Z</time>
      </trkpt>
      <trkpt lat="48.86821" lon="1.57139">
        <ele>127.51</ele>
        <time>2015-04-27T12:37:15Z</time>
      </trkpt>
      <trkpt lat="48.86829" lon="1.57121">
        <ele>127.51</ele>
        <time>2015-04-27T12:37:26Z</time>
      </trkpt>
      <trkpt lat="48.86835" lon="1.57106">
        <ele>127.03</ele>
        <time>2015-04-27T12:37:35Z</time>
      </trkpt>
      <trkpt lat="48.86842" lon="1.57107">
        <ele>126.55</ele>
        <time>2015-04-27T12:37:40Z</time>
      </trkpt>
      <trkpt lat="48.86854" lon="1.57117">
        <ele>126.55</ele>
        <time>2015-04-27T12:37:50Z</time>
      </trkpt>
      <trkpt lat="48.86863" lon="1.57124">
        <ele>126.07</ele>
        <time>2015-04-27T12:37:58Z</time>
      </trkpt>
      <trkpt lat="48.86875" lon="1.57134">
        <ele>125.59</ele>
        <time>2015-04-27T12:38:08Z</time>
      </trkpt>
      <trkpt lat="48.86886" lon="1.57144">
        <ele>126.07</ele>
        <time>2015-04-27T12:38:18Z</time>
      </trkpt>
      <trkpt lat="48.86887" lon="1.57145">
        <ele>126.07</ele>
        <time>2015-04-27T12:38:19Z</time>
      </trkpt>
      <trkpt lat="48.86889" lon="1.57147">
        <ele>124.63</ele>
        <time>2015-04-27T12:38:21Z</time>
      </trkpt>
      <trkpt lat="48.86893" lon="1.57151">
        <ele>126.07</ele>
        <time>2015-04-27T12:38:25Z</time>
      </trkpt>
      <trkpt lat="48.86902" lon="1.57167">
        <ele>125.11</ele>
        <time>2015-04-27T12:38:36Z</time>
      </trkpt>
      <trkpt lat="48.86904" lon="1.57181">
        <ele>125.11</ele>
        <time>2015-04-27T12:38:45Z</time>
      </trkpt>
      <trkpt lat="48.86904" lon="1.57178">
        <ele>125.11</ele>
        <time>2015-04-27T12:38:53Z</time>
      </trkpt>
      <trkpt lat="48.86904" lon="1.57182">
        <ele>125.11</ele>
        <time>2015-04-27T12:39:06Z</time>
      </trkpt>
      <trkpt lat="48.86901" lon="1.57195">
        <ele>125.11</ele>
        <time>2015-04-27T12:39:15Z</time>
      </trkpt>
      <trkpt lat="48.86898" lon="1.57212">
        <ele>124.15</ele>
        <time>2015-04-27T12:39:26Z</time>
      </trkpt>
      <trkpt lat="48.86896" lon="1.57217">
        <ele>123.67</ele>
        <time>2015-04-27T12:39:34Z</time>
      </trkpt>
      <trkpt lat="48.86895" lon="1.57228">
        <ele>123.67</ele>
        <time>2015-04-27T12:39:40Z</time>
      </trkpt>
      <trkpt lat="48.86899" lon="1.57245">
        <ele>123.67</ele>
        <time>2015-04-27T12:39:49Z</time>
      </trkpt>
      <trkpt lat="48.86905" lon="1.57258">
        <ele>123.67</ele>
        <time>2015-04-27T12:39:58Z</time>
      </trkpt>
      <trkpt lat="48.86911" lon="1.57269">
        <ele>123.19</ele>
        <time>2015-04-27T12:40:07Z</time>
      </trkpt>
      <trkpt lat="48.86919" lon="1.5728">
        <ele>123.19</ele>
        <time>2015-04-27T12:40:16Z</time>
      </trkpt>
      <trkpt lat="48.86921" lon="1.57282">
        <ele>122.71</ele>
        <time>2015-04-27T12:40:18Z</time>
      </trkpt>
      <trkpt lat="48.86927" lon="1.5729">
        <ele>122.71</ele>
        <time>2015-04-27T12:40:26Z</time>
      </trkpt>
      <trkpt lat="48.86938" lon="1.57303">
        <ele>122.71</ele>
        <time>2015-04-27T12:40:37Z</time>
      </trkpt>
      <trkpt lat="48.86947" lon="1.57313">
        <ele>122.22</ele>
        <time>2015-04-27T12:40:47Z</time>
      </trkpt>
      <trkpt lat="48.86958" lon="1.57318">
        <ele>122.22</ele>
        <time>2015-04-27T12:40:57Z</time>
      </trkpt>
      <trkpt lat="48.8697" lon="1.57321">
        <ele>121.74</ele>
        <time>2015-04-27T12:41:10Z</time>
      </trkpt>
      <trkpt lat="48.86981" lon="1.57324">
        <ele>120.78</ele>
        <time>2015-04-27T12:41:21Z</time>
      </trkpt>
      <trkpt lat="48.86993" lon="1.57324">
        <ele>120.3</ele>
        <time>2015-04-27T12:41:32Z</time>
      </trkpt>
      <trkpt lat="48.87004" lon="1.57324">
        <ele>119.82</ele>
        <time>2015-04-27T12:41:42Z</time>
      </trkpt>
      <trkpt lat="48.87017" lon="1.57323">
        <ele>119.34</ele>
        <time>2015-04-27T12:41:53Z</time>
      </trkpt>
      <trkpt lat="48.87028" lon="1.57325">
        <ele>118.86</ele>
        <time>2015-04-27T12:42:01Z</time>
      </trkpt>
      <trkpt lat="48.87039" lon="1.57322">
        <ele>118.38</ele>
        <time>2015-04-27T12:42:10Z</time>
      </trkpt>
      <trkpt lat="48.87046" lon="1.57321">
        <ele>118.38</ele>
        <time>2015-04-27T12:42:16Z</time>
      </trkpt>
      <trkpt lat="48.87057" lon="1.57322">
        <ele>117.9</ele>
        <time>2015-04-27T12:42:25Z</time>
      </trkpt>
      <trkpt lat="48.8707" lon="1.57324">
        <ele>116.94</ele>
        <time>2015-04-27T12:42:34Z</time>
      </trkpt>
      <trkpt lat="48.87079" lon="1.57326">
        <ele>115.98</ele>
        <time>2015-04-27T12:42:42Z</time>
      </trkpt>
      <trkpt lat="48.87084" lon="1.57327">
        <ele>115.98</ele>
        <time>2015-04-27T12:42:46Z</time>
      </trkpt>
      <trkpt lat="48.87098" lon="1.5733">
        <ele>115.98</ele>
        <time>2015-04-27T12:42:56Z</time>
      </trkpt>
      <trkpt lat="48.87102" lon="1.5733">
        <ele>115.98</ele>
        <time>2015-04-27T12:42:59Z</time>
      </trkpt>
      <trkpt lat="48.87116" lon="1.5733">
        <ele>115.98</ele>
        <time>2015-04-27T12:43:08Z</time>
      </trkpt>
      <trkpt lat="48.87131" lon="1.57328">
        <ele>115.98</ele>
        <time>2015-04-27T12:43:19Z</time>
      </trkpt>
      <trkpt lat="48.87139" lon="1.57326">
        <ele>114.53</ele>
        <time>2015-04-27T12:43:25Z</time>
      </trkpt>
      <trkpt lat="48.87151" lon="1.57323">
        <ele>114.53</ele>
        <time>2015-04-27T12:43:35Z</time>
      </trkpt>
      <trkpt lat="48.87155" lon="1.57323">
        <ele>115.5</ele>
        <time>2015-04-27T12:43:38Z</time>
      </trkpt>
      <trkpt lat="48.87166" lon="1.57321">
        <ele>115.98</ele>
        <time>2015-04-27T12:43:47Z</time>
      </trkpt>
      <trkpt lat="48.87172" lon="1.57319">
        <ele>116.46</ele>
        <time>2015-04-27T12:43:54Z</time>
      </trkpt>
      <trkpt lat="48.87184" lon="1.57319">
        <ele>116.46</ele>
        <time>2015-04-27T12:44:04Z</time>
      </trkpt>
      <trkpt lat="48.87194" lon="1.57317">
        <ele>116.46</ele>
        <time>2015-04-27T12:44:13Z</time>
      </trkpt>
      <trkpt lat="48.87209" lon="1.57314">
        <ele>117.42</ele>
        <time>2015-04-27T12:44:25Z</time>
      </trkpt>
      <trkpt lat="48.8722" lon="1.57313">
        <ele>117.9</ele>
        <time>2015-04-27T12:44:34Z</time>
      </trkpt>
      <trkpt lat="48.87232" lon="1.57314">
        <ele>118.38</ele>
        <time>2015-04-27T12:44:44Z</time>
      </trkpt>
      <trkpt lat="48.87247" lon="1.57315">
        <ele>119.82</ele>
        <time>2015-04-27T12:44:56Z</time>
      </trkpt>
      <trkpt lat="48.87259" lon="1.57317">
        <ele>120.3</ele>
        <time>2015-04-27T12:45:06Z</time>
      </trkpt>
      <trkpt lat="48.8727" lon="1.57319">
        <ele>120.3</ele>
        <time>2015-04-27T12:45:16Z</time>
      </trkpt>
      <trkpt lat="48.87282" lon="1.57321">
        <ele>120.78</ele>
        <time>2015-04-27T12:45:26Z</time>
      </trkpt>
      <trkpt lat="48.87296" lon="1.57323">
        <ele>121.26</ele>
        <time>2015-04-27T12:45:38Z</time>
      </trkpt>
      <trkpt lat="48.87299" lon="1.57323">
        <ele>120.3</ele>
        <time>2015-04-27T12:45:40Z</time>
      </trkpt>
      <trkpt lat="48.87313" lon="1.57324">
        <ele>119.82</ele>
        <time>2015-04-27T12:45:51Z</time>
      </trkpt>
      <trkpt lat="48.8732" lon="1.57323">
        <ele>120.78</ele>
        <time>2015-04-27T12:45:57Z</time>
      </trkpt>
      <trkpt lat="48.87331" lon="1.57323">
        <ele>120.78</ele>
        <time>2015-04-27T12:46:06Z</time>
      </trkpt>
      <trkpt lat="48.87346" lon="1.57324">
        <ele>119.82</ele>
        <time>2015-04-27T12:46:18Z</time>
      </trkpt>
      <trkpt lat="48.8736" lon="1.57324">
        <ele>119.82</ele>
        <time>2015-04-27T12:46:29Z</time>
      </trkpt>
      <trkpt lat="48.87373" lon="1.57325">
        <ele>119.82</ele>
        <time>2015-04-27T12:46:39Z</time>
      </trkpt>
      <trkpt lat="48.87376" lon="1.57325">
        <ele>121.26</ele>
        <time>2015-04-27T12:46:41Z</time>
      </trkpt>
      <trkpt lat="48.8739" lon="1.57325">
        <ele>121.26</ele>
        <time>2015-04-27T12:46:52Z</time>
      </trkpt>
      <trkpt lat="48.87403" lon="1.57326">
        <ele>121.26</ele>
        <time>2015-04-27T12:47:02Z</time>
      </trkpt>
      <trkpt lat="48.87417" lon="1.57326">
        <ele>121.26</ele>
        <time>2015-04-27T12:47:14Z</time>
      </trkpt>
      <trkpt lat="48.87429" lon="1.57328">
        <ele>121.26</ele>
        <time>2015-04-27T12:47:24Z</time>
      </trkpt>
      <trkpt lat="48.87441" lon="1.57329">
        <ele>121.74</ele>
        <time>2015-04-27T12:47:34Z</time>
      </trkpt>
      <trkpt lat="48.87456" lon="1.5733">
        <ele>121.74</ele>
        <time>2015-04-27T12:47:46Z</time>
      </trkpt>
      <trkpt lat="48.87461" lon="1.5733">
        <ele>120.3</ele>
        <time>2015-04-27T12:47:50Z</time>
      </trkpt>
      <trkpt lat="48.87473" lon="1.57331">
        <ele>120.3</ele>
        <time>2015-04-27T12:48:01Z</time>
      </trkpt>
      <trkpt lat="48.87487" lon="1.57331">
        <ele>120.3</ele>
        <time>2015-04-27T12:48:13Z</time>
      </trkpt>
      <trkpt lat="48.87502" lon="1.5733">
        <ele>120.3</ele>
        <time>2015-04-27T12:48:25Z</time>
      </trkpt>
      <trkpt lat="48.8751" lon="1.57331">
        <ele>121.74</ele>
        <time>2015-04-27T12:48:32Z</time>
      </trkpt>
      <trkpt lat="48.87523" lon="1.57332">
        <ele>122.22</ele>
        <time>2015-04-27T12:48:43Z</time>
      </trkpt>
      <trkpt lat="48.87537" lon="1.57332">
        <ele>120.78</ele>
        <time>2015-04-27T12:48:54Z</time>
      </trkpt>
      <trkpt lat="48.87554" lon="1.57332">
        <ele>120.78</ele>
        <time>2015-04-27T12:49:08Z</time>
      </trkpt>
      <trkpt lat="48.87567" lon="1.57332">
        <ele>120.78</ele>
        <time>2015-04-27T12:49:18Z</time>
      </trkpt>
      <trkpt lat="48.87582" lon="1.57333">
        <ele>120.78</ele>
        <time>2015-04-27T12:49:30Z</time>
      </trkpt>
      <trkpt lat="48.87597" lon="1.57334">
        <ele>121.74</ele>
        <time>2015-04-27T12:49:42Z</time>
      </trkpt>
      <trkpt lat="48.87612" lon="1.57334">
        <ele>120.3</ele>
        <time>2015-04-27T12:49:54Z</time>
      </trkpt>
      <trkpt lat="48.87614" lon="1.57334">
        <ele>121.74</ele>
        <time>2015-04-27T12:49:56Z</time>
      </trkpt>
      <trkpt lat="48.8763" lon="1.57335">
        <ele>121.74</ele>
        <time>2015-04-27T12:50:08Z</time>
      </trkpt>
      <trkpt lat="48.87646" lon="1.57336">
        <ele>121.74</ele>
        <time>2015-04-27T12:50:21Z</time>
      </trkpt>
      <trkpt lat="48.87661" lon="1.57337">
        <ele>120.78</ele>
        <time>2015-04-27T12:50:33Z</time>
      </trkpt>
      <trkpt lat="48.87676" lon="1.57338">
        <ele>120.78</ele>
        <time>2015-04-27T12:50:45Z</time>
      </trkpt>
      <trkpt lat="48.8769" lon="1.57339">
        <ele>121.74</ele>
        <time>2015-04-27T12:50:56Z</time>
      </trkpt>
      <trkpt lat="48.87703" lon="1.57339">
        <ele>120.78</ele>
        <time>2015-04-27T12:51:07Z</time>
      </trkpt>
      <trkpt lat="48.87715" lon="1.57337">
        <ele>120.78</ele>
        <time>2015-04-27T12:51:17Z</time>
      </trkpt>
      <trkpt lat="48.87728" lon="1.57331">
        <ele>120.78</ele>
        <time>2015-04-27T12:51:28Z</time>
      </trkpt>
      <trkpt lat="48.87741" lon="1.57322">
        <ele>120.78</ele>
        <time>2015-04-27T12:51:39Z</time>
      </trkpt>
      <trkpt lat="48.8775" lon="1.57314">
        <ele>120.78</ele>
        <time>2015-04-27T12:51:48Z</time>
      </trkpt>
      <trkpt lat="48.87759" lon="1.57302">
        <ele>120.78</ele>
        <time>2015-04-27T12:51:57Z</time>
      </trkpt>
      <trkpt lat="48.87768" lon="1.57288">
        <ele>120.78</ele>
        <time>2015-04-27T12:52:06Z</time>
      </trkpt>
      <trkpt lat="48.87775" lon="1.57277">
        <ele>121.26</ele>
        <time>2015-04-27T12:52:15Z</time>
      </trkpt>
      <trkpt lat="48.87781" lon="1.57268">
        <ele>119.82</ele>
        <time>2015-04-27T12:52:21Z</time>
      </trkpt>
      <trkpt lat="48.8779" lon="1.57255">
        <ele>119.82</ele>
        <time>2015-04-27T12:52:31Z</time>
      </trkpt>
      <trkpt lat="48.87799" lon="1.5724">
        <ele>119.82</ele>
        <time>2015-04-27T12:52:42Z</time>
      </trkpt>
      <trkpt lat="48.87808" lon="1.57226">
        <ele>121.26</ele>
        <time>2015-04-27T12:52:52Z</time>
      </trkpt>
      <trkpt lat="48.87809" lon="1.57224">
        <ele>121.26</ele>
        <time>2015-04-27T12:52:53Z</time>
      </trkpt>
      <trkpt lat="48.87817" lon="1.57212">
        <ele>121.26</ele>
        <time>2015-04-27T12:53:02Z</time>
      </trkpt>
      <trkpt lat="48.87826" lon="1.57198">
        <ele>121.74</ele>
        <time>2015-04-27T12:53:12Z</time>
      </trkpt>
      <trkpt lat="48.87834" lon="1.57185">
        <ele>122.22</ele>
        <time>2015-04-27T12:53:22Z</time>
      </trkpt>
      <trkpt lat="48.87839" lon="1.57173">
        <ele>122.22</ele>
        <time>2015-04-27T12:53:31Z</time>
      </trkpt>
      <trkpt lat="48.8784" lon="1.57169">
        <ele>120.78</ele>
        <time>2015-04-27T12:53:33Z</time>
      </trkpt>
      <trkpt lat="48.87839" lon="1.57164">
        <ele>121.74</ele>
        <time>2015-04-27T12:53:37Z</time>
      </trkpt>
      <trkpt lat="48.87839" lon="1.57161">
        <ele>122.22</ele>
        <time>2015-04-27T12:53:47Z</time>
      </trkpt>
      <trkpt lat="48.87838" lon="1.5716">
        <ele>122.22</ele>
        <time>2015-04-27T12:53:48Z</time>
      </trkpt>
      <trkpt lat="48.87833" lon="1.57153">
        <ele>121.74</ele>
        <time>2015-04-27T12:53:56Z</time>
      </trkpt>
      <trkpt lat="48.87833" lon="1.57152">
        <ele>121.74</ele>
        <time>2015-04-27T12:53:57Z</time>
      </trkpt>
      <trkpt lat="48.87832" lon="1.5715">
        <ele>121.74</ele>
        <time>2015-04-27T12:53:59Z</time>
      </trkpt>
      <trkpt lat="48.87828" lon="1.57135">
        <ele>120.78</ele>
        <time>2015-04-27T12:54:09Z</time>
      </trkpt>
      <trkpt lat="48.87823" lon="1.57119">
        <ele>121.26</ele>
        <time>2015-04-27T12:54:19Z</time>
      </trkpt>
      <trkpt lat="48.87821" lon="1.57106">
        <ele>124.15</ele>
        <time>2015-04-27T12:54:26Z</time>
      </trkpt>
      <trkpt lat="48.87816" lon="1.57084">
        <ele>121.74</ele>
        <time>2015-04-27T12:54:38Z</time>
      </trkpt>
      <trkpt lat="48.87815" lon="1.57077">
        <ele>123.19</ele>
        <time>2015-04-27T12:54:42Z</time>
      </trkpt>
      <trkpt lat="48.87811" lon="1.5706">
        <ele>121.26</ele>
        <time>2015-04-27T12:54:52Z</time>
      </trkpt>
      <trkpt lat="48.87806" lon="1.5704">
        <ele>121.26</ele>
        <time>2015-04-27T12:55:03Z</time>
      </trkpt>
      <trkpt lat="48.87802" lon="1.57019">
        <ele>121.74</ele>
        <time>2015-04-27T12:55:14Z</time>
      </trkpt>
      <trkpt lat="48.87799" lon="1.57007">
        <ele>123.19</ele>
        <time>2015-04-27T12:55:20Z</time>
      </trkpt>
      <trkpt lat="48.87796" lon="1.56993">
        <ele>121.74</ele>
        <time>2015-04-27T12:55:28Z</time>
      </trkpt>
      <trkpt lat="48.8779" lon="1.56971">
        <ele>121.74</ele>
        <time>2015-04-27T12:55:41Z</time>
      </trkpt>
      <trkpt lat="48.87785" lon="1.5695">
        <ele>121.74</ele>
        <time>2015-04-27T12:55:53Z</time>
      </trkpt>
      <trkpt lat="48.8778" lon="1.56929">
        <ele>121.74</ele>
        <time>2015-04-27T12:56:05Z</time>
      </trkpt>
      <trkpt lat="48.87775" lon="1.56917">
        <ele>123.19</ele>
        <time>2015-04-27T12:56:13Z</time>
      </trkpt>
      <trkpt lat="48.87772" lon="1.56907">
        <ele>121.74</ele>
        <time>2015-04-27T12:56:19Z</time>
      </trkpt>
      <trkpt lat="48.87766" lon="1.56887">
        <ele>121.74</ele>
        <time>2015-04-27T12:56:31Z</time>
      </trkpt>
      <trkpt lat="48.87759" lon="1.5687">
        <ele>122.22</ele>
        <time>2015-04-27T12:56:42Z</time>
      </trkpt>
      <trkpt lat="48.87753" lon="1.56854">
        <ele>122.22</ele>
        <time>2015-04-27T12:56:52Z</time>
      </trkpt>
      <trkpt lat="48.87745" lon="1.56837">
        <ele>122.71</ele>
        <time>2015-04-27T12:57:03Z</time>
      </trkpt>
      <trkpt lat="48.87737" lon="1.56822">
        <ele>120.78</ele>
        <time>2015-04-27T12:57:14Z</time>
      </trkpt>
      <trkpt lat="48.87733" lon="1.5682">
        <ele>122.71</ele>
        <time>2015-04-27T12:57:18Z</time>
      </trkpt>
      <trkpt lat="48.87733" lon="1.56819">
        <ele>122.22</ele>
        <time>2015-04-27T12:57:19Z</time>
      </trkpt>
      <trkpt lat="48.87729" lon="1.5681">
        <ele>122.71</ele>
        <time>2015-04-27T12:57:26Z</time>
      </trkpt>
      <trkpt lat="48.87723" lon="1.56798">
        <ele>122.71</ele>
        <time>2015-04-27T12:57:35Z</time>
      </trkpt>
      <trkpt lat="48.87715" lon="1.56782">
        <ele>121.26</ele>
        <time>2015-04-27T12:57:46Z</time>
      </trkpt>
      <trkpt lat="48.87706" lon="1.56768">
        <ele>121.74</ele>
        <time>2015-04-27T12:57:57Z</time>
      </trkpt>
      <trkpt lat="48.87696" lon="1.56754">
        <ele>121.74</ele>
        <time>2015-04-27T12:58:08Z</time>
      </trkpt>
      <trkpt lat="48.87686" lon="1.5674">
        <ele>121.74</ele>
        <time>2015-04-27T12:58:19Z</time>
      </trkpt>
      <trkpt lat="48.8768" lon="1.56733">
        <ele>121.74</ele>
        <time>2015-04-27T12:58:27Z</time>
      </trkpt>
      <trkpt lat="48.87668" lon="1.56722">
        <ele>121.74</ele>
        <time>2015-04-27T12:58:38Z</time>
      </trkpt>
      <trkpt lat="48.87655" lon="1.56709">
        <ele>122.22</ele>
        <time>2015-04-27T12:58:50Z</time>
      </trkpt>
      <trkpt lat="48.87641" lon="1.56696">
        <ele>122.22</ele>
        <time>2015-04-27T12:59:02Z</time>
      </trkpt>
      <trkpt lat="48.87629" lon="1.56685">
        <ele>122.71</ele>
        <time>2015-04-27T12:59:13Z</time>
      </trkpt>
      <trkpt lat="48.87619" lon="1.56674">
        <ele>122.71</ele>
        <time>2015-04-27T12:59:23Z</time>
      </trkpt>
      <trkpt lat="48.87607" lon="1.56662">
        <ele>122.71</ele>
        <time>2015-04-27T12:59:34Z</time>
      </trkpt>
      <trkpt lat="48.87594" lon="1.56649">
        <ele>122.71</ele>
        <time>2015-04-27T12:59:45Z</time>
      </trkpt>
      <trkpt lat="48.8758" lon="1.56633">
        <ele>122.71</ele>
        <time>2015-04-27T12:59:58Z</time>
      </trkpt>
      <trkpt lat="48.87568" lon="1.5662">
        <ele>122.71</ele>
        <time>2015-04-27T13:00:09Z</time>
      </trkpt>
      <trkpt lat="48.87557" lon="1.56606">
        <ele>122.71</ele>
        <time>2015-04-27T13:00:20Z</time>
      </trkpt>
      <trkpt lat="48.87545" lon="1.56592">
        <ele>122.71</ele>
        <time>2015-04-27T13:00:31Z</time>
      </trkpt>
      <trkpt lat="48.87534" lon="1.56578">
        <ele>123.19</ele>
        <time>2015-04-27T13:00:43Z</time>
      </trkpt>
      <trkpt lat="48.87525" lon="1.56566">
        <ele>123.19</ele>
        <time>2015-04-27T13:00:53Z</time>
      </trkpt>
      <trkpt lat="48.87515" lon="1.56552">
        <ele>123.19</ele>
        <time>2015-04-27T13:01:04Z</time>
      </trkpt>
      <trkpt lat="48.87504" lon="1.56535">
        <ele>124.15</ele>
        <time>2015-04-27T13:01:16Z</time>
      </trkpt>
      <trkpt lat="48.87495" lon="1.56519">
        <ele>124.15</ele>
        <time>2015-04-27T13:01:27Z</time>
      </trkpt>
      <trkpt lat="48.87487" lon="1.56503">
        <ele>124.15</ele>
        <time>2015-04-27T13:01:38Z</time>
      </trkpt>
      <trkpt lat="48.87477" lon="1.56485">
        <ele>123.19</ele>
        <time>2015-04-27T13:01:50Z</time>
      </trkpt>
      <trkpt lat="48.87469" lon="1.56468">
        <ele>123.19</ele>
        <time>2015-04-27T13:02:01Z</time>
      </trkpt>
      <trkpt lat="48.87461" lon="1.56453">
        <ele>123.19</ele>
        <time>2015-04-27T13:02:11Z</time>
      </trkpt>
      <trkpt lat="48.87451" lon="1.56436">
        <ele>123.19</ele>
        <time>2015-04-27T13:02:23Z</time>
      </trkpt>
      <trkpt lat="48.87448" lon="1.56431">
        <ele>123.19</ele>
        <time>2015-04-27T13:02:28Z</time>
      </trkpt>
      <trkpt lat="48.87439" lon="1.56416">
        <ele>123.19</ele>
        <time>2015-04-27T13:02:38Z</time>
      </trkpt>
      <trkpt lat="48.8743" lon="1.56402">
        <ele>123.19</ele>
        <time>2015-04-27T13:02:49Z</time>
      </trkpt>
      <trkpt lat="48.87421" lon="1.5639">
        <ele>123.19</ele>
        <time>2015-04-27T13:02:59Z</time>
      </trkpt>
      <trkpt lat="48.87415" lon="1.56387">
        <ele>123.67</ele>
        <time>2015-04-27T13:03:07Z</time>
      </trkpt>
      <trkpt lat="48.87407" lon="1.56385">
        <ele>123.67</ele>
        <time>2015-04-27T13:03:14Z</time>
      </trkpt>
      <trkpt lat="48.874" lon="1.56382">
        <ele>124.63</ele>
        <time>2015-04-27T13:03:20Z</time>
      </trkpt>
      <trkpt lat="48.8739" lon="1.56378">
        <ele>124.63</ele>
        <time>2015-04-27T13:03:29Z</time>
      </trkpt>
      <trkpt lat="48.87383" lon="1.56375">
        <ele>125.11</ele>
        <time>2015-04-27T13:03:35Z</time>
      </trkpt>
      <trkpt lat="48.87365" lon="1.56372">
        <ele>125.11</ele>
        <time>2015-04-27T13:03:49Z</time>
      </trkpt>
      <trkpt lat="48.87351" lon="1.5637">
        <ele>125.11</ele>
        <time>2015-04-27T13:04:00Z</time>
      </trkpt>
      <trkpt lat="48.87349" lon="1.5637">
        <ele>125.11</ele>
        <time>2015-04-27T13:04:03Z</time>
      </trkpt>
      <trkpt lat="48.87335" lon="1.56366">
        <ele>125.59</ele>
        <time>2015-04-27T13:04:15Z</time>
      </trkpt>
      <trkpt lat="48.87323" lon="1.56361">
        <ele>125.59</ele>
        <time>2015-04-27T13:04:25Z</time>
      </trkpt>
      <trkpt lat="48.87315" lon="1.56359">
        <ele>125.59</ele>
        <time>2015-04-27T13:04:34Z</time>
      </trkpt>
      <trkpt lat="48.87316" lon="1.5636">
        <ele>125.59</ele>
        <time>2015-04-27T13:04:46Z</time>
      </trkpt>
      <trkpt lat="48.87313" lon="1.56356">
        <ele>125.59</ele>
        <time>2015-04-27T13:04:55Z</time>
      </trkpt>
      <trkpt lat="48.87303" lon="1.56349">
        <ele>125.59</ele>
        <time>2015-04-27T13:05:05Z</time>
      </trkpt>
      <trkpt lat="48.87294" lon="1.56339">
        <ele>126.07</ele>
        <time>2015-04-27T13:05:15Z</time>
      </trkpt>
      <trkpt lat="48.87284" lon="1.56328">
        <ele>126.07</ele>
        <time>2015-04-27T13:05:26Z</time>
      </trkpt>
      <trkpt lat="48.87275" lon="1.56316">
        <ele>126.07</ele>
        <time>2015-04-27T13:05:36Z</time>
      </trkpt>
      <trkpt lat="48.87264" lon="1.56307">
        <ele>126.07</ele>
        <time>2015-04-27T13:05:46Z</time>
      </trkpt>
      <trkpt lat="48.87264" lon="1.56305">
        <ele>126.07</ele>
        <time>2015-04-27T13:05:55Z</time>
      </trkpt>
      <trkpt lat="48.87264" lon="1.56304">
        <ele>126.55</ele>
        <time>2015-04-27T13:06:11Z</time>
      </trkpt>
      <trkpt lat="48.87265" lon="1.56303">
        <ele>126.55</ele>
        <time>2015-04-27T13:06:27Z</time>
      </trkpt>
      <trkpt lat="48.87266" lon="1.56303">
        <ele>126.55</ele>
        <time>2015-04-27T13:06:47Z</time>
      </trkpt>
      <trkpt lat="48.87266" lon="1.563">
        <ele>127.03</ele>
        <time>2015-04-27T13:07:08Z</time>
      </trkpt>
      <trkpt lat="48.87264" lon="1.56307">
        <ele>127.03</ele>
        <time>2015-04-27T13:07:25Z</time>
      </trkpt>
      <trkpt lat="48.87263" lon="1.56305">
        <ele>127.51</ele>
        <time>2015-04-27T13:07:47Z</time>
      </trkpt>
      <trkpt lat="48.87263" lon="1.56306">
        <ele>127.51</ele>
        <time>2015-04-27T13:08:07Z</time>
      </trkpt>
      <trkpt lat="48.87264" lon="1.56305">
        <ele>126.07</ele>
        <time>2015-04-27T13:08:21Z</time>
      </trkpt>
      <trkpt lat="48.87263" lon="1.56305">
        <ele>126.07</ele>
        <time>2015-04-27T13:08:22Z</time>
      </trkpt>
      <trkpt lat="48.87257" lon="1.56288">
        <ele>126.07</ele>
        <time>2015-04-27T13:08:32Z</time>
      </trkpt>
      <trkpt lat="48.87249" lon="1.56272">
        <ele>126.07</ele>
        <time>2015-04-27T13:08:43Z</time>
      </trkpt>
      <trkpt lat="48.87243" lon="1.56263">
        <ele>126.07</ele>
        <time>2015-04-27T13:08:52Z</time>
      </trkpt>
      <trkpt lat="48.87235" lon="1.56252">
        <ele>126.55</ele>
        <time>2015-04-27T13:09:01Z</time>
      </trkpt>
      <trkpt lat="48.8723" lon="1.56246">
        <ele>127.99</ele>
        <time>2015-04-27T13:09:06Z</time>
      </trkpt>
      <trkpt lat="48.87219" lon="1.56231">
        <ele>127.99</ele>
        <time>2015-04-27T13:09:18Z</time>
      </trkpt>
      <trkpt lat="48.87208" lon="1.56217">
        <ele>127.99</ele>
        <time>2015-04-27T13:09:29Z</time>
      </trkpt>
      <trkpt lat="48.87201" lon="1.56205">
        <ele>127.99</ele>
        <time>2015-04-27T13:09:38Z</time>
      </trkpt>
      <trkpt lat="48.8719" lon="1.56191">
        <ele>127.99</ele>
        <time>2015-04-27T13:09:49Z</time>
      </trkpt>
      <trkpt lat="48.87181" lon="1.56177">
        <ele>128.47</ele>
        <time>2015-04-27T13:09:59Z</time>
      </trkpt>
      <trkpt lat="48.87172" lon="1.56164">
        <ele>128.47</ele>
        <time>2015-04-27T13:10:09Z</time>
      </trkpt>
      <trkpt lat="48.87162" lon="1.5615">
        <ele>128.47</ele>
        <time>2015-04-27T13:10:19Z</time>
      </trkpt>
      <trkpt lat="48.87156" lon="1.5614">
        <ele>128.95</ele>
        <time>2015-04-27T13:10:26Z</time>
      </trkpt>
      <trkpt lat="48.87147" lon="1.56125">
        <ele>128.95</ele>
        <time>2015-04-27T13:10:37Z</time>
      </trkpt>
      <trkpt lat="48.8714" lon="1.56113">
        <ele>129.43</ele>
        <time>2015-04-27T13:10:46Z</time>
      </trkpt>
      <trkpt lat="48.87135" lon="1.56107">
        <ele>129.43</ele>
        <time>2015-04-27T13:10:51Z</time>
      </trkpt>
      <trkpt lat="48.87127" lon="1.561">
        <ele>129.92</ele>
        <time>2015-04-27T13:10:59Z</time>
      </trkpt>
      <trkpt lat="48.87118" lon="1.56096">
        <ele>130.4</ele>
        <time>2015-04-27T13:11:08Z</time>
      </trkpt>
      <trkpt lat="48.87109" lon="1.56097">
        <ele>129.92</ele>
        <time>2015-04-27T13:11:16Z</time>
      </trkpt>
      <trkpt lat="48.87107" lon="1.56096">
        <ele>129.92</ele>
        <time>2015-04-27T13:11:19Z</time>
      </trkpt>
      <trkpt lat="48.87102" lon="1.56095">
        <ele>130.4</ele>
        <time>2015-04-27T13:11:23Z</time>
      </trkpt>
      <trkpt lat="48.8709" lon="1.56098">
        <ele>130.4</ele>
        <time>2015-04-27T13:11:33Z</time>
      </trkpt>
      <trkpt lat="48.87078" lon="1.561">
        <ele>131.36</ele>
        <time>2015-04-27T13:11:43Z</time>
      </trkpt>
      <trkpt lat="48.87065" lon="1.56106">
        <ele>131.36</ele>
        <time>2015-04-27T13:11:53Z</time>
      </trkpt>
      <trkpt lat="48.87053" lon="1.56109">
        <ele>132.32</ele>
        <time>2015-04-27T13:12:03Z</time>
      </trkpt>
      <trkpt lat="48.87042" lon="1.56109">
        <ele>132.8</ele>
        <time>2015-04-27T13:12:13Z</time>
      </trkpt>
      <trkpt lat="48.87032" lon="1.56107">
        <ele>133.28</ele>
        <time>2015-04-27T13:12:22Z</time>
      </trkpt>
      <trkpt lat="48.87024" lon="1.56104">
        <ele>133.76</ele>
        <time>2015-04-27T13:12:31Z</time>
      </trkpt>
      <trkpt lat="48.87024" lon="1.56103">
        <ele>133.76</ele>
        <time>2015-04-27T13:12:37Z</time>
      </trkpt>
      <trkpt lat="48.87013" lon="1.56099">
        <ele>133.76</ele>
        <time>2015-04-27T13:12:46Z</time>
      </trkpt>
      <trkpt lat="48.87009" lon="1.56098">
        <ele>133.76</ele>
        <time>2015-04-27T13:12:52Z</time>
      </trkpt>
      <trkpt lat="48.86998" lon="1.56094">
        <ele>133.76</ele>
        <time>2015-04-27T13:13:02Z</time>
      </trkpt>
      <trkpt lat="48.86989" lon="1.56089">
        <ele>133.76</ele>
        <time>2015-04-27T13:13:12Z</time>
      </trkpt>
      <trkpt lat="48.8698" lon="1.56085">
        <ele>133.76</ele>
        <time>2015-04-27T13:13:21Z</time>
      </trkpt>
      <trkpt lat="48.8697" lon="1.5608">
        <ele>133.76</ele>
        <time>2015-04-27T13:13:30Z</time>
      </trkpt>
      <trkpt lat="48.86961" lon="1.56075">
        <ele>133.76</ele>
        <time>2015-04-27T13:13:38Z</time>
      </trkpt>
      <trkpt lat="48.86951" lon="1.56069">
        <ele>134.72</ele>
        <time>2015-04-27T13:13:47Z</time>
      </trkpt>
      <trkpt lat="48.86942" lon="1.56065">
        <ele>132.8</ele>
        <time>2015-04-27T13:13:55Z</time>
      </trkpt>
      <trkpt lat="48.86933" lon="1.56061">
        <ele>134.72</ele>
        <time>2015-04-27T13:14:03Z</time>
      </trkpt>
      <trkpt lat="48.86921" lon="1.56053">
        <ele>134.72</ele>
        <time>2015-04-27T13:14:14Z</time>
      </trkpt>
      <trkpt lat="48.86911" lon="1.56045">
        <ele>134.72</ele>
        <time>2015-04-27T13:14:24Z</time>
      </trkpt>
      <trkpt lat="48.86908" lon="1.56043">
        <ele>135.68</ele>
        <time>2015-04-27T13:14:27Z</time>
      </trkpt>
      <trkpt lat="48.86901" lon="1.56034">
        <ele>135.68</ele>
        <time>2015-04-27T13:14:36Z</time>
      </trkpt>
      <trkpt lat="48.86895" lon="1.56026">
        <ele>135.68</ele>
        <time>2015-04-27T13:14:43Z</time>
      </trkpt>
      <trkpt lat="48.86886" lon="1.56018">
        <ele>136.16</ele>
        <time>2015-04-27T13:14:52Z</time>
      </trkpt>
      <trkpt lat="48.86879" lon="1.56011">
        <ele>135.68</ele>
        <time>2015-04-27T13:14:59Z</time>
      </trkpt>
      <trkpt lat="48.86871" lon="1.56">
        <ele>135.68</ele>
        <time>2015-04-27T13:15:09Z</time>
      </trkpt>
      <trkpt lat="48.86869" lon="1.55998">
        <ele>136.16</ele>
        <time>2015-04-27T13:15:11Z</time>
      </trkpt>
      <trkpt lat="48.86861" lon="1.55986">
        <ele>136.16</ele>
        <time>2015-04-27T13:15:20Z</time>
      </trkpt>
      <trkpt lat="48.86852" lon="1.55976">
        <ele>136.64</ele>
        <time>2015-04-27T13:15:30Z</time>
      </trkpt>
      <trkpt lat="48.86845" lon="1.55963">
        <ele>136.64</ele>
        <time>2015-04-27T13:15:39Z</time>
      </trkpt>
      <trkpt lat="48.86838" lon="1.55957">
        <ele>138.09</ele>
        <time>2015-04-27T13:15:45Z</time>
      </trkpt>
      <trkpt lat="48.86833" lon="1.55952">
        <ele>138.09</ele>
        <time>2015-04-27T13:15:50Z</time>
      </trkpt>
      <trkpt lat="48.86824" lon="1.55942">
        <ele>139.05</ele>
        <time>2015-04-27T13:16:00Z</time>
      </trkpt>
      <trkpt lat="48.86814" lon="1.55934">
        <ele>138.57</ele>
        <time>2015-04-27T13:16:10Z</time>
      </trkpt>
      <trkpt lat="48.86813" lon="1.55934">
        <ele>138.57</ele>
        <time>2015-04-27T13:16:11Z</time>
      </trkpt>
      <trkpt lat="48.86803" lon="1.55931">
        <ele>139.53</ele>
        <time>2015-04-27T13:16:20Z</time>
      </trkpt>
      <trkpt lat="48.86793" lon="1.5593">
        <ele>140.49</ele>
        <time>2015-04-27T13:16:28Z</time>
      </trkpt>
      <trkpt lat="48.86783" lon="1.5593">
        <ele>140.49</ele>
        <time>2015-04-27T13:16:36Z</time>
      </trkpt>
      <trkpt lat="48.86774" lon="1.55926">
        <ele>140.97</ele>
        <time>2015-04-27T13:16:44Z</time>
      </trkpt>
      <trkpt lat="48.86772" lon="1.55923">
        <ele>141.45</ele>
        <time>2015-04-27T13:16:51Z</time>
      </trkpt>
      <trkpt lat="48.86771" lon="1.5592">
        <ele>141.93</ele>
        <time>2015-04-27T13:17:00Z</time>
      </trkpt>
      <trkpt lat="48.8677" lon="1.55918">
        <ele>141.93</ele>
        <time>2015-04-27T13:17:08Z</time>
      </trkpt>
      <trkpt lat="48.86771" lon="1.5591">
        <ele>141.93</ele>
        <time>2015-04-27T13:17:15Z</time>
      </trkpt>
      <trkpt lat="48.86773" lon="1.55904">
        <ele>141.93</ele>
        <time>2015-04-27T13:17:24Z</time>
      </trkpt>
      <trkpt lat="48.86774" lon="1.55902">
        <ele>141.93</ele>
        <time>2015-04-27T13:17:26Z</time>
      </trkpt>
      <trkpt lat="48.86776" lon="1.55888">
        <ele>141.93</ele>
        <time>2015-04-27T13:17:35Z</time>
      </trkpt>
      <trkpt lat="48.86777" lon="1.55885">
        <ele>141.93</ele>
        <time>2015-04-27T13:17:37Z</time>
      </trkpt>
      <trkpt lat="48.86782" lon="1.55866">
        <ele>141.93</ele>
        <time>2015-04-27T13:17:48Z</time>
      </trkpt>
      <trkpt lat="48.86786" lon="1.55854">
        <ele>141.93</ele>
        <time>2015-04-27T13:17:57Z</time>
      </trkpt>
      <trkpt lat="48.8679" lon="1.5584">
        <ele>142.89</ele>
        <time>2015-04-27T13:18:06Z</time>
      </trkpt>
      <trkpt lat="48.86794" lon="1.55824">
        <ele>143.37</ele>
        <time>2015-04-27T13:18:16Z</time>
      </trkpt>
      <trkpt lat="48.86799" lon="1.55808">
        <ele>144.82</ele>
        <time>2015-04-27T13:18:26Z</time>
      </trkpt>
      <trkpt lat="48.86804" lon="1.55794">
        <ele>144.82</ele>
        <time>2015-04-27T13:18:35Z</time>
      </trkpt>
      <trkpt lat="48.86805" lon="1.55788">
        <ele>145.3</ele>
        <time>2015-04-27T13:18:40Z</time>
      </trkpt>
      <trkpt lat="48.8681" lon="1.55773">
        <ele>145.3</ele>
        <time>2015-04-27T13:18:50Z</time>
      </trkpt>
      <trkpt lat="48.86817" lon="1.55757">
        <ele>145.78</ele>
        <time>2015-04-27T13:19:00Z</time>
      </trkpt>
      <trkpt lat="48.86823" lon="1.55743">
        <ele>145.78</ele>
        <time>2015-04-27T13:19:09Z</time>
      </trkpt>
      <trkpt lat="48.86828" lon="1.55731">
        <ele>145.78</ele>
        <time>2015-04-27T13:19:17Z</time>
      </trkpt>
      <trkpt lat="48.86833" lon="1.55716">
        <ele>146.74</ele>
        <time>2015-04-27T13:19:27Z</time>
      </trkpt>
      <trkpt lat="48.86836" lon="1.55704">
        <ele>146.74</ele>
        <time>2015-04-27T13:19:35Z</time>
      </trkpt>
      <trkpt lat="48.86841" lon="1.55689">
        <ele>147.7</ele>
        <time>2015-04-27T13:19:45Z</time>
      </trkpt>
      <trkpt lat="48.86844" lon="1.55674">
        <ele>147.7</ele>
        <time>2015-04-27T13:19:54Z</time>
      </trkpt>
      <trkpt lat="48.86845" lon="1.55669">
        <ele>146.26</ele>
        <time>2015-04-27T13:19:57Z</time>
      </trkpt>
      <trkpt lat="48.86847" lon="1.55663">
        <ele>147.7</ele>
        <time>2015-04-27T13:20:01Z</time>
      </trkpt>
      <trkpt lat="48.8685" lon="1.55654">
        <ele>146.26</ele>
        <time>2015-04-27T13:20:06Z</time>
      </trkpt>
      <trkpt lat="48.86855" lon="1.55639">
        <ele>147.7</ele>
        <time>2015-04-27T13:20:15Z</time>
      </trkpt>
      <trkpt lat="48.86856" lon="1.55637">
        <ele>147.7</ele>
        <time>2015-04-27T13:20:16Z</time>
      </trkpt>
      <trkpt lat="48.86861" lon="1.55619">
        <ele>147.7</ele>
        <time>2015-04-27T13:20:26Z</time>
      </trkpt>
      <trkpt lat="48.86865" lon="1.55608">
        <ele>144.82</ele>
        <time>2015-04-27T13:20:32Z</time>
      </trkpt>
      <trkpt lat="48.86866" lon="1.55604">
        <ele>146.26</ele>
        <time>2015-04-27T13:20:34Z</time>
      </trkpt>
      <trkpt lat="48.86874" lon="1.55585">
        <ele>147.22</ele>
        <time>2015-04-27T13:20:45Z</time>
      </trkpt>
      <trkpt lat="48.86877" lon="1.55577">
        <ele>146.26</ele>
        <time>2015-04-27T13:20:50Z</time>
      </trkpt>
      <trkpt lat="48.86883" lon="1.55562">
        <ele>146.26</ele>
        <time>2015-04-27T13:20:59Z</time>
      </trkpt>
      <trkpt lat="48.8689" lon="1.55545">
        <ele>146.26</ele>
        <time>2015-04-27T13:21:09Z</time>
      </trkpt>
      <trkpt lat="48.86897" lon="1.55527">
        <ele>146.26</ele>
        <time>2015-04-27T13:21:20Z</time>
      </trkpt>
      <trkpt lat="48.86904" lon="1.55511">
        <ele>145.3</ele>
        <time>2015-04-27T13:21:30Z</time>
      </trkpt>
      <trkpt lat="48.8691" lon="1.55497">
        <ele>145.3</ele>
        <time>2015-04-27T13:21:39Z</time>
      </trkpt>
      <trkpt lat="48.86916" lon="1.55483">
        <ele>145.3</ele>
        <time>2015-04-27T13:21:48Z</time>
      </trkpt>
      <trkpt lat="48.86921" lon="1.55467">
        <ele>146.74</ele>
        <time>2015-04-27T13:21:57Z</time>
      </trkpt>
      <trkpt lat="48.86928" lon="1.55453">
        <ele>146.74</ele>
        <time>2015-04-27T13:22:06Z</time>
      </trkpt>
      <trkpt lat="48.86936" lon="1.55435">
        <ele>145.3</ele>
        <time>2015-04-27T13:22:17Z</time>
      </trkpt>
      <trkpt lat="48.86943" lon="1.55421">
        <ele>144.82</ele>
        <time>2015-04-27T13:22:27Z</time>
      </trkpt>
      <trkpt lat="48.86951" lon="1.55405">
        <ele>145.3</ele>
        <time>2015-04-27T13:22:37Z</time>
      </trkpt>
      <trkpt lat="48.86958" lon="1.55391">
        <ele>145.78</ele>
        <time>2015-04-27T13:22:46Z</time>
      </trkpt>
      <trkpt lat="48.86964" lon="1.55383">
        <ele>144.34</ele>
        <time>2015-04-27T13:22:52Z</time>
      </trkpt>
      <trkpt lat="48.86969" lon="1.55371">
        <ele>144.34</ele>
        <time>2015-04-27T13:23:00Z</time>
      </trkpt>
      <trkpt lat="48.86978" lon="1.55355">
        <ele>144.34</ele>
        <time>2015-04-27T13:23:10Z</time>
      </trkpt>
      <trkpt lat="48.86984" lon="1.55343">
        <ele>143.85</ele>
        <time>2015-04-27T13:23:18Z</time>
      </trkpt>
      <trkpt lat="48.86991" lon="1.55329">
        <ele>144.82</ele>
        <time>2015-04-27T13:23:27Z</time>
      </trkpt>
      <trkpt lat="48.86992" lon="1.55328">
        <ele>144.82</ele>
        <time>2015-04-27T13:23:28Z</time>
      </trkpt>
      <trkpt lat="48.87" lon="1.55312">
        <ele>144.82</ele>
        <time>2015-04-27T13:23:38Z</time>
      </trkpt>
      <trkpt lat="48.87009" lon="1.55293">
        <ele>145.3</ele>
        <time>2015-04-27T13:23:49Z</time>
      </trkpt>
      <trkpt lat="48.87013" lon="1.55282">
        <ele>145.3</ele>
        <time>2015-04-27T13:23:57Z</time>
      </trkpt>
      <trkpt lat="48.87004" lon="1.55272">
        <ele>145.78</ele>
        <time>2015-04-27T13:24:07Z</time>
      </trkpt>
      <trkpt lat="48.86996" lon="1.55262">
        <ele>145.78</ele>
        <time>2015-04-27T13:24:15Z</time>
      </trkpt>
      <trkpt lat="48.86983" lon="1.55246">
        <ele>145.78</ele>
        <time>2015-04-27T13:24:29Z</time>
      </trkpt>
      <trkpt lat="48.86978" lon="1.55239">
        <ele>144.34</ele>
        <time>2015-04-27T13:24:35Z</time>
      </trkpt>
      <trkpt lat="48.86966" lon="1.55226">
        <ele>143.85</ele>
        <time>2015-04-27T13:24:47Z</time>
      </trkpt>
      <trkpt lat="48.86956" lon="1.55214">
        <ele>143.85</ele>
        <time>2015-04-27T13:24:57Z</time>
      </trkpt>
      <trkpt lat="48.86947" lon="1.55203">
        <ele>142.89</ele>
        <time>2015-04-27T13:25:07Z</time>
      </trkpt>
      <trkpt lat="48.86937" lon="1.55193">
        <ele>142.89</ele>
        <time>2015-04-27T13:25:17Z</time>
      </trkpt>
      <trkpt lat="48.86925" lon="1.55179">
        <ele>141.93</ele>
        <time>2015-04-27T13:25:29Z</time>
      </trkpt>
      <trkpt lat="48.86913" lon="1.55165">
        <ele>142.41</ele>
        <time>2015-04-27T13:25:41Z</time>
      </trkpt>
      <trkpt lat="48.86902" lon="1.55153">
        <ele>140.49</ele>
        <time>2015-04-27T13:25:51Z</time>
      </trkpt>
      <trkpt lat="48.86894" lon="1.55144">
        <ele>140.49</ele>
        <time>2015-04-27T13:25:59Z</time>
      </trkpt>
      <trkpt lat="48.86886" lon="1.55134">
        <ele>140.01</ele>
        <time>2015-04-27T13:26:06Z</time>
      </trkpt>
      <trkpt lat="48.86878" lon="1.55122">
        <ele>140.01</ele>
        <time>2015-04-27T13:26:15Z</time>
      </trkpt>
      <trkpt lat="48.8687" lon="1.5511">
        <ele>139.05</ele>
        <time>2015-04-27T13:26:24Z</time>
      </trkpt>
      <trkpt lat="48.86863" lon="1.55099">
        <ele>139.05</ele>
        <time>2015-04-27T13:26:32Z</time>
      </trkpt>
      <trkpt lat="48.86861" lon="1.55097">
        <ele>140.49</ele>
        <time>2015-04-27T13:26:34Z</time>
      </trkpt>
      <trkpt lat="48.8686" lon="1.55095">
        <ele>139.05</ele>
        <time>2015-04-27T13:26:36Z</time>
      </trkpt>
      <trkpt lat="48.86853" lon="1.55084">
        <ele>139.05</ele>
        <time>2015-04-27T13:26:44Z</time>
      </trkpt>
      <trkpt lat="48.86847" lon="1.55074">
        <ele>139.05</ele>
        <time>2015-04-27T13:26:52Z</time>
      </trkpt>
      <trkpt lat="48.86837" lon="1.55063">
        <ele>138.57</ele>
        <time>2015-04-27T13:27:02Z</time>
      </trkpt>
      <trkpt lat="48.8683" lon="1.55051">
        <ele>138.09</ele>
        <time>2015-04-27T13:27:12Z</time>
      </trkpt>
      <trkpt lat="48.86819" lon="1.55036">
        <ele>138.09</ele>
        <time>2015-04-27T13:27:22Z</time>
      </trkpt>
      <trkpt lat="48.86809" lon="1.5502">
        <ele>138.09</ele>
        <time>2015-04-27T13:27:32Z</time>
      </trkpt>
      <trkpt lat="48.86802" lon="1.55002">
        <ele>137.61</ele>
        <time>2015-04-27T13:27:41Z</time>
      </trkpt>
      <trkpt lat="48.86796" lon="1.54986">
        <ele>138.09</ele>
        <time>2015-04-27T13:27:50Z</time>
      </trkpt>
      <trkpt lat="48.86794" lon="1.5498">
        <ele>138.09</ele>
        <time>2015-04-27T13:27:54Z</time>
      </trkpt>
      <trkpt lat="48.86793" lon="1.54977">
        <ele>137.61</ele>
        <time>2015-04-27T13:27:56Z</time>
      </trkpt>
      <trkpt lat="48.8679" lon="1.5497">
        <ele>138.57</ele>
        <time>2015-04-27T13:28:00Z</time>
      </trkpt>
      <trkpt lat="48.86785" lon="1.54956">
        <ele>138.57</ele>
        <time>2015-04-27T13:28:09Z</time>
      </trkpt>
      <trkpt lat="48.86781" lon="1.5494">
        <ele>138.57</ele>
        <time>2015-04-27T13:28:19Z</time>
      </trkpt>
      <trkpt lat="48.86774" lon="1.5492">
        <ele>137.13</ele>
        <time>2015-04-27T13:28:30Z</time>
      </trkpt>
      <trkpt lat="48.86769" lon="1.54903">
        <ele>136.64</ele>
        <time>2015-04-27T13:28:41Z</time>
      </trkpt>
      <trkpt lat="48.86764" lon="1.54886">
        <ele>136.64</ele>
        <time>2015-04-27T13:28:49Z</time>
      </trkpt>
      <trkpt lat="48.86757" lon="1.54872">
        <ele>136.64</ele>
        <time>2015-04-27T13:28:58Z</time>
      </trkpt>
      <trkpt lat="48.86751" lon="1.54858">
        <ele>136.16</ele>
        <time>2015-04-27T13:29:08Z</time>
      </trkpt>
      <trkpt lat="48.86744" lon="1.54839">
        <ele>135.68</ele>
        <time>2015-04-27T13:29:18Z</time>
      </trkpt>
      <trkpt lat="48.8674" lon="1.54822">
        <ele>135.68</ele>
        <time>2015-04-27T13:29:26Z</time>
      </trkpt>
      <trkpt lat="48.86738" lon="1.54816">
        <ele>136.64</ele>
        <time>2015-04-27T13:29:29Z</time>
      </trkpt>
      <trkpt lat="48.86735" lon="1.54808">
        <ele>136.64</ele>
        <time>2015-04-27T13:29:33Z</time>
      </trkpt>
      <trkpt lat="48.8673" lon="1.54793">
        <ele>136.16</ele>
        <time>2015-04-27T13:29:42Z</time>
      </trkpt>
      <trkpt lat="48.86726" lon="1.5478">
        <ele>136.16</ele>
        <time>2015-04-27T13:29:50Z</time>
      </trkpt>
      <trkpt lat="48.86726" lon="1.54759">
        <ele>136.16</ele>
        <time>2015-04-27T13:30:02Z</time>
      </trkpt>
      <trkpt lat="48.86725" lon="1.54743">
        <ele>136.16</ele>
        <time>2015-04-27T13:30:10Z</time>
      </trkpt>
      <trkpt lat="48.86722" lon="1.54726">
        <ele>136.16</ele>
        <time>2015-04-27T13:30:19Z</time>
      </trkpt>
      <trkpt lat="48.86722" lon="1.54718">
        <ele>136.16</ele>
        <time>2015-04-27T13:30:23Z</time>
      </trkpt>
      <trkpt lat="48.86717" lon="1.54696">
        <ele>135.2</ele>
        <time>2015-04-27T13:30:34Z</time>
      </trkpt>
      <trkpt lat="48.86715" lon="1.54681">
        <ele>135.2</ele>
        <time>2015-04-27T13:30:42Z</time>
      </trkpt>
      <trkpt lat="48.86712" lon="1.54662">
        <ele>134.72</ele>
        <time>2015-04-27T13:30:52Z</time>
      </trkpt>
      <trkpt lat="48.86712" lon="1.54655">
        <ele>134.72</ele>
        <time>2015-04-27T13:30:55Z</time>
      </trkpt>
      <trkpt lat="48.86707" lon="1.54638">
        <ele>133.76</ele>
        <time>2015-04-27T13:31:05Z</time>
      </trkpt>
      <trkpt lat="48.86701" lon="1.54616">
        <ele>132.8</ele>
        <time>2015-04-27T13:31:17Z</time>
      </trkpt>
      <trkpt lat="48.86699" lon="1.54603">
        <ele>134.72</ele>
        <time>2015-04-27T13:31:25Z</time>
      </trkpt>
      <trkpt lat="48.86694" lon="1.54585">
        <ele>134.72</ele>
        <time>2015-04-27T13:31:34Z</time>
      </trkpt>
      <trkpt lat="48.8669" lon="1.54569">
        <ele>133.28</ele>
        <time>2015-04-27T13:31:42Z</time>
      </trkpt>
      <trkpt lat="48.86685" lon="1.54554">
        <ele>132.32</ele>
        <time>2015-04-27T13:31:50Z</time>
      </trkpt>
      <trkpt lat="48.86683" lon="1.54549">
        <ele>132.32</ele>
        <time>2015-04-27T13:31:53Z</time>
      </trkpt>
      <trkpt lat="48.8668" lon="1.5454">
        <ele>131.36</ele>
        <time>2015-04-27T13:31:58Z</time>
      </trkpt>
      <trkpt lat="48.86678" lon="1.54537">
        <ele>130.88</ele>
        <time>2015-04-27T13:32:00Z</time>
      </trkpt>
      <trkpt lat="48.86671" lon="1.54519">
        <ele>130.88</ele>
        <time>2015-04-27T13:32:10Z</time>
      </trkpt>
      <trkpt lat="48.86665" lon="1.54505">
        <ele>130.88</ele>
        <time>2015-04-27T13:32:19Z</time>
      </trkpt>
      <trkpt lat="48.86661" lon="1.54497">
        <ele>132.32</ele>
        <time>2015-04-27T13:32:24Z</time>
      </trkpt>
      <trkpt lat="48.86654" lon="1.54481">
        <ele>132.8</ele>
        <time>2015-04-27T13:32:34Z</time>
      </trkpt>
      <trkpt lat="48.86649" lon="1.54471">
        <ele>132.8</ele>
        <time>2015-04-27T13:32:41Z</time>
      </trkpt>
      <trkpt lat="48.86641" lon="1.54452">
        <ele>132.8</ele>
        <time>2015-04-27T13:32:52Z</time>
      </trkpt>
      <trkpt lat="48.86639" lon="1.54446">
        <ele>132.8</ele>
        <time>2015-04-27T13:32:59Z</time>
      </trkpt>
      <trkpt lat="48.86634" lon="1.54428">
        <ele>131.84</ele>
        <time>2015-04-27T13:33:09Z</time>
      </trkpt>
      <trkpt lat="48.8663" lon="1.54413">
        <ele>131.36</ele>
        <time>2015-04-27T13:33:18Z</time>
      </trkpt>
      <trkpt lat="48.86629" lon="1.54408">
        <ele>131.36</ele>
        <time>2015-04-27T13:33:23Z</time>
      </trkpt>
      <trkpt lat="48.86623" lon="1.54388">
        <ele>132.32</ele>
        <time>2015-04-27T13:33:35Z</time>
      </trkpt>
      <trkpt lat="48.86619" lon="1.54368">
        <ele>133.28</ele>
        <time>2015-04-27T13:33:46Z</time>
      </trkpt>
      <trkpt lat="48.86614" lon="1.54347">
        <ele>133.28</ele>
        <time>2015-04-27T13:33:57Z</time>
      </trkpt>
      <trkpt lat="48.86611" lon="1.54336">
        <ele>131.84</ele>
        <time>2015-04-27T13:34:03Z</time>
      </trkpt>
      <trkpt lat="48.86609" lon="1.54321">
        <ele>131.84</ele>
        <time>2015-04-27T13:34:12Z</time>
      </trkpt>
      <trkpt lat="48.86606" lon="1.54304">
        <ele>131.84</ele>
        <time>2015-04-27T13:34:22Z</time>
      </trkpt>
      <trkpt lat="48.86604" lon="1.543">
        <ele>131.84</ele>
        <time>2015-04-27T13:34:25Z</time>
      </trkpt>
      <trkpt lat="48.86605" lon="1.54291">
        <ele>131.84</ele>
        <time>2015-04-27T13:34:32Z</time>
      </trkpt>
      <trkpt lat="48.86607" lon="1.54287">
        <ele>131.84</ele>
        <time>2015-04-27T13:34:35Z</time>
      </trkpt>
      <trkpt lat="48.86616" lon="1.5428">
        <ele>131.84</ele>
        <time>2015-04-27T13:34:45Z</time>
      </trkpt>
      <trkpt lat="48.86623" lon="1.54278">
        <ele>132.8</ele>
        <time>2015-04-27T13:34:54Z</time>
      </trkpt>
      <trkpt lat="48.86627" lon="1.54278">
        <ele>131.84</ele>
        <time>2015-04-27T13:35:01Z</time>
      </trkpt>
      <trkpt lat="48.86641" lon="1.54274">
        <ele>131.84</ele>
        <time>2015-04-27T13:35:13Z</time>
      </trkpt>
      <trkpt lat="48.86652" lon="1.5427">
        <ele>132.8</ele>
        <time>2015-04-27T13:35:23Z</time>
      </trkpt>
      <trkpt lat="48.86663" lon="1.54267">
        <ele>132.8</ele>
        <time>2015-04-27T13:35:32Z</time>
      </trkpt>
      <trkpt lat="48.86673" lon="1.54264">
        <ele>132.8</ele>
        <time>2015-04-27T13:35:41Z</time>
      </trkpt>
      <trkpt lat="48.86685" lon="1.54261">
        <ele>132.8</ele>
        <time>2015-04-27T13:35:51Z</time>
      </trkpt>
      <trkpt lat="48.86699" lon="1.54256">
        <ele>133.28</ele>
        <time>2015-04-27T13:36:03Z</time>
      </trkpt>
      <trkpt lat="48.86714" lon="1.54251">
        <ele>133.28</ele>
        <time>2015-04-27T13:36:16Z</time>
      </trkpt>
      <trkpt lat="48.86727" lon="1.54246">
        <ele>133.28</ele>
        <time>2015-04-27T13:36:27Z</time>
      </trkpt>
      <trkpt lat="48.86739" lon="1.54241">
        <ele>133.76</ele>
        <time>2015-04-27T13:36:38Z</time>
      </trkpt>
      <trkpt lat="48.86751" lon="1.54235">
        <ele>133.76</ele>
        <time>2015-04-27T13:36:49Z</time>
      </trkpt>
      <trkpt lat="48.86761" lon="1.54229">
        <ele>133.76</ele>
        <time>2015-04-27T13:37:00Z</time>
      </trkpt>
      <trkpt lat="48.86766" lon="1.54226">
        <ele>135.2</ele>
        <time>2015-04-27T13:37:09Z</time>
      </trkpt>
      <trkpt lat="48.86777" lon="1.54219">
        <ele>134.72</ele>
        <time>2015-04-27T13:37:19Z</time>
      </trkpt>
      <trkpt lat="48.86788" lon="1.54209">
        <ele>135.2</ele>
        <time>2015-04-27T13:37:29Z</time>
      </trkpt>
      <trkpt lat="48.86796" lon="1.54202">
        <ele>135.2</ele>
        <time>2015-04-27T13:37:37Z</time>
      </trkpt>
      <trkpt lat="48.86802" lon="1.54191">
        <ele>135.68</ele>
        <time>2015-04-27T13:37:46Z</time>
      </trkpt>
      <trkpt lat="48.86809" lon="1.54183">
        <ele>135.68</ele>
        <time>2015-04-27T13:37:56Z</time>
      </trkpt>
      <trkpt lat="48.86816" lon="1.54169">
        <ele>136.16</ele>
        <time>2015-04-27T13:38:07Z</time>
      </trkpt>
      <trkpt lat="48.86824" lon="1.54152">
        <ele>135.68</ele>
        <time>2015-04-27T13:38:18Z</time>
      </trkpt>
      <trkpt lat="48.86831" lon="1.54136">
        <ele>136.16</ele>
        <time>2015-04-27T13:38:28Z</time>
      </trkpt>
      <trkpt lat="48.86837" lon="1.5412">
        <ele>136.16</ele>
        <time>2015-04-27T13:38:37Z</time>
      </trkpt>
      <trkpt lat="48.86843" lon="1.54102">
        <ele>136.16</ele>
        <time>2015-04-27T13:38:47Z</time>
      </trkpt>
      <trkpt lat="48.86847" lon="1.54089">
        <ele>136.16</ele>
        <time>2015-04-27T13:38:56Z</time>
      </trkpt>
      <trkpt lat="48.8685" lon="1.54075">
        <ele>134.72</ele>
        <time>2015-04-27T13:39:05Z</time>
      </trkpt>
      <trkpt lat="48.86853" lon="1.54059">
        <ele>136.16</ele>
        <time>2015-04-27T13:39:14Z</time>
      </trkpt>
      <trkpt lat="48.86858" lon="1.54039">
        <ele>136.16</ele>
        <time>2015-04-27T13:39:25Z</time>
      </trkpt>
      <trkpt lat="48.86864" lon="1.54022">
        <ele>136.16</ele>
        <time>2015-04-27T13:39:35Z</time>
      </trkpt>
      <trkpt lat="48.86866" lon="1.54014">
        <ele>136.16</ele>
        <time>2015-04-27T13:39:43Z</time>
      </trkpt>
      <trkpt lat="48.86868" lon="1.54006">
        <ele>136.64</ele>
        <time>2015-04-27T13:39:51Z</time>
      </trkpt>
      <trkpt lat="48.86874" lon="1.5399">
        <ele>136.64</ele>
        <time>2015-04-27T13:40:01Z</time>
      </trkpt>
      <trkpt lat="48.86881" lon="1.53976">
        <ele>136.16</ele>
        <time>2015-04-27T13:40:10Z</time>
      </trkpt>
      <trkpt lat="48.86888" lon="1.53962">
        <ele>136.16</ele>
        <time>2015-04-27T13:40:20Z</time>
      </trkpt>
      <trkpt lat="48.86895" lon="1.53948">
        <ele>136.16</ele>
        <time>2015-04-27T13:40:30Z</time>
      </trkpt>
      <trkpt lat="48.86904" lon="1.5393">
        <ele>136.16</ele>
        <time>2015-04-27T13:40:42Z</time>
      </trkpt>
      <trkpt lat="48.8691" lon="1.5392">
        <ele>136.64</ele>
        <time>2015-04-27T13:40:49Z</time>
      </trkpt>
      <trkpt lat="48.8691" lon="1.53911">
        <ele>136.64</ele>
        <time>2015-04-27T13:40:55Z</time>
      </trkpt>
      <trkpt lat="48.86908" lon="1.53908">
        <ele>136.64</ele>
        <time>2015-04-27T13:40:57Z</time>
      </trkpt>
      <trkpt lat="48.86897" lon="1.53906">
        <ele>136.64</ele>
        <time>2015-04-27T13:41:07Z</time>
      </trkpt>
      <trkpt lat="48.86888" lon="1.53905">
        <ele>135.2</ele>
        <time>2015-04-27T13:41:14Z</time>
      </trkpt>
      <trkpt lat="48.86878" lon="1.53902">
        <ele>135.2</ele>
        <time>2015-04-27T13:41:22Z</time>
      </trkpt>
      <trkpt lat="48.86866" lon="1.53898">
        <ele>135.2</ele>
        <time>2015-04-27T13:41:32Z</time>
      </trkpt>
      <trkpt lat="48.86854" lon="1.53895">
        <ele>135.2</ele>
        <time>2015-04-27T13:41:42Z</time>
      </trkpt>
      <trkpt lat="48.86845" lon="1.53892">
        <ele>133.76</ele>
        <time>2015-04-27T13:41:50Z</time>
      </trkpt>
      <trkpt lat="48.86832" lon="1.53889">
        <ele>134.24</ele>
        <time>2015-04-27T13:42:00Z</time>
      </trkpt>
      <trkpt lat="48.86818" lon="1.53886">
        <ele>134.24</ele>
        <time>2015-04-27T13:42:11Z</time>
      </trkpt>
      <trkpt lat="48.86807" lon="1.53881">
        <ele>133.28</ele>
        <time>2015-04-27T13:42:20Z</time>
      </trkpt>
      <trkpt lat="48.86792" lon="1.53877">
        <ele>133.28</ele>
        <time>2015-04-27T13:42:32Z</time>
      </trkpt>
      <trkpt lat="48.86777" lon="1.53874">
        <ele>133.28</ele>
        <time>2015-04-27T13:42:44Z</time>
      </trkpt>
      <trkpt lat="48.86763" lon="1.53871">
        <ele>132.32</ele>
        <time>2015-04-27T13:42:55Z</time>
      </trkpt>
      <trkpt lat="48.86749" lon="1.53867">
        <ele>132.32</ele>
        <time>2015-04-27T13:43:06Z</time>
      </trkpt>
      <trkpt lat="48.86739" lon="1.53864">
        <ele>132.32</ele>
        <time>2015-04-27T13:43:16Z</time>
      </trkpt>
      <trkpt lat="48.86726" lon="1.53859">
        <ele>131.36</ele>
        <time>2015-04-27T13:43:27Z</time>
      </trkpt>
      <trkpt lat="48.86713" lon="1.53854">
        <ele>131.36</ele>
        <time>2015-04-27T13:43:38Z</time>
      </trkpt>
      <trkpt lat="48.867" lon="1.53849">
        <ele>131.84</ele>
        <time>2015-04-27T13:43:49Z</time>
      </trkpt>
      <trkpt lat="48.86689" lon="1.53841">
        <ele>131.36</ele>
        <time>2015-04-27T13:43:59Z</time>
      </trkpt>
      <trkpt lat="48.86678" lon="1.53832">
        <ele>131.36</ele>
        <time>2015-04-27T13:44:09Z</time>
      </trkpt>
      <trkpt lat="48.86666" lon="1.53821">
        <ele>130.88</ele>
        <time>2015-04-27T13:44:20Z</time>
      </trkpt>
      <trkpt lat="48.86654" lon="1.53811">
        <ele>130.4</ele>
        <time>2015-04-27T13:44:31Z</time>
      </trkpt>
      <trkpt lat="48.86642" lon="1.53799">
        <ele>130.88</ele>
        <time>2015-04-27T13:44:43Z</time>
      </trkpt>
      <trkpt lat="48.86631" lon="1.5379">
        <ele>130.4</ele>
        <time>2015-04-27T13:44:53Z</time>
      </trkpt>
      <trkpt lat="48.8662" lon="1.53779">
        <ele>129.92</ele>
        <time>2015-04-27T13:45:04Z</time>
      </trkpt>
      <trkpt lat="48.86609" lon="1.5377">
        <ele>129.92</ele>
        <time>2015-04-27T13:45:14Z</time>
      </trkpt>
      <trkpt lat="48.86598" lon="1.5376">
        <ele>129.92</ele>
        <time>2015-04-27T13:45:24Z</time>
      </trkpt>
      <trkpt lat="48.86586" lon="1.53749">
        <ele>129.43</ele>
        <time>2015-04-27T13:45:35Z</time>
      </trkpt>
      <trkpt lat="48.86573" lon="1.53739">
        <ele>129.43</ele>
        <time>2015-04-27T13:45:46Z</time>
      </trkpt>
      <trkpt lat="48.86565" lon="1.53732">
        <ele>128.95</ele>
        <time>2015-04-27T13:45:54Z</time>
      </trkpt>
      <trkpt lat="48.86555" lon="1.53724">
        <ele>128.95</ele>
        <time>2015-04-27T13:46:03Z</time>
      </trkpt>
      <trkpt lat="48.86545" lon="1.53716">
        <ele>128.95</ele>
        <time>2015-04-27T13:46:13Z</time>
      </trkpt>
      <trkpt lat="48.86538" lon="1.53709">
        <ele>128.95</ele>
        <time>2015-04-27T13:46:20Z</time>
      </trkpt>
      <trkpt lat="48.86526" lon="1.53699">
        <ele>128.95</ele>
        <time>2015-04-27T13:46:31Z</time>
      </trkpt>
      <trkpt lat="48.86513" lon="1.53687">
        <ele>128.47</ele>
        <time>2015-04-27T13:46:43Z</time>
      </trkpt>
      <trkpt lat="48.86507" lon="1.53682">
        <ele>128.95</ele>
        <time>2015-04-27T13:46:49Z</time>
      </trkpt>
      <trkpt lat="48.86499" lon="1.53675">
        <ele>128.95</ele>
        <time>2015-04-27T13:46:59Z</time>
      </trkpt>
      <trkpt lat="48.86489" lon="1.53665">
        <ele>127.51</ele>
        <time>2015-04-27T13:47:10Z</time>
      </trkpt>
      <trkpt lat="48.86487" lon="1.53663">
        <ele>128.95</ele>
        <time>2015-04-27T13:47:13Z</time>
      </trkpt>
      <trkpt lat="48.86476" lon="1.53653">
        <ele>129.43</ele>
        <time>2015-04-27T13:47:23Z</time>
      </trkpt>
      <trkpt lat="48.86467" lon="1.53645">
        <ele>127.99</ele>
        <time>2015-04-27T13:47:31Z</time>
      </trkpt>
      <trkpt lat="48.86455" lon="1.53635">
        <ele>127.99</ele>
        <time>2015-04-27T13:47:43Z</time>
      </trkpt>
      <trkpt lat="48.86445" lon="1.53626">
        <ele>127.99</ele>
        <time>2015-04-27T13:47:53Z</time>
      </trkpt>
      <trkpt lat="48.86436" lon="1.53619">
        <ele>127.51</ele>
        <time>2015-04-27T13:48:02Z</time>
      </trkpt>
      <trkpt lat="48.86426" lon="1.53609">
        <ele>127.99</ele>
        <time>2015-04-27T13:48:12Z</time>
      </trkpt>
      <trkpt lat="48.86414" lon="1.53598">
        <ele>127.99</ele>
        <time>2015-04-27T13:48:23Z</time>
      </trkpt>
      <trkpt lat="48.86404" lon="1.53591">
        <ele>127.99</ele>
        <time>2015-04-27T13:48:32Z</time>
      </trkpt>
      <trkpt lat="48.86393" lon="1.53581">
        <ele>127.99</ele>
        <time>2015-04-27T13:48:42Z</time>
      </trkpt>
      <trkpt lat="48.86383" lon="1.53573">
        <ele>127.99</ele>
        <time>2015-04-27T13:48:51Z</time>
      </trkpt>
      <trkpt lat="48.86374" lon="1.53565">
        <ele>127.03</ele>
        <time>2015-04-27T13:49:00Z</time>
      </trkpt>
      <trkpt lat="48.86363" lon="1.53556">
        <ele>127.03</ele>
        <time>2015-04-27T13:49:10Z</time>
      </trkpt>
      <trkpt lat="48.86352" lon="1.53546">
        <ele>127.03</ele>
        <time>2015-04-27T13:49:20Z</time>
      </trkpt>
      <trkpt lat="48.86339" lon="1.53535">
        <ele>127.03</ele>
        <time>2015-04-27T13:49:32Z</time>
      </trkpt>
      <trkpt lat="48.86329" lon="1.53526">
        <ele>127.03</ele>
        <time>2015-04-27T13:49:42Z</time>
      </trkpt>
      <trkpt lat="48.8632" lon="1.53517">
        <ele>127.03</ele>
        <time>2015-04-27T13:49:52Z</time>
      </trkpt>
      <trkpt lat="48.86309" lon="1.53508">
        <ele>127.51</ele>
        <time>2015-04-27T13:50:03Z</time>
      </trkpt>
      <trkpt lat="48.86299" lon="1.53499">
        <ele>127.51</ele>
        <time>2015-04-27T13:50:13Z</time>
      </trkpt>
      <trkpt lat="48.86285" lon="1.53487">
        <ele>127.51</ele>
        <time>2015-04-27T13:50:26Z</time>
      </trkpt>
      <trkpt lat="48.86275" lon="1.53478">
        <ele>127.51</ele>
        <time>2015-04-27T13:50:36Z</time>
      </trkpt>
      <trkpt lat="48.86262" lon="1.53467">
        <ele>127.51</ele>
        <time>2015-04-27T13:50:48Z</time>
      </trkpt>
      <trkpt lat="48.8625" lon="1.53456">
        <ele>127.51</ele>
        <time>2015-04-27T13:50:59Z</time>
      </trkpt>
      <trkpt lat="48.86235" lon="1.53442">
        <ele>127.51</ele>
        <time>2015-04-27T13:51:13Z</time>
      </trkpt>
      <trkpt lat="48.86222" lon="1.5343">
        <ele>127.03</ele>
        <time>2015-04-27T13:51:26Z</time>
      </trkpt>
      <trkpt lat="48.86211" lon="1.5342">
        <ele>127.03</ele>
        <time>2015-04-27T13:51:37Z</time>
      </trkpt>
      <trkpt lat="48.86201" lon="1.53411">
        <ele>127.03</ele>
        <time>2015-04-27T13:51:47Z</time>
      </trkpt>
      <trkpt lat="48.86191" lon="1.53402">
        <ele>127.03</ele>
        <time>2015-04-27T13:51:57Z</time>
      </trkpt>
      <trkpt lat="48.8618" lon="1.53393">
        <ele>127.03</ele>
        <time>2015-04-27T13:52:07Z</time>
      </trkpt>
      <trkpt lat="48.86169" lon="1.53383">
        <ele>127.03</ele>
        <time>2015-04-27T13:52:18Z</time>
      </trkpt>
      <trkpt lat="48.86157" lon="1.53374">
        <ele>127.03</ele>
        <time>2015-04-27T13:52:28Z</time>
      </trkpt>
      <trkpt lat="48.86148" lon="1.53365">
        <ele>127.51</ele>
        <time>2015-04-27T13:52:37Z</time>
      </trkpt>
      <trkpt lat="48.86137" lon="1.53357">
        <ele>127.51</ele>
        <time>2015-04-27T13:52:47Z</time>
      </trkpt>
      <trkpt lat="48.86126" lon="1.53348">
        <ele>127.51</ele>
        <time>2015-04-27T13:52:57Z</time>
      </trkpt>
      <trkpt lat="48.86113" lon="1.53338">
        <ele>127.51</ele>
        <time>2015-04-27T13:53:09Z</time>
      </trkpt>
      <trkpt lat="48.86103" lon="1.53329">
        <ele>127.51</ele>
        <time>2015-04-27T13:53:19Z</time>
      </trkpt>
      <trkpt lat="48.86092" lon="1.5332">
        <ele>127.03</ele>
        <time>2015-04-27T13:53:29Z</time>
      </trkpt>
      <trkpt lat="48.86082" lon="1.53312">
        <ele>127.03</ele>
        <time>2015-04-27T13:53:39Z</time>
      </trkpt>
      <trkpt lat="48.86071" lon="1.53302">
        <ele>126.55</ele>
        <time>2015-04-27T13:53:50Z</time>
      </trkpt>
      <trkpt lat="48.8606" lon="1.53292">
        <ele>126.55</ele>
        <time>2015-04-27T13:54:00Z</time>
      </trkpt>
      <trkpt lat="48.8605" lon="1.53283">
        <ele>126.55</ele>
        <time>2015-04-27T13:54:10Z</time>
      </trkpt>
      <trkpt lat="48.86037" lon="1.53271">
        <ele>127.03</ele>
        <time>2015-04-27T13:54:23Z</time>
      </trkpt>
      <trkpt lat="48.86029" lon="1.53265">
        <ele>127.03</ele>
        <time>2015-04-27T13:54:31Z</time>
      </trkpt>
      <trkpt lat="48.86025" lon="1.53261">
        <ele>127.03</ele>
        <time>2015-04-27T13:54:35Z</time>
      </trkpt>
      <trkpt lat="48.86015" lon="1.53256">
        <ele>127.03</ele>
        <time>2015-04-27T13:54:44Z</time>
      </trkpt>
      <trkpt lat="48.86006" lon="1.53253">
        <ele>127.03</ele>
        <time>2015-04-27T13:54:55Z</time>
      </trkpt>
      <trkpt lat="48.86005" lon="1.53251">
        <ele>127.03</ele>
        <time>2015-04-27T13:55:03Z</time>
      </trkpt>
      <trkpt lat="48.85998" lon="1.53246">
        <ele>127.03</ele>
        <time>2015-04-27T13:55:11Z</time>
      </trkpt>
      <trkpt lat="48.85991" lon="1.53238">
        <ele>127.03</ele>
        <time>2015-04-27T13:55:21Z</time>
      </trkpt>
      <trkpt lat="48.85982" lon="1.53232">
        <ele>127.03</ele>
        <time>2015-04-27T13:55:32Z</time>
      </trkpt>
      <trkpt lat="48.85968" lon="1.53224">
        <ele>127.03</ele>
        <time>2015-04-27T13:55:43Z</time>
      </trkpt>
      <trkpt lat="48.85956" lon="1.53216">
        <ele>127.03</ele>
        <time>2015-04-27T13:55:53Z</time>
      </trkpt>
      <trkpt lat="48.85945" lon="1.53208">
        <ele>127.99</ele>
        <time>2015-04-27T13:56:03Z</time>
      </trkpt>
      <trkpt lat="48.85935" lon="1.53201">
        <ele>128.47</ele>
        <time>2015-04-27T13:56:12Z</time>
      </trkpt>
      <trkpt lat="48.85925" lon="1.53196">
        <ele>128.47</ele>
        <time>2015-04-27T13:56:20Z</time>
      </trkpt>
      <trkpt lat="48.85915" lon="1.53191">
        <ele>128.47</ele>
        <time>2015-04-27T13:56:29Z</time>
      </trkpt>
      <trkpt lat="48.85905" lon="1.53182">
        <ele>128.47</ele>
        <time>2015-04-27T13:56:38Z</time>
      </trkpt>
      <trkpt lat="48.85895" lon="1.5317">
        <ele>128.47</ele>
        <time>2015-04-27T13:56:48Z</time>
      </trkpt>
      <trkpt lat="48.85887" lon="1.53157">
        <ele>127.03</ele>
        <time>2015-04-27T13:56:57Z</time>
      </trkpt>
      <trkpt lat="48.85887" lon="1.53155">
        <ele>127.03</ele>
        <time>2015-04-27T13:56:58Z</time>
      </trkpt>
      <trkpt lat="48.85881" lon="1.5314">
        <ele>127.03</ele>
        <time>2015-04-27T13:57:07Z</time>
      </trkpt>
      <trkpt lat="48.85875" lon="1.53128">
        <ele>126.55</ele>
        <time>2015-04-27T13:57:16Z</time>
      </trkpt>
      <trkpt lat="48.85867" lon="1.53118">
        <ele>126.55</ele>
        <time>2015-04-27T13:57:25Z</time>
      </trkpt>
      <trkpt lat="48.85859" lon="1.53103">
        <ele>126.07</ele>
        <time>2015-04-27T13:57:35Z</time>
      </trkpt>
      <trkpt lat="48.85854" lon="1.53088">
        <ele>126.07</ele>
        <time>2015-04-27T13:57:44Z</time>
      </trkpt>
      <trkpt lat="48.85851" lon="1.5308">
        <ele>126.07</ele>
        <time>2015-04-27T13:57:50Z</time>
      </trkpt>
      <trkpt lat="48.85839" lon="1.53072">
        <ele>126.07</ele>
        <time>2015-04-27T13:58:01Z</time>
      </trkpt>
      <trkpt lat="48.85828" lon="1.53069">
        <ele>125.59</ele>
        <time>2015-04-27T13:58:10Z</time>
      </trkpt>
      <trkpt lat="48.85822" lon="1.53068">
        <ele>125.59</ele>
        <time>2015-04-27T13:58:17Z</time>
      </trkpt>
      <trkpt lat="48.85812" lon="1.53064">
        <ele>125.59</ele>
        <time>2015-04-27T13:58:26Z</time>
      </trkpt>
      <trkpt lat="48.85807" lon="1.53063">
        <ele>125.59</ele>
        <time>2015-04-27T13:58:33Z</time>
      </trkpt>
      <trkpt lat="48.85806" lon="1.53063">
        <ele>126.07</ele>
        <time>2015-04-27T13:58:45Z</time>
      </trkpt>
      <trkpt lat="48.85803" lon="1.53062">
        <ele>125.59</ele>
        <time>2015-04-27T13:59:00Z</time>
      </trkpt>
      <trkpt lat="48.85801" lon="1.53061">
        <ele>124.15</ele>
        <time>2015-04-27T13:59:04Z</time>
      </trkpt>
      <trkpt lat="48.85799" lon="1.53059">
        <ele>123.19</ele>
        <time>2015-04-27T13:59:10Z</time>
      </trkpt>
      <trkpt lat="48.85799" lon="1.53059">
        <ele>126.55</ele>
        <time>2015-04-27T13:59:14Z</time>
      </trkpt>
      <trkpt lat="48.85799" lon="1.53059">
        <ele>126.55</ele>
        <time>2015-04-27T13:59:24Z</time>
      </trkpt>
      <trkpt lat="48.85797" lon="1.53064">
        <ele>124.63</ele>
        <time>2015-04-27T13:59:28Z</time>
      </trkpt>
      <trkpt lat="48.85794" lon="1.53078">
        <ele>126.07</ele>
        <time>2015-04-27T13:59:38Z</time>
      </trkpt>
      <trkpt lat="48.85785" lon="1.53092">
        <ele>127.51</ele>
        <time>2015-04-27T13:59:49Z</time>
      </trkpt>
      <trkpt lat="48.85782" lon="1.53108">
        <ele>127.51</ele>
        <time>2015-04-27T13:59:57Z</time>
      </trkpt>
      <trkpt lat="48.85775" lon="1.5312">
        <ele>127.99</ele>
        <time>2015-04-27T14:00:06Z</time>
      </trkpt>
      <trkpt lat="48.85768" lon="1.53131">
        <ele>127.03</ele>
        <time>2015-04-27T14:00:15Z</time>
      </trkpt>
      <trkpt lat="48.85759" lon="1.53145">
        <ele>128.47</ele>
        <time>2015-04-27T14:00:27Z</time>
      </trkpt>
      <trkpt lat="48.8575" lon="1.5316">
        <ele>128.95</ele>
        <time>2015-04-27T14:00:37Z</time>
      </trkpt>
      <trkpt lat="48.8574" lon="1.53172">
        <ele>128.95</ele>
        <time>2015-04-27T14:00:47Z</time>
      </trkpt>
      <trkpt lat="48.8573" lon="1.53181">
        <ele>129.92</ele>
        <time>2015-04-27T14:00:57Z</time>
      </trkpt>
      <trkpt lat="48.8572" lon="1.53192">
        <ele>129.92</ele>
        <time>2015-04-27T14:01:07Z</time>
      </trkpt>
      <trkpt lat="48.8571" lon="1.53204">
        <ele>129.92</ele>
        <time>2015-04-27T14:01:18Z</time>
      </trkpt>
      <trkpt lat="48.85698" lon="1.53218">
        <ele>129.92</ele>
        <time>2015-04-27T14:01:31Z</time>
      </trkpt>
      <trkpt lat="48.85683" lon="1.5323">
        <ele>130.4</ele>
        <time>2015-04-27T14:01:44Z</time>
      </trkpt>
      <trkpt lat="48.85669" lon="1.53239">
        <ele>130.4</ele>
        <time>2015-04-27T14:01:56Z</time>
      </trkpt>
      <trkpt lat="48.85657" lon="1.53249">
        <ele>130.88</ele>
        <time>2015-04-27T14:02:08Z</time>
      </trkpt>
      <trkpt lat="48.85652" lon="1.53251">
        <ele>131.36</ele>
        <time>2015-04-27T14:02:16Z</time>
      </trkpt>
      <trkpt lat="48.85648" lon="1.53253">
        <ele>130.4</ele>
        <time>2015-04-27T14:02:24Z</time>
      </trkpt>
      <trkpt lat="48.85635" lon="1.53259">
        <ele>130.4</ele>
        <time>2015-04-27T14:02:34Z</time>
      </trkpt>
      <trkpt lat="48.85626" lon="1.53267">
        <ele>131.36</ele>
        <time>2015-04-27T14:02:42Z</time>
      </trkpt>
      <trkpt lat="48.85623" lon="1.53267">
        <ele>131.36</ele>
        <time>2015-04-27T14:02:48Z</time>
      </trkpt>
      <trkpt lat="48.8562" lon="1.53271">
        <ele>131.36</ele>
        <time>2015-04-27T14:02:51Z</time>
      </trkpt>
      <trkpt lat="48.85614" lon="1.53273">
        <ele>131.36</ele>
        <time>2015-04-27T14:02:59Z</time>
      </trkpt>
      <trkpt lat="48.85614" lon="1.53273">
        <ele>131.36</ele>
        <time>2015-04-27T14:03:00Z</time>
      </trkpt>
      <trkpt lat="48.85606" lon="1.53273">
        <ele>131.36</ele>
        <time>2015-04-27T14:03:06Z</time>
      </trkpt>
      <trkpt lat="48.85593" lon="1.53272">
        <ele>130.4</ele>
        <time>2015-04-27T14:03:17Z</time>
      </trkpt>
      <trkpt lat="48.85581" lon="1.5327">
        <ele>130.4</ele>
        <time>2015-04-27T14:03:27Z</time>
      </trkpt>
      <trkpt lat="48.85569" lon="1.5327">
        <ele>129.92</ele>
        <time>2015-04-27T14:03:38Z</time>
      </trkpt>
      <trkpt lat="48.85557" lon="1.53266">
        <ele>129.43</ele>
        <time>2015-04-27T14:03:48Z</time>
      </trkpt>
      <trkpt lat="48.85548" lon="1.53263">
        <ele>128.95</ele>
        <time>2015-04-27T14:03:56Z</time>
      </trkpt>
      <trkpt lat="48.85535" lon="1.53258">
        <ele>127.99</ele>
        <time>2015-04-27T14:04:07Z</time>
      </trkpt>
      <trkpt lat="48.85524" lon="1.53254">
        <ele>127.51</ele>
        <time>2015-04-27T14:04:17Z</time>
      </trkpt>
      <trkpt lat="48.85514" lon="1.53247">
        <ele>127.03</ele>
        <time>2015-04-27T14:04:27Z</time>
      </trkpt>
      <trkpt lat="48.85503" lon="1.53239">
        <ele>127.03</ele>
        <time>2015-04-27T14:04:38Z</time>
      </trkpt>
      <trkpt lat="48.85492" lon="1.5323">
        <ele>127.03</ele>
        <time>2015-04-27T14:04:48Z</time>
      </trkpt>
      <trkpt lat="48.85483" lon="1.5322">
        <ele>126.55</ele>
        <time>2015-04-27T14:04:58Z</time>
      </trkpt>
      <trkpt lat="48.85474" lon="1.5321">
        <ele>126.07</ele>
        <time>2015-04-27T14:05:08Z</time>
      </trkpt>
      <trkpt lat="48.85471" lon="1.53206">
        <ele>127.51</ele>
        <time>2015-04-27T14:05:11Z</time>
      </trkpt>
      <trkpt lat="48.85461" lon="1.53196">
        <ele>127.51</ele>
        <time>2015-04-27T14:05:23Z</time>
      </trkpt>
      <trkpt lat="48.85454" lon="1.5319">
        <ele>126.07</ele>
        <time>2015-04-27T14:05:30Z</time>
      </trkpt>
      <trkpt lat="48.85442" lon="1.53178">
        <ele>126.07</ele>
        <time>2015-04-27T14:05:41Z</time>
      </trkpt>
      <trkpt lat="48.85435" lon="1.5317">
        <ele>125.59</ele>
        <time>2015-04-27T14:05:48Z</time>
      </trkpt>
      <trkpt lat="48.85431" lon="1.53165">
        <ele>127.03</ele>
        <time>2015-04-27T14:05:52Z</time>
      </trkpt>
      <trkpt lat="48.85423" lon="1.53155">
        <ele>125.59</ele>
        <time>2015-04-27T14:06:00Z</time>
      </trkpt>
      <trkpt lat="48.85422" lon="1.53154">
        <ele>125.59</ele>
        <time>2015-04-27T14:06:01Z</time>
      </trkpt>
      <trkpt lat="48.85412" lon="1.53143">
        <ele>125.11</ele>
        <time>2015-04-27T14:06:11Z</time>
      </trkpt>
      <trkpt lat="48.85404" lon="1.53137">
        <ele>125.11</ele>
        <time>2015-04-27T14:06:19Z</time>
      </trkpt>
      <trkpt lat="48.85394" lon="1.53128">
        <ele>124.63</ele>
        <time>2015-04-27T14:06:30Z</time>
      </trkpt>
      <trkpt lat="48.85386" lon="1.53121">
        <ele>124.63</ele>
        <time>2015-04-27T14:06:38Z</time>
      </trkpt>
      <trkpt lat="48.85373" lon="1.53112">
        <ele>124.15</ele>
        <time>2015-04-27T14:06:48Z</time>
      </trkpt>
      <trkpt lat="48.85371" lon="1.5311">
        <ele>124.15</ele>
        <time>2015-04-27T14:06:50Z</time>
      </trkpt>
      <trkpt lat="48.8537" lon="1.53108">
        <ele>124.15</ele>
        <time>2015-04-27T14:06:52Z</time>
      </trkpt>
      <trkpt lat="48.85356" lon="1.53098">
        <ele>124.15</ele>
        <time>2015-04-27T14:07:04Z</time>
      </trkpt>
      <trkpt lat="48.85344" lon="1.53088">
        <ele>123.67</ele>
        <time>2015-04-27T14:07:15Z</time>
      </trkpt>
      <trkpt lat="48.85339" lon="1.53084">
        <ele>123.67</ele>
        <time>2015-04-27T14:07:21Z</time>
      </trkpt>
      <trkpt lat="48.85327" lon="1.53074">
        <ele>123.67</ele>
        <time>2015-04-27T14:07:32Z</time>
      </trkpt>
      <trkpt lat="48.85315" lon="1.53065">
        <ele>123.19</ele>
        <time>2015-04-27T14:07:43Z</time>
      </trkpt>
      <trkpt lat="48.85304" lon="1.53054">
        <ele>123.67</ele>
        <time>2015-04-27T14:07:54Z</time>
      </trkpt>
      <trkpt lat="48.85292" lon="1.53044">
        <ele>123.67</ele>
        <time>2015-04-27T14:08:05Z</time>
      </trkpt>
      <trkpt lat="48.85286" lon="1.5304">
        <ele>122.22</ele>
        <time>2015-04-27T14:08:10Z</time>
      </trkpt>
      <trkpt lat="48.85275" lon="1.5303">
        <ele>121.74</ele>
        <time>2015-04-27T14:08:21Z</time>
      </trkpt>
      <trkpt lat="48.85264" lon="1.53021">
        <ele>121.26</ele>
        <time>2015-04-27T14:08:31Z</time>
      </trkpt>
      <trkpt lat="48.85248" lon="1.53009">
        <ele>120.3</ele>
        <time>2015-04-27T14:08:45Z</time>
      </trkpt>
      <trkpt lat="48.85232" lon="1.52999">
        <ele>118.86</ele>
        <time>2015-04-27T14:08:59Z</time>
      </trkpt>
      <trkpt lat="48.85222" lon="1.52993">
        <ele>118.38</ele>
        <time>2015-04-27T14:09:08Z</time>
      </trkpt>
      <trkpt lat="48.85211" lon="1.52986">
        <ele>117.9</ele>
        <time>2015-04-27T14:09:19Z</time>
      </trkpt>
      <trkpt lat="48.85199" lon="1.52982">
        <ele>116.94</ele>
        <time>2015-04-27T14:09:29Z</time>
      </trkpt>
      <trkpt lat="48.85185" lon="1.52979">
        <ele>116.46</ele>
        <time>2015-04-27T14:09:41Z</time>
      </trkpt>
      <trkpt lat="48.85172" lon="1.52975">
        <ele>115.98</ele>
        <time>2015-04-27T14:09:52Z</time>
      </trkpt>
      <trkpt lat="48.85158" lon="1.52972">
        <ele>115.98</ele>
        <time>2015-04-27T14:10:03Z</time>
      </trkpt>
      <trkpt lat="48.85145" lon="1.52964">
        <ele>115.5</ele>
        <time>2015-04-27T14:10:14Z</time>
      </trkpt>
      <trkpt lat="48.85134" lon="1.52964">
        <ele>115.5</ele>
        <time>2015-04-27T14:10:23Z</time>
      </trkpt>
      <trkpt lat="48.85122" lon="1.52966">
        <ele>115.01</ele>
        <time>2015-04-27T14:10:33Z</time>
      </trkpt>
      <trkpt lat="48.85109" lon="1.52967">
        <ele>114.53</ele>
        <time>2015-04-27T14:10:44Z</time>
      </trkpt>
      <trkpt lat="48.85106" lon="1.52968">
        <ele>114.05</ele>
        <time>2015-04-27T14:10:47Z</time>
      </trkpt>
      <trkpt lat="48.85095" lon="1.52967">
        <ele>113.57</ele>
        <time>2015-04-27T14:10:57Z</time>
      </trkpt>
      <trkpt lat="48.8508" lon="1.52963">
        <ele>112.61</ele>
        <time>2015-04-27T14:11:10Z</time>
      </trkpt>
      <trkpt lat="48.85069" lon="1.52958">
        <ele>111.17</ele>
        <time>2015-04-27T14:11:20Z</time>
      </trkpt>
      <trkpt lat="48.85056" lon="1.5295">
        <ele>110.21</ele>
        <time>2015-04-27T14:11:31Z</time>
      </trkpt>
      <trkpt lat="48.85046" lon="1.52943">
        <ele>109.25</ele>
        <time>2015-04-27T14:11:41Z</time>
      </trkpt>
      <trkpt lat="48.85034" lon="1.52935">
        <ele>107.81</ele>
        <time>2015-04-27T14:11:51Z</time>
      </trkpt>
      <trkpt lat="48.85021" lon="1.52923">
        <ele>107.32</ele>
        <time>2015-04-27T14:12:03Z</time>
      </trkpt>
      <trkpt lat="48.85007" lon="1.52913">
        <ele>106.36</ele>
        <time>2015-04-27T14:12:15Z</time>
      </trkpt>
      <trkpt lat="48.84996" lon="1.52904">
        <ele>105.4</ele>
        <time>2015-04-27T14:12:26Z</time>
      </trkpt>
      <trkpt lat="48.84984" lon="1.52893">
        <ele>103.96</ele>
        <time>2015-04-27T14:12:38Z</time>
      </trkpt>
      <trkpt lat="48.84972" lon="1.52883">
        <ele>103.48</ele>
        <time>2015-04-27T14:12:49Z</time>
      </trkpt>
      <trkpt lat="48.84961" lon="1.52874">
        <ele>101.56</ele>
        <time>2015-04-27T14:13:00Z</time>
      </trkpt>
      <trkpt lat="48.84949" lon="1.52866">
        <ele>100.6</ele>
        <time>2015-04-27T14:13:10Z</time>
      </trkpt>
      <trkpt lat="48.84938" lon="1.52857">
        <ele>99.63</ele>
        <time>2015-04-27T14:13:20Z</time>
      </trkpt>
      <trkpt lat="48.84924" lon="1.52845">
        <ele>98.67</ele>
        <time>2015-04-27T14:13:32Z</time>
      </trkpt>
      <trkpt lat="48.84909" lon="1.52832">
        <ele>97.23</ele>
        <time>2015-04-27T14:13:45Z</time>
      </trkpt>
      <trkpt lat="48.84897" lon="1.52822">
        <ele>95.79</ele>
        <time>2015-04-27T14:13:56Z</time>
      </trkpt>
      <trkpt lat="48.84888" lon="1.52815">
        <ele>94.83</ele>
        <time>2015-04-27T14:14:04Z</time>
      </trkpt>
      <trkpt lat="48.84887" lon="1.52814">
        <ele>94.83</ele>
        <time>2015-04-27T14:14:05Z</time>
      </trkpt>
      <trkpt lat="48.84876" lon="1.52805">
        <ele>94.83</ele>
        <time>2015-04-27T14:14:15Z</time>
      </trkpt>
      <trkpt lat="48.84865" lon="1.52788">
        <ele>92.9</ele>
        <time>2015-04-27T14:14:27Z</time>
      </trkpt>
      <trkpt lat="48.8486" lon="1.52783">
        <ele>92.9</ele>
        <time>2015-04-27T14:14:35Z</time>
      </trkpt>
      <trkpt lat="48.84855" lon="1.52778">
        <ele>92.42</ele>
        <time>2015-04-27T14:14:41Z</time>
      </trkpt>
      <trkpt lat="48.84846" lon="1.52764">
        <ele>91.94</ele>
        <time>2015-04-27T14:14:51Z</time>
      </trkpt>
      <trkpt lat="48.84837" lon="1.52755">
        <ele>91.46</ele>
        <time>2015-04-27T14:15:00Z</time>
      </trkpt>
      <trkpt lat="48.84826" lon="1.52749">
        <ele>90.5</ele>
        <time>2015-04-27T14:15:10Z</time>
      </trkpt>
      <trkpt lat="48.84815" lon="1.52741">
        <ele>90.02</ele>
        <time>2015-04-27T14:15:20Z</time>
      </trkpt>
      <trkpt lat="48.84802" lon="1.52733">
        <ele>88.58</ele>
        <time>2015-04-27T14:15:31Z</time>
      </trkpt>
      <trkpt lat="48.84788" lon="1.52724">
        <ele>88.1</ele>
        <time>2015-04-27T14:15:42Z</time>
      </trkpt>
      <trkpt lat="48.84775" lon="1.52715">
        <ele>87.14</ele>
        <time>2015-04-27T14:15:53Z</time>
      </trkpt>
      <trkpt lat="48.84763" lon="1.52709">
        <ele>86.66</ele>
        <time>2015-04-27T14:16:03Z</time>
      </trkpt>
      <trkpt lat="48.84756" lon="1.52704">
        <ele>86.18</ele>
        <time>2015-04-27T14:16:10Z</time>
      </trkpt>
      <trkpt lat="48.84745" lon="1.52698">
        <ele>85.21</ele>
        <time>2015-04-27T14:16:20Z</time>
      </trkpt>
      <trkpt lat="48.84743" lon="1.52697">
        <ele>85.21</ele>
        <time>2015-04-27T14:16:22Z</time>
      </trkpt>
      <trkpt lat="48.84741" lon="1.52696">
        <ele>85.21</ele>
        <time>2015-04-27T14:16:24Z</time>
      </trkpt>
      <trkpt lat="48.8473" lon="1.52688">
        <ele>84.73</ele>
        <time>2015-04-27T14:16:35Z</time>
      </trkpt>
      <trkpt lat="48.8472" lon="1.52683">
        <ele>84.73</ele>
        <time>2015-04-27T14:16:43Z</time>
      </trkpt>
      <trkpt lat="48.84708" lon="1.52675">
        <ele>84.25</ele>
        <time>2015-04-27T14:16:53Z</time>
      </trkpt>
      <trkpt lat="48.84695" lon="1.52666">
        <ele>83.29</ele>
        <time>2015-04-27T14:17:04Z</time>
      </trkpt>
      <trkpt lat="48.84693" lon="1.52665">
        <ele>83.29</ele>
        <time>2015-04-27T14:17:06Z</time>
      </trkpt>
      <trkpt lat="48.84686" lon="1.52647">
        <ele>82.81</ele>
        <time>2015-04-27T14:17:17Z</time>
      </trkpt>
      <trkpt lat="48.84683" lon="1.52631">
        <ele>82.81</ele>
        <time>2015-04-27T14:17:27Z</time>
      </trkpt>
      <trkpt lat="48.84683" lon="1.5262">
        <ele>82.33</ele>
        <time>2015-04-27T14:17:34Z</time>
      </trkpt>
      <trkpt lat="48.84683" lon="1.52613">
        <ele>82.33</ele>
        <time>2015-04-27T14:17:41Z</time>
      </trkpt>
      <trkpt lat="48.84681" lon="1.52595">
        <ele>81.85</ele>
        <time>2015-04-27T14:17:51Z</time>
      </trkpt>
      <trkpt lat="48.8468" lon="1.52592">
        <ele>80.41</ele>
        <time>2015-04-27T14:17:57Z</time>
      </trkpt>
      <trkpt lat="48.8468" lon="1.52593">
        <ele>83.77</ele>
        <time>2015-04-27T14:17:58Z</time>
      </trkpt>
      <trkpt lat="48.84679" lon="1.52596">
        <ele>81.37</ele>
        <time>2015-04-27T14:18:09Z</time>
      </trkpt>
      <trkpt lat="48.84677" lon="1.5259">
        <ele>81.37</ele>
        <time>2015-04-27T14:18:25Z</time>
      </trkpt>
      <trkpt lat="48.84678" lon="1.52573">
        <ele>81.37</ele>
        <time>2015-04-27T14:18:33Z</time>
      </trkpt>
      <trkpt lat="48.84676" lon="1.52567">
        <ele>79.93</ele>
        <time>2015-04-27T14:18:40Z</time>
      </trkpt>
      <trkpt lat="48.84676" lon="1.52566">
        <ele>79.93</ele>
        <time>2015-04-27T14:18:52Z</time>
      </trkpt>
      <trkpt lat="48.84675" lon="1.52566">
        <ele>79.93</ele>
        <time>2015-04-27T14:19:10Z</time>
      </trkpt>
      <trkpt lat="48.84675" lon="1.52564">
        <ele>79.45</ele>
        <time>2015-04-27T14:19:23Z</time>
      </trkpt>
      <trkpt lat="48.84678" lon="1.52566">
        <ele>79.45</ele>
        <time>2015-04-27T14:19:31Z</time>
      </trkpt>
      <trkpt lat="48.8468" lon="1.52566">
        <ele>79.45</ele>
        <time>2015-04-27T14:19:44Z</time>
      </trkpt>
      <trkpt lat="48.84681" lon="1.52566">
        <ele>79.45</ele>
        <time>2015-04-27T14:20:02Z</time>
      </trkpt>
      <trkpt lat="48.84683" lon="1.52567">
        <ele>79.45</ele>
        <time>2015-04-27T14:20:17Z</time>
      </trkpt>
      <trkpt lat="48.84682" lon="1.52568">
        <ele>79.93</ele>
        <time>2015-04-27T14:20:31Z</time>
      </trkpt>
      <trkpt lat="48.84682" lon="1.52566">
        <ele>79.93</ele>
        <time>2015-04-27T14:20:50Z</time>
      </trkpt>
      <trkpt lat="48.84681" lon="1.52565">
        <ele>79.93</ele>
        <time>2015-04-27T14:21:10Z</time>
      </trkpt>
      <trkpt lat="48.8468" lon="1.52564">
        <ele>79.93</ele>
        <time>2015-04-27T14:21:34Z</time>
      </trkpt>
      <trkpt lat="48.8468" lon="1.52564">
        <ele>79.93</ele>
        <time>2015-04-27T14:21:58Z</time>
      </trkpt>
      <trkpt lat="48.84681" lon="1.52563">
        <ele>79.93</ele>
        <time>2015-04-27T14:22:15Z</time>
      </trkpt>
      <trkpt lat="48.8468" lon="1.52563">
        <ele>81.37</ele>
        <time>2015-04-27T14:22:24Z</time>
      </trkpt>
      <trkpt lat="48.84679" lon="1.52564">
        <ele>81.37</ele>
        <time>2015-04-27T14:22:39Z</time>
      </trkpt>
      <trkpt lat="48.8468" lon="1.52563">
        <ele>81.37</ele>
        <time>2015-04-27T14:22:55Z</time>
      </trkpt>
      <trkpt lat="48.8468" lon="1.52563">
        <ele>81.85</ele>
        <time>2015-04-27T14:23:15Z</time>
      </trkpt>
      <trkpt lat="48.8468" lon="1.52564">
        <ele>82.33</ele>
        <time>2015-04-27T14:23:28Z</time>
      </trkpt>
      <trkpt lat="48.84681" lon="1.52563">
        <ele>82.33</ele>
        <time>2015-04-27T14:23:40Z</time>
      </trkpt>
    </trkseg>
  </trk>
</gpx>